<?xml version="1.0" encoding="UTF-8" standalone="no" ?>
<gpx xmlns="http://www.topografix.com/GPX/1/1" xmlns:xsi="http://www.w3.org/2001/XMLSchema-instance" xsi:schemaLocation="http://www.topografix.com/GPX/1/1 http://www.topografix.com/GPX/1/1/gpx.xsd" version="1.1" creator="VisuGPX - https://www.visugpx.com">
  <metadata>
    <name>V-14-11-02-sergy-chavannes</name>
    <desc><![CDATA[canton de Vaud]]></desc>
  </metadata>
  <trk>
    <name><![CDATA[V-14-11-01-sergy-chavannne]]></name>
    <trkseg>
      <trkpt lat="46.25903" lon="5.98975">
        <ele>486.81</ele>
        <time>2014-11-02T11:31:38Z</time>
      </trkpt>
      <trkpt lat="46.25903" lon="5.98974">
        <ele>486.85</ele>
        <time>2014-11-02T11:31:39Z</time>
      </trkpt>
      <trkpt lat="46.25902" lon="5.98975">
        <ele>488.78</ele>
        <time>2014-11-02T11:31:57Z</time>
      </trkpt>
      <trkpt lat="46.25903" lon="5.98979">
        <ele>491.86</ele>
        <time>2014-11-02T11:31:59Z</time>
      </trkpt>
      <trkpt lat="46.25905" lon="5.9899">
        <ele>496.12</ele>
        <time>2014-11-02T11:32:03Z</time>
      </trkpt>
      <trkpt lat="46.25905" lon="5.98993">
        <ele>497.07</ele>
        <time>2014-11-02T11:32:04Z</time>
      </trkpt>
      <trkpt lat="46.25905" lon="5.98996">
        <ele>498.06</ele>
        <time>2014-11-02T11:32:05Z</time>
      </trkpt>
      <trkpt lat="46.25903" lon="5.98999">
        <ele>498.89</ele>
        <time>2014-11-02T11:32:06Z</time>
      </trkpt>
      <trkpt lat="46.25896" lon="5.9901">
        <ele>501.41</ele>
        <time>2014-11-02T11:32:09Z</time>
      </trkpt>
      <trkpt lat="46.25888" lon="5.99019">
        <ele>501.87</ele>
        <time>2014-11-02T11:32:11Z</time>
      </trkpt>
      <trkpt lat="46.25884" lon="5.99025">
        <ele>502.39</ele>
        <time>2014-11-02T11:32:12Z</time>
      </trkpt>
      <trkpt lat="46.25874" lon="5.99038">
        <ele>503.28</ele>
        <time>2014-11-02T11:32:14Z</time>
      </trkpt>
      <trkpt lat="46.2583" lon="5.99109">
        <ele>505.04</ele>
        <time>2014-11-02T11:32:24Z</time>
      </trkpt>
      <trkpt lat="46.25775" lon="5.99168">
        <ele>503.84</ele>
        <time>2014-11-02T11:32:33Z</time>
      </trkpt>
      <trkpt lat="46.2577" lon="5.99176">
        <ele>503.65</ele>
        <time>2014-11-02T11:32:34Z</time>
      </trkpt>
      <trkpt lat="46.25766" lon="5.99184">
        <ele>503.5</ele>
        <time>2014-11-02T11:32:35Z</time>
      </trkpt>
      <trkpt lat="46.25763" lon="5.99193">
        <ele>503.42</ele>
        <time>2014-11-02T11:32:36Z</time>
      </trkpt>
      <trkpt lat="46.2576" lon="5.99202">
        <ele>503.3</ele>
        <time>2014-11-02T11:32:37Z</time>
      </trkpt>
      <trkpt lat="46.25729" lon="5.9928">
        <ele>500.26</ele>
        <time>2014-11-02T11:32:45Z</time>
      </trkpt>
      <trkpt lat="46.25695" lon="5.99326">
        <ele>498.64</ele>
        <time>2014-11-02T11:32:50Z</time>
      </trkpt>
      <trkpt lat="46.25664" lon="5.99357">
        <ele>496.85</ele>
        <time>2014-11-02T11:32:54Z</time>
      </trkpt>
      <trkpt lat="46.25657" lon="5.99363">
        <ele>496.42</ele>
        <time>2014-11-02T11:32:55Z</time>
      </trkpt>
      <trkpt lat="46.25648" lon="5.99369">
        <ele>495.96</ele>
        <time>2014-11-02T11:32:56Z</time>
      </trkpt>
      <trkpt lat="46.25633" lon="5.99383">
        <ele>494.9</ele>
        <time>2014-11-02T11:32:58Z</time>
      </trkpt>
      <trkpt lat="46.25609" lon="5.99405">
        <ele>493.99</ele>
        <time>2014-11-02T11:33:02Z</time>
      </trkpt>
      <trkpt lat="46.25604" lon="5.99411">
        <ele>493.73</ele>
        <time>2014-11-02T11:33:03Z</time>
      </trkpt>
      <trkpt lat="46.256" lon="5.99419">
        <ele>493.32</ele>
        <time>2014-11-02T11:33:04Z</time>
      </trkpt>
      <trkpt lat="46.25586" lon="5.99444">
        <ele>492.51</ele>
        <time>2014-11-02T11:33:07Z</time>
      </trkpt>
      <trkpt lat="46.2558" lon="5.99451">
        <ele>492.51</ele>
        <time>2014-11-02T11:33:08Z</time>
      </trkpt>
      <trkpt lat="46.2554" lon="5.995">
        <ele>489.29</ele>
        <time>2014-11-02T11:33:14Z</time>
      </trkpt>
      <trkpt lat="46.25519" lon="5.99529">
        <ele>485.97</ele>
        <time>2014-11-02T11:33:17Z</time>
      </trkpt>
      <trkpt lat="46.25464" lon="5.9961">
        <ele>482.65</ele>
        <time>2014-11-02T11:33:25Z</time>
      </trkpt>
      <trkpt lat="46.25449" lon="5.99629">
        <ele>482.41</ele>
        <time>2014-11-02T11:33:27Z</time>
      </trkpt>
      <trkpt lat="46.25426" lon="5.99655">
        <ele>482.19</ele>
        <time>2014-11-02T11:33:30Z</time>
      </trkpt>
      <trkpt lat="46.25384" lon="5.99717">
        <ele>478.69</ele>
        <time>2014-11-02T11:33:36Z</time>
      </trkpt>
      <trkpt lat="46.25316" lon="5.9981">
        <ele>475.47</ele>
        <time>2014-11-02T11:33:46Z</time>
      </trkpt>
      <trkpt lat="46.25285" lon="5.99872">
        <ele>472.31</ele>
        <time>2014-11-02T11:33:53Z</time>
      </trkpt>
      <trkpt lat="46.25275" lon="5.99892">
        <ele>471.72</ele>
        <time>2014-11-02T11:33:56Z</time>
      </trkpt>
      <trkpt lat="46.25272" lon="5.99898">
        <ele>471.58</ele>
        <time>2014-11-02T11:33:57Z</time>
      </trkpt>
      <trkpt lat="46.25263" lon="5.99915">
        <ele>471.57</ele>
        <time>2014-11-02T11:34:01Z</time>
      </trkpt>
      <trkpt lat="46.25262" lon="5.99919">
        <ele>471.58</ele>
        <time>2014-11-02T11:34:02Z</time>
      </trkpt>
      <trkpt lat="46.25263" lon="5.99924">
        <ele>471.58</ele>
        <time>2014-11-02T11:34:03Z</time>
      </trkpt>
      <trkpt lat="46.25265" lon="5.99927">
        <ele>471.41</ele>
        <time>2014-11-02T11:34:04Z</time>
      </trkpt>
      <trkpt lat="46.25273" lon="5.99935">
        <ele>470.92</ele>
        <time>2014-11-02T11:34:06Z</time>
      </trkpt>
      <trkpt lat="46.25277" lon="5.9994">
        <ele>470.92</ele>
        <time>2014-11-02T11:34:07Z</time>
      </trkpt>
      <trkpt lat="46.25281" lon="5.99944">
        <ele>470.8</ele>
        <time>2014-11-02T11:34:08Z</time>
      </trkpt>
      <trkpt lat="46.25318" lon="5.99977">
        <ele>470.27</ele>
        <time>2014-11-02T11:34:15Z</time>
      </trkpt>
      <trkpt lat="46.25324" lon="5.99982">
        <ele>470.24</ele>
        <time>2014-11-02T11:34:16Z</time>
      </trkpt>
      <trkpt lat="46.25335" lon="5.99994">
        <ele>470.13</ele>
        <time>2014-11-02T11:34:18Z</time>
      </trkpt>
      <trkpt lat="46.25341" lon="6.00002">
        <ele>469.94</ele>
        <time>2014-11-02T11:34:19Z</time>
      </trkpt>
      <trkpt lat="46.25345" lon="6.00011">
        <ele>469.69</ele>
        <time>2014-11-02T11:34:20Z</time>
      </trkpt>
      <trkpt lat="46.25351" lon="6.00032">
        <ele>469.04</ele>
        <time>2014-11-02T11:34:22Z</time>
      </trkpt>
      <trkpt lat="46.25351" lon="6.00044">
        <ele>468.54</ele>
        <time>2014-11-02T11:34:23Z</time>
      </trkpt>
      <trkpt lat="46.2535" lon="6.00056">
        <ele>467.98</ele>
        <time>2014-11-02T11:34:24Z</time>
      </trkpt>
      <trkpt lat="46.25347" lon="6.00066">
        <ele>467.52</ele>
        <time>2014-11-02T11:34:25Z</time>
      </trkpt>
      <trkpt lat="46.25338" lon="6.00086">
        <ele>466.99</ele>
        <time>2014-11-02T11:34:27Z</time>
      </trkpt>
      <trkpt lat="46.25333" lon="6.00094">
        <ele>466.73</ele>
        <time>2014-11-02T11:34:28Z</time>
      </trkpt>
      <trkpt lat="46.25259" lon="6.00197">
        <ele>464.36</ele>
        <time>2014-11-02T11:34:41Z</time>
      </trkpt>
      <trkpt lat="46.25194" lon="6.00269">
        <ele>461.57</ele>
        <time>2014-11-02T11:34:51Z</time>
      </trkpt>
      <trkpt lat="46.2512" lon="6.00374">
        <ele>459.48</ele>
        <time>2014-11-02T11:35:04Z</time>
      </trkpt>
      <trkpt lat="46.25047" lon="6.00492">
        <ele>457.88</ele>
        <time>2014-11-02T11:35:18Z</time>
      </trkpt>
      <trkpt lat="46.2504" lon="6.00511">
        <ele>457.27</ele>
        <time>2014-11-02T11:35:20Z</time>
      </trkpt>
      <trkpt lat="46.24998" lon="6.00687">
        <ele>454.39</ele>
        <time>2014-11-02T11:35:36Z</time>
      </trkpt>
      <trkpt lat="46.24948" lon="6.00897">
        <ele>451.12</ele>
        <time>2014-11-02T11:35:54Z</time>
      </trkpt>
      <trkpt lat="46.24908" lon="6.01038">
        <ele>449.46</ele>
        <time>2014-11-02T11:36:06Z</time>
      </trkpt>
      <trkpt lat="46.24903" lon="6.01048">
        <ele>449.39</ele>
        <time>2014-11-02T11:36:07Z</time>
      </trkpt>
      <trkpt lat="46.24827" lon="6.01176">
        <ele>447.23</ele>
        <time>2014-11-02T11:36:21Z</time>
      </trkpt>
      <trkpt lat="46.2472" lon="6.01348">
        <ele>444.61</ele>
        <time>2014-11-02T11:36:40Z</time>
      </trkpt>
      <trkpt lat="46.24645" lon="6.01464">
        <ele>441.54</ele>
        <time>2014-11-02T11:36:53Z</time>
      </trkpt>
      <trkpt lat="46.24614" lon="6.01509">
        <ele>440.37</ele>
        <time>2014-11-02T11:36:58Z</time>
      </trkpt>
      <trkpt lat="46.246" lon="6.01525">
        <ele>439.62</ele>
        <time>2014-11-02T11:37:00Z</time>
      </trkpt>
      <trkpt lat="46.24594" lon="6.01535">
        <ele>439.18</ele>
        <time>2014-11-02T11:37:01Z</time>
      </trkpt>
      <trkpt lat="46.24589" lon="6.01545">
        <ele>438.72</ele>
        <time>2014-11-02T11:37:02Z</time>
      </trkpt>
      <trkpt lat="46.24579" lon="6.01565">
        <ele>438.06</ele>
        <time>2014-11-02T11:37:04Z</time>
      </trkpt>
      <trkpt lat="46.24573" lon="6.01574">
        <ele>437.86</ele>
        <time>2014-11-02T11:37:05Z</time>
      </trkpt>
      <trkpt lat="46.24525" lon="6.01649">
        <ele>437.92</ele>
        <time>2014-11-02T11:37:14Z</time>
      </trkpt>
      <trkpt lat="46.24493" lon="6.01741">
        <ele>439.47</ele>
        <time>2014-11-02T11:37:25Z</time>
      </trkpt>
      <trkpt lat="46.24493" lon="6.0175">
        <ele>439.54</ele>
        <time>2014-11-02T11:37:26Z</time>
      </trkpt>
      <trkpt lat="46.24494" lon="6.01758">
        <ele>439.73</ele>
        <time>2014-11-02T11:37:27Z</time>
      </trkpt>
      <trkpt lat="46.24496" lon="6.01766">
        <ele>440.12</ele>
        <time>2014-11-02T11:37:28Z</time>
      </trkpt>
      <trkpt lat="46.24498" lon="6.01773">
        <ele>440.31</ele>
        <time>2014-11-02T11:37:29Z</time>
      </trkpt>
      <trkpt lat="46.24541" lon="6.01876">
        <ele>442.14</ele>
        <time>2014-11-02T11:37:44Z</time>
      </trkpt>
      <trkpt lat="46.24574" lon="6.01947">
        <ele>442.54</ele>
        <time>2014-11-02T11:37:55Z</time>
      </trkpt>
      <trkpt lat="46.24578" lon="6.0196">
        <ele>442.65</ele>
        <time>2014-11-02T11:37:57Z</time>
      </trkpt>
      <trkpt lat="46.24578" lon="6.01967">
        <ele>442.79</ele>
        <time>2014-11-02T11:37:58Z</time>
      </trkpt>
      <trkpt lat="46.24578" lon="6.01975">
        <ele>442.87</ele>
        <time>2014-11-02T11:37:59Z</time>
      </trkpt>
      <trkpt lat="46.24575" lon="6.01982">
        <ele>442.9</ele>
        <time>2014-11-02T11:38:00Z</time>
      </trkpt>
      <trkpt lat="46.24572" lon="6.01989">
        <ele>442.89</ele>
        <time>2014-11-02T11:38:01Z</time>
      </trkpt>
      <trkpt lat="46.24568" lon="6.01995">
        <ele>442.95</ele>
        <time>2014-11-02T11:38:02Z</time>
      </trkpt>
      <trkpt lat="46.24556" lon="6.02013">
        <ele>443.2</ele>
        <time>2014-11-02T11:38:05Z</time>
      </trkpt>
      <trkpt lat="46.24552" lon="6.02019">
        <ele>443.28</ele>
        <time>2014-11-02T11:38:06Z</time>
      </trkpt>
      <trkpt lat="46.24547" lon="6.02024">
        <ele>443.47</ele>
        <time>2014-11-02T11:38:07Z</time>
      </trkpt>
      <trkpt lat="46.24526" lon="6.02048">
        <ele>443.41</ele>
        <time>2014-11-02T11:38:12Z</time>
      </trkpt>
      <trkpt lat="46.24521" lon="6.02051">
        <ele>443.45</ele>
        <time>2014-11-02T11:38:13Z</time>
      </trkpt>
      <trkpt lat="46.24499" lon="6.0207">
        <ele>444.5</ele>
        <time>2014-11-02T11:38:18Z</time>
      </trkpt>
      <trkpt lat="46.24445" lon="6.02137">
        <ele>447.63</ele>
        <time>2014-11-02T11:38:33Z</time>
      </trkpt>
      <trkpt lat="46.24424" lon="6.0216">
        <ele>448.58</ele>
        <time>2014-11-02T11:38:40Z</time>
      </trkpt>
      <trkpt lat="46.24422" lon="6.02163">
        <ele>448.63</ele>
        <time>2014-11-02T11:38:41Z</time>
      </trkpt>
      <trkpt lat="46.24415" lon="6.02169">
        <ele>448.89</ele>
        <time>2014-11-02T11:38:43Z</time>
      </trkpt>
      <trkpt lat="46.24413" lon="6.02174">
        <ele>449.04</ele>
        <time>2014-11-02T11:38:44Z</time>
      </trkpt>
      <trkpt lat="46.24412" lon="6.02179">
        <ele>449.21</ele>
        <time>2014-11-02T11:38:45Z</time>
      </trkpt>
      <trkpt lat="46.24413" lon="6.02185">
        <ele>449.26</ele>
        <time>2014-11-02T11:38:46Z</time>
      </trkpt>
      <trkpt lat="46.2442" lon="6.02201">
        <ele>449.5</ele>
        <time>2014-11-02T11:38:49Z</time>
      </trkpt>
      <trkpt lat="46.24426" lon="6.0221">
        <ele>449.77</ele>
        <time>2014-11-02T11:38:51Z</time>
      </trkpt>
      <trkpt lat="46.24482" lon="6.023">
        <ele>450.21</ele>
        <time>2014-11-02T11:39:08Z</time>
      </trkpt>
      <trkpt lat="46.24521" lon="6.02344">
        <ele>450.42</ele>
        <time>2014-11-02T11:39:17Z</time>
      </trkpt>
      <trkpt lat="46.24526" lon="6.02348">
        <ele>450.42</ele>
        <time>2014-11-02T11:39:18Z</time>
      </trkpt>
      <trkpt lat="46.24536" lon="6.02354">
        <ele>450.42</ele>
        <time>2014-11-02T11:39:20Z</time>
      </trkpt>
      <trkpt lat="46.2454" lon="6.02359">
        <ele>450.48</ele>
        <time>2014-11-02T11:39:21Z</time>
      </trkpt>
      <trkpt lat="46.24544" lon="6.02364">
        <ele>450.62</ele>
        <time>2014-11-02T11:39:22Z</time>
      </trkpt>
      <trkpt lat="46.24547" lon="6.02371">
        <ele>450.78</ele>
        <time>2014-11-02T11:39:23Z</time>
      </trkpt>
      <trkpt lat="46.2455" lon="6.02378">
        <ele>450.9</ele>
        <time>2014-11-02T11:39:24Z</time>
      </trkpt>
      <trkpt lat="46.24552" lon="6.02385">
        <ele>450.93</ele>
        <time>2014-11-02T11:39:25Z</time>
      </trkpt>
      <trkpt lat="46.24555" lon="6.02392">
        <ele>450.94</ele>
        <time>2014-11-02T11:39:26Z</time>
      </trkpt>
      <trkpt lat="46.24558" lon="6.02398">
        <ele>450.87</ele>
        <time>2014-11-02T11:39:27Z</time>
      </trkpt>
      <trkpt lat="46.24562" lon="6.02404">
        <ele>450.82</ele>
        <time>2014-11-02T11:39:28Z</time>
      </trkpt>
      <trkpt lat="46.24577" lon="6.02426">
        <ele>450.81</ele>
        <time>2014-11-02T11:39:32Z</time>
      </trkpt>
      <trkpt lat="46.2461" lon="6.02478">
        <ele>453.17</ele>
        <time>2014-11-02T11:39:41Z</time>
      </trkpt>
      <trkpt lat="46.24613" lon="6.02484">
        <ele>453.19</ele>
        <time>2014-11-02T11:39:42Z</time>
      </trkpt>
      <trkpt lat="46.24697" lon="6.02617">
        <ele>453.81</ele>
        <time>2014-11-02T11:40:03Z</time>
      </trkpt>
      <trkpt lat="46.2477" lon="6.02718">
        <ele>452.6</ele>
        <time>2014-11-02T11:40:18Z</time>
      </trkpt>
      <trkpt lat="46.24847" lon="6.0283">
        <ele>451.34</ele>
        <time>2014-11-02T11:40:34Z</time>
      </trkpt>
      <trkpt lat="46.24928" lon="6.02935">
        <ele>451.9</ele>
        <time>2014-11-02T11:40:51Z</time>
      </trkpt>
      <trkpt lat="46.24994" lon="6.03012">
        <ele>454.33</ele>
        <time>2014-11-02T11:41:07Z</time>
      </trkpt>
      <trkpt lat="46.24998" lon="6.03015">
        <ele>454.3</ele>
        <time>2014-11-02T11:41:08Z</time>
      </trkpt>
      <trkpt lat="46.25003" lon="6.03018">
        <ele>454.28</ele>
        <time>2014-11-02T11:41:09Z</time>
      </trkpt>
      <trkpt lat="46.25046" lon="6.0305">
        <ele>453.88</ele>
        <time>2014-11-02T11:41:17Z</time>
      </trkpt>
      <trkpt lat="46.2507" lon="6.03079">
        <ele>453.36</ele>
        <time>2014-11-02T11:41:22Z</time>
      </trkpt>
      <trkpt lat="46.25138" lon="6.03178">
        <ele>450.3</ele>
        <time>2014-11-02T11:41:35Z</time>
      </trkpt>
      <trkpt lat="46.25161" lon="6.03221">
        <ele>448.92</ele>
        <time>2014-11-02T11:41:40Z</time>
      </trkpt>
      <trkpt lat="46.25191" lon="6.03324">
        <ele>448.37</ele>
        <time>2014-11-02T11:41:51Z</time>
      </trkpt>
      <trkpt lat="46.25201" lon="6.03346">
        <ele>448.96</ele>
        <time>2014-11-02T11:41:54Z</time>
      </trkpt>
      <trkpt lat="46.2521" lon="6.03357">
        <ele>449.24</ele>
        <time>2014-11-02T11:41:56Z</time>
      </trkpt>
      <trkpt lat="46.25236" lon="6.03388">
        <ele>450.24</ele>
        <time>2014-11-02T11:42:02Z</time>
      </trkpt>
      <trkpt lat="46.25274" lon="6.0344">
        <ele>450.52</ele>
        <time>2014-11-02T11:42:10Z</time>
      </trkpt>
      <trkpt lat="46.2528" lon="6.03445">
        <ele>450.38</ele>
        <time>2014-11-02T11:42:11Z</time>
      </trkpt>
      <trkpt lat="46.25371" lon="6.03516">
        <ele>449.05</ele>
        <time>2014-11-02T11:42:26Z</time>
      </trkpt>
      <trkpt lat="46.25465" lon="6.03542">
        <ele>448.38</ele>
        <time>2014-11-02T11:42:40Z</time>
      </trkpt>
      <trkpt lat="46.25472" lon="6.03546">
        <ele>448.34</ele>
        <time>2014-11-02T11:42:41Z</time>
      </trkpt>
      <trkpt lat="46.25477" lon="6.0355">
        <ele>448.33</ele>
        <time>2014-11-02T11:42:42Z</time>
      </trkpt>
      <trkpt lat="46.25526" lon="6.03602">
        <ele>448.66</ele>
        <time>2014-11-02T11:42:51Z</time>
      </trkpt>
      <trkpt lat="46.2553" lon="6.03609">
        <ele>448.66</ele>
        <time>2014-11-02T11:42:52Z</time>
      </trkpt>
      <trkpt lat="46.25533" lon="6.03617">
        <ele>448.72</ele>
        <time>2014-11-02T11:42:53Z</time>
      </trkpt>
      <trkpt lat="46.25535" lon="6.03625">
        <ele>448.75</ele>
        <time>2014-11-02T11:42:54Z</time>
      </trkpt>
      <trkpt lat="46.25539" lon="6.03633">
        <ele>448.78</ele>
        <time>2014-11-02T11:42:55Z</time>
      </trkpt>
      <trkpt lat="46.25542" lon="6.03641">
        <ele>448.78</ele>
        <time>2014-11-02T11:42:56Z</time>
      </trkpt>
      <trkpt lat="46.25547" lon="6.03659">
        <ele>448.9</ele>
        <time>2014-11-02T11:42:58Z</time>
      </trkpt>
      <trkpt lat="46.25557" lon="6.03692">
        <ele>449.49</ele>
        <time>2014-11-02T11:43:02Z</time>
      </trkpt>
      <trkpt lat="46.25561" lon="6.037">
        <ele>449.66</ele>
        <time>2014-11-02T11:43:03Z</time>
      </trkpt>
      <trkpt lat="46.25621" lon="6.03785">
        <ele>450.23</ele>
        <time>2014-11-02T11:43:17Z</time>
      </trkpt>
      <trkpt lat="46.25698" lon="6.03876">
        <ele>450.8</ele>
        <time>2014-11-02T11:43:33Z</time>
      </trkpt>
      <trkpt lat="46.25702" lon="6.03882">
        <ele>450.72</ele>
        <time>2014-11-02T11:43:34Z</time>
      </trkpt>
      <trkpt lat="46.25706" lon="6.03888">
        <ele>450.69</ele>
        <time>2014-11-02T11:43:35Z</time>
      </trkpt>
      <trkpt lat="46.25714" lon="6.039">
        <ele>450.77</ele>
        <time>2014-11-02T11:43:37Z</time>
      </trkpt>
      <trkpt lat="46.2572" lon="6.03904">
        <ele>450.75</ele>
        <time>2014-11-02T11:43:38Z</time>
      </trkpt>
      <trkpt lat="46.25725" lon="6.03907">
        <ele>450.82</ele>
        <time>2014-11-02T11:43:39Z</time>
      </trkpt>
      <trkpt lat="46.25736" lon="6.03912">
        <ele>451.04</ele>
        <time>2014-11-02T11:43:41Z</time>
      </trkpt>
      <trkpt lat="46.25802" lon="6.03951">
        <ele>454.07</ele>
        <time>2014-11-02T11:43:56Z</time>
      </trkpt>
      <trkpt lat="46.25804" lon="6.03953">
        <ele>454.2</ele>
        <time>2014-11-02T11:44:06Z</time>
      </trkpt>
      <trkpt lat="46.25805" lon="6.03952">
        <ele>454.47</ele>
        <time>2014-11-02T11:44:50Z</time>
      </trkpt>
      <trkpt lat="46.25806" lon="6.03953">
        <ele>454.47</ele>
        <time>2014-11-02T11:44:51Z</time>
      </trkpt>
      <trkpt lat="46.25821" lon="6.03962">
        <ele>454.64</ele>
        <time>2014-11-02T11:44:56Z</time>
      </trkpt>
      <trkpt lat="46.25826" lon="6.03965">
        <ele>454.74</ele>
        <time>2014-11-02T11:44:57Z</time>
      </trkpt>
      <trkpt lat="46.2583" lon="6.03969">
        <ele>454.59</ele>
        <time>2014-11-02T11:44:58Z</time>
      </trkpt>
      <trkpt lat="46.25899" lon="6.04036">
        <ele>455.57</ele>
        <time>2014-11-02T11:45:11Z</time>
      </trkpt>
      <trkpt lat="46.25995" lon="6.04127">
        <ele>454.19</ele>
        <time>2014-11-02T11:45:28Z</time>
      </trkpt>
      <trkpt lat="46.26085" lon="6.04153">
        <ele>454.76</ele>
        <time>2014-11-02T11:45:42Z</time>
      </trkpt>
      <trkpt lat="46.26102" lon="6.04162">
        <ele>454.47</ele>
        <time>2014-11-02T11:45:45Z</time>
      </trkpt>
      <trkpt lat="46.26107" lon="6.04169">
        <ele>454.29</ele>
        <time>2014-11-02T11:45:46Z</time>
      </trkpt>
      <trkpt lat="46.26111" lon="6.04176">
        <ele>454.16</ele>
        <time>2014-11-02T11:45:47Z</time>
      </trkpt>
      <trkpt lat="46.26115" lon="6.04182">
        <ele>454.09</ele>
        <time>2014-11-02T11:45:48Z</time>
      </trkpt>
      <trkpt lat="46.26137" lon="6.04206">
        <ele>453.94</ele>
        <time>2014-11-02T11:45:52Z</time>
      </trkpt>
      <trkpt lat="46.26148" lon="6.04219">
        <ele>453.83</ele>
        <time>2014-11-02T11:45:54Z</time>
      </trkpt>
      <trkpt lat="46.26261" lon="6.04326">
        <ele>453.83</ele>
        <time>2014-11-02T11:46:14Z</time>
      </trkpt>
      <trkpt lat="46.2633" lon="6.04355">
        <ele>454.61</ele>
        <time>2014-11-02T11:46:25Z</time>
      </trkpt>
      <trkpt lat="46.26336" lon="6.04357">
        <ele>454.67</ele>
        <time>2014-11-02T11:46:26Z</time>
      </trkpt>
      <trkpt lat="46.26445" lon="6.04376">
        <ele>454.68</ele>
        <time>2014-11-02T11:46:43Z</time>
      </trkpt>
      <trkpt lat="46.26451" lon="6.04377">
        <ele>454.71</ele>
        <time>2014-11-02T11:46:44Z</time>
      </trkpt>
      <trkpt lat="46.26458" lon="6.0438">
        <ele>454.71</ele>
        <time>2014-11-02T11:46:45Z</time>
      </trkpt>
      <trkpt lat="46.26464" lon="6.04383">
        <ele>454.74</ele>
        <time>2014-11-02T11:46:46Z</time>
      </trkpt>
      <trkpt lat="46.2647" lon="6.04384">
        <ele>454.73</ele>
        <time>2014-11-02T11:46:47Z</time>
      </trkpt>
      <trkpt lat="46.26476" lon="6.04386">
        <ele>454.76</ele>
        <time>2014-11-02T11:46:48Z</time>
      </trkpt>
      <trkpt lat="46.26482" lon="6.0439">
        <ele>454.79</ele>
        <time>2014-11-02T11:46:49Z</time>
      </trkpt>
      <trkpt lat="46.26487" lon="6.04394">
        <ele>454.88</ele>
        <time>2014-11-02T11:46:50Z</time>
      </trkpt>
      <trkpt lat="46.26577" lon="6.04496">
        <ele>454.61</ele>
        <time>2014-11-02T11:47:07Z</time>
      </trkpt>
      <trkpt lat="46.26683" lon="6.04583">
        <ele>454.82</ele>
        <time>2014-11-02T11:47:25Z</time>
      </trkpt>
      <trkpt lat="46.26766" lon="6.04603">
        <ele>454.78</ele>
        <time>2014-11-02T11:47:37Z</time>
      </trkpt>
      <trkpt lat="46.26773" lon="6.04607">
        <ele>454.76</ele>
        <time>2014-11-02T11:47:38Z</time>
      </trkpt>
      <trkpt lat="46.26779" lon="6.0461">
        <ele>454.76</ele>
        <time>2014-11-02T11:47:39Z</time>
      </trkpt>
      <trkpt lat="46.26785" lon="6.04615">
        <ele>454.74</ele>
        <time>2014-11-02T11:47:40Z</time>
      </trkpt>
      <trkpt lat="46.26791" lon="6.0462">
        <ele>454.81</ele>
        <time>2014-11-02T11:47:41Z</time>
      </trkpt>
      <trkpt lat="46.26797" lon="6.04626">
        <ele>454.66</ele>
        <time>2014-11-02T11:47:42Z</time>
      </trkpt>
      <trkpt lat="46.26802" lon="6.04632">
        <ele>454.42</ele>
        <time>2014-11-02T11:47:43Z</time>
      </trkpt>
      <trkpt lat="46.26833" lon="6.04672">
        <ele>454.24</ele>
        <time>2014-11-02T11:47:49Z</time>
      </trkpt>
      <trkpt lat="46.26838" lon="6.04678">
        <ele>454.21</ele>
        <time>2014-11-02T11:47:50Z</time>
      </trkpt>
      <trkpt lat="46.26947" lon="6.04758">
        <ele>455.04</ele>
        <time>2014-11-02T11:48:08Z</time>
      </trkpt>
      <trkpt lat="46.27047" lon="6.04834">
        <ele>458.19</ele>
        <time>2014-11-02T11:48:27Z</time>
      </trkpt>
      <trkpt lat="46.27161" lon="6.0493">
        <ele>459.02</ele>
        <time>2014-11-02T11:48:49Z</time>
      </trkpt>
      <trkpt lat="46.27252" lon="6.05021">
        <ele>458.31</ele>
        <time>2014-11-02T11:49:05Z</time>
      </trkpt>
      <trkpt lat="46.27353" lon="6.05071">
        <ele>457.88</ele>
        <time>2014-11-02T11:49:20Z</time>
      </trkpt>
      <trkpt lat="46.27462" lon="6.05158">
        <ele>458.16</ele>
        <time>2014-11-02T11:49:38Z</time>
      </trkpt>
      <trkpt lat="46.27498" lon="6.05187">
        <ele>458.58</ele>
        <time>2014-11-02T11:49:44Z</time>
      </trkpt>
      <trkpt lat="46.2761" lon="6.05228">
        <ele>459.47</ele>
        <time>2014-11-02T11:50:01Z</time>
      </trkpt>
      <trkpt lat="46.27727" lon="6.05262">
        <ele>462.07</ele>
        <time>2014-11-02T11:50:21Z</time>
      </trkpt>
      <trkpt lat="46.27816" lon="6.05276">
        <ele>464.21</ele>
        <time>2014-11-02T11:50:37Z</time>
      </trkpt>
      <trkpt lat="46.27865" lon="6.05276">
        <ele>465.41</ele>
        <time>2014-11-02T11:50:46Z</time>
      </trkpt>
      <trkpt lat="46.27915" lon="6.05275">
        <ele>466.08</ele>
        <time>2014-11-02T11:50:55Z</time>
      </trkpt>
      <trkpt lat="46.27999" lon="6.05287">
        <ele>468.43</ele>
        <time>2014-11-02T11:51:12Z</time>
      </trkpt>
      <trkpt lat="46.28039" lon="6.05297">
        <ele>471.56</ele>
        <time>2014-11-02T11:51:22Z</time>
      </trkpt>
      <trkpt lat="46.28046" lon="6.05299">
        <ele>471.98</ele>
        <time>2014-11-02T11:51:24Z</time>
      </trkpt>
      <trkpt lat="46.28049" lon="6.05301">
        <ele>472.11</ele>
        <time>2014-11-02T11:51:25Z</time>
      </trkpt>
      <trkpt lat="46.2807" lon="6.05327">
        <ele>472.63</ele>
        <time>2014-11-02T11:51:33Z</time>
      </trkpt>
      <trkpt lat="46.28073" lon="6.05332">
        <ele>472.4</ele>
        <time>2014-11-02T11:51:34Z</time>
      </trkpt>
      <trkpt lat="46.28079" lon="6.05344">
        <ele>472.15</ele>
        <time>2014-11-02T11:51:36Z</time>
      </trkpt>
      <trkpt lat="46.28084" lon="6.0536">
        <ele>471.71</ele>
        <time>2014-11-02T11:51:38Z</time>
      </trkpt>
      <trkpt lat="46.28086" lon="6.0537">
        <ele>471.29</ele>
        <time>2014-11-02T11:51:39Z</time>
      </trkpt>
      <trkpt lat="46.28087" lon="6.05381">
        <ele>471.29</ele>
        <time>2014-11-02T11:51:40Z</time>
      </trkpt>
      <trkpt lat="46.28086" lon="6.05392">
        <ele>470.92</ele>
        <time>2014-11-02T11:51:41Z</time>
      </trkpt>
      <trkpt lat="46.28085" lon="6.05403">
        <ele>470.63</ele>
        <time>2014-11-02T11:51:42Z</time>
      </trkpt>
      <trkpt lat="46.28084" lon="6.05415">
        <ele>470.14</ele>
        <time>2014-11-02T11:51:43Z</time>
      </trkpt>
      <trkpt lat="46.2808" lon="6.05438">
        <ele>468.73</ele>
        <time>2014-11-02T11:51:45Z</time>
      </trkpt>
      <trkpt lat="46.28079" lon="6.05451">
        <ele>468.21</ele>
        <time>2014-11-02T11:51:46Z</time>
      </trkpt>
      <trkpt lat="46.28078" lon="6.05463">
        <ele>467.92</ele>
        <time>2014-11-02T11:51:47Z</time>
      </trkpt>
      <trkpt lat="46.2808" lon="6.05536">
        <ele>466.28</ele>
        <time>2014-11-02T11:51:53Z</time>
      </trkpt>
      <trkpt lat="46.2808" lon="6.05548">
        <ele>466.11</ele>
        <time>2014-11-02T11:51:54Z</time>
      </trkpt>
      <trkpt lat="46.28078" lon="6.05559">
        <ele>466.03</ele>
        <time>2014-11-02T11:51:55Z</time>
      </trkpt>
      <trkpt lat="46.28054" lon="6.05677">
        <ele>466.18</ele>
        <time>2014-11-02T11:52:08Z</time>
      </trkpt>
      <trkpt lat="46.28008" lon="6.05808">
        <ele>467.55</ele>
        <time>2014-11-02T11:52:25Z</time>
      </trkpt>
      <trkpt lat="46.2797" lon="6.05934">
        <ele>465.95</ele>
        <time>2014-11-02T11:52:39Z</time>
      </trkpt>
      <trkpt lat="46.27932" lon="6.06074">
        <ele>465.53</ele>
        <time>2014-11-02T11:52:54Z</time>
      </trkpt>
      <trkpt lat="46.27899" lon="6.0621">
        <ele>466.55</ele>
        <time>2014-11-02T11:53:09Z</time>
      </trkpt>
      <trkpt lat="46.27898" lon="6.0622">
        <ele>466.62</ele>
        <time>2014-11-02T11:53:10Z</time>
      </trkpt>
      <trkpt lat="46.27898" lon="6.0623">
        <ele>466.66</ele>
        <time>2014-11-02T11:53:11Z</time>
      </trkpt>
      <trkpt lat="46.27919" lon="6.06448">
        <ele>464.61</ele>
        <time>2014-11-02T11:53:33Z</time>
      </trkpt>
      <trkpt lat="46.27935" lon="6.06587">
        <ele>463.91</ele>
        <time>2014-11-02T11:53:49Z</time>
      </trkpt>
      <trkpt lat="46.27954" lon="6.06638">
        <ele>464.1</ele>
        <time>2014-11-02T11:53:56Z</time>
      </trkpt>
      <trkpt lat="46.27956" lon="6.06645">
        <ele>464.14</ele>
        <time>2014-11-02T11:53:57Z</time>
      </trkpt>
      <trkpt lat="46.27958" lon="6.06653">
        <ele>464.16</ele>
        <time>2014-11-02T11:53:58Z</time>
      </trkpt>
      <trkpt lat="46.2796" lon="6.06669">
        <ele>464.21</ele>
        <time>2014-11-02T11:54:00Z</time>
      </trkpt>
      <trkpt lat="46.27959" lon="6.06696">
        <ele>465.56</ele>
        <time>2014-11-02T11:54:04Z</time>
      </trkpt>
      <trkpt lat="46.27959" lon="6.06702">
        <ele>466.08</ele>
        <time>2014-11-02T11:54:05Z</time>
      </trkpt>
      <trkpt lat="46.2796" lon="6.06715">
        <ele>466.17</ele>
        <time>2014-11-02T11:54:07Z</time>
      </trkpt>
      <trkpt lat="46.27961" lon="6.06729">
        <ele>466.37</ele>
        <time>2014-11-02T11:54:09Z</time>
      </trkpt>
      <trkpt lat="46.27963" lon="6.06735">
        <ele>466.45</ele>
        <time>2014-11-02T11:54:10Z</time>
      </trkpt>
      <trkpt lat="46.27968" lon="6.06748">
        <ele>466.55</ele>
        <time>2014-11-02T11:54:12Z</time>
      </trkpt>
      <trkpt lat="46.2797" lon="6.06755">
        <ele>466.55</ele>
        <time>2014-11-02T11:54:13Z</time>
      </trkpt>
      <trkpt lat="46.28003" lon="6.0683">
        <ele>466.03</ele>
        <time>2014-11-02T11:54:23Z</time>
      </trkpt>
      <trkpt lat="46.28007" lon="6.06838">
        <ele>466</ele>
        <time>2014-11-02T11:54:24Z</time>
      </trkpt>
      <trkpt lat="46.2803" lon="6.06903">
        <ele>464.95</ele>
        <time>2014-11-02T11:54:31Z</time>
      </trkpt>
      <trkpt lat="46.28086" lon="6.07065">
        <ele>462.13</ele>
        <time>2014-11-02T11:54:47Z</time>
      </trkpt>
      <trkpt lat="46.2811" lon="6.07189">
        <ele>462.35</ele>
        <time>2014-11-02T11:54:59Z</time>
      </trkpt>
      <trkpt lat="46.28129" lon="6.07428">
        <ele>462.85</ele>
        <time>2014-11-02T11:55:22Z</time>
      </trkpt>
      <trkpt lat="46.28145" lon="6.07642">
        <ele>463.43</ele>
        <time>2014-11-02T11:55:43Z</time>
      </trkpt>
      <trkpt lat="46.2816" lon="6.07832">
        <ele>463.32</ele>
        <time>2014-11-02T11:56:02Z</time>
      </trkpt>
      <trkpt lat="46.28168" lon="6.0798">
        <ele>463.8</ele>
        <time>2014-11-02T11:56:17Z</time>
      </trkpt>
      <trkpt lat="46.28193" lon="6.08149">
        <ele>464.69</ele>
        <time>2014-11-02T11:56:36Z</time>
      </trkpt>
      <trkpt lat="46.28203" lon="6.08182">
        <ele>464.75</ele>
        <time>2014-11-02T11:56:40Z</time>
      </trkpt>
      <trkpt lat="46.28254" lon="6.08315">
        <ele>466.46</ele>
        <time>2014-11-02T11:56:58Z</time>
      </trkpt>
      <trkpt lat="46.28267" lon="6.08355">
        <ele>467.3</ele>
        <time>2014-11-02T11:57:05Z</time>
      </trkpt>
      <trkpt lat="46.28265" lon="6.08359">
        <ele>467.35</ele>
        <time>2014-11-02T11:57:06Z</time>
      </trkpt>
      <trkpt lat="46.28257" lon="6.08359">
        <ele>467.36</ele>
        <time>2014-11-02T11:57:08Z</time>
      </trkpt>
      <trkpt lat="46.28253" lon="6.08357">
        <ele>467.36</ele>
        <time>2014-11-02T11:57:09Z</time>
      </trkpt>
      <trkpt lat="46.28197" lon="6.08329">
        <ele>465.83</ele>
        <time>2014-11-02T11:57:20Z</time>
      </trkpt>
      <trkpt lat="46.28187" lon="6.08325">
        <ele>465.85</ele>
        <time>2014-11-02T11:57:22Z</time>
      </trkpt>
      <trkpt lat="46.28164" lon="6.08313">
        <ele>465.58</ele>
        <time>2014-11-02T11:57:27Z</time>
      </trkpt>
      <trkpt lat="46.281" lon="6.08274">
        <ele>466.85</ele>
        <time>2014-11-02T11:57:42Z</time>
      </trkpt>
      <trkpt lat="46.28096" lon="6.08274">
        <ele>466.9</ele>
        <time>2014-11-02T11:57:43Z</time>
      </trkpt>
      <trkpt lat="46.28089" lon="6.0828">
        <ele>467.02</ele>
        <time>2014-11-02T11:57:45Z</time>
      </trkpt>
      <trkpt lat="46.28056" lon="6.08325">
        <ele>468.9</ele>
        <time>2014-11-02T11:57:56Z</time>
      </trkpt>
      <trkpt lat="46.28053" lon="6.08327">
        <ele>469.13</ele>
        <time>2014-11-02T11:57:57Z</time>
      </trkpt>
      <trkpt lat="46.28049" lon="6.08327">
        <ele>469.34</ele>
        <time>2014-11-02T11:57:58Z</time>
      </trkpt>
      <trkpt lat="46.28046" lon="6.08326">
        <ele>469.54</ele>
        <time>2014-11-02T11:57:59Z</time>
      </trkpt>
      <trkpt lat="46.28042" lon="6.08323">
        <ele>469.69</ele>
        <time>2014-11-02T11:58:00Z</time>
      </trkpt>
      <trkpt lat="46.2804" lon="6.08319">
        <ele>469.77</ele>
        <time>2014-11-02T11:58:01Z</time>
      </trkpt>
      <trkpt lat="46.28037" lon="6.08314">
        <ele>469.8</ele>
        <time>2014-11-02T11:58:02Z</time>
      </trkpt>
      <trkpt lat="46.28034" lon="6.0831">
        <ele>469.82</ele>
        <time>2014-11-02T11:58:03Z</time>
      </trkpt>
      <trkpt lat="46.2803" lon="6.08305">
        <ele>469.83</ele>
        <time>2014-11-02T11:58:04Z</time>
      </trkpt>
      <trkpt lat="46.2802" lon="6.08292">
        <ele>469.88</ele>
        <time>2014-11-02T11:58:07Z</time>
      </trkpt>
      <trkpt lat="46.28016" lon="6.08291">
        <ele>470.02</ele>
        <time>2014-11-02T11:58:08Z</time>
      </trkpt>
      <trkpt lat="46.28011" lon="6.08292">
        <ele>470.08</ele>
        <time>2014-11-02T11:58:09Z</time>
      </trkpt>
      <trkpt lat="46.28007" lon="6.08295">
        <ele>470.28</ele>
        <time>2014-11-02T11:58:10Z</time>
      </trkpt>
      <trkpt lat="46.28004" lon="6.083">
        <ele>470.24</ele>
        <time>2014-11-02T11:58:11Z</time>
      </trkpt>
      <trkpt lat="46.28002" lon="6.08305">
        <ele>470.36</ele>
        <time>2014-11-02T11:58:12Z</time>
      </trkpt>
      <trkpt lat="46.27998" lon="6.0831">
        <ele>470.45</ele>
        <time>2014-11-02T11:58:13Z</time>
      </trkpt>
      <trkpt lat="46.27995" lon="6.08315">
        <ele>470.71</ele>
        <time>2014-11-02T11:58:14Z</time>
      </trkpt>
      <trkpt lat="46.27983" lon="6.08335">
        <ele>471.38</ele>
        <time>2014-11-02T11:58:18Z</time>
      </trkpt>
      <trkpt lat="46.27979" lon="6.0834">
        <ele>471.47</ele>
        <time>2014-11-02T11:58:19Z</time>
      </trkpt>
      <trkpt lat="46.27976" lon="6.08346">
        <ele>471.53</ele>
        <time>2014-11-02T11:58:20Z</time>
      </trkpt>
      <trkpt lat="46.27954" lon="6.0838">
        <ele>472.76</ele>
        <time>2014-11-02T11:58:29Z</time>
      </trkpt>
      <trkpt lat="46.27953" lon="6.08384">
        <ele>472.88</ele>
        <time>2014-11-02T11:58:30Z</time>
      </trkpt>
      <trkpt lat="46.27951" lon="6.08387">
        <ele>472.98</ele>
        <time>2014-11-02T11:58:31Z</time>
      </trkpt>
      <trkpt lat="46.27948" lon="6.08391">
        <ele>473</ele>
        <time>2014-11-02T11:58:32Z</time>
      </trkpt>
      <trkpt lat="46.27946" lon="6.08394">
        <ele>473.01</ele>
        <time>2014-11-02T11:58:33Z</time>
      </trkpt>
      <trkpt lat="46.27941" lon="6.08402">
        <ele>473.04</ele>
        <time>2014-11-02T11:58:35Z</time>
      </trkpt>
      <trkpt lat="46.27939" lon="6.08405">
        <ele>473.06</ele>
        <time>2014-11-02T11:58:36Z</time>
      </trkpt>
      <trkpt lat="46.27935" lon="6.08412">
        <ele>472.78</ele>
        <time>2014-11-02T11:58:38Z</time>
      </trkpt>
      <trkpt lat="46.27931" lon="6.08416">
        <ele>472.83</ele>
        <time>2014-11-02T11:58:40Z</time>
      </trkpt>
      <trkpt lat="46.27929" lon="6.08417">
        <ele>473.09</ele>
        <time>2014-11-02T11:58:41Z</time>
      </trkpt>
      <trkpt lat="46.27927" lon="6.08417">
        <ele>473.07</ele>
        <time>2014-11-02T11:58:42Z</time>
      </trkpt>
      <trkpt lat="46.27925" lon="6.08417">
        <ele>473.06</ele>
        <time>2014-11-02T11:58:43Z</time>
      </trkpt>
      <trkpt lat="46.27922" lon="6.08415">
        <ele>473.06</ele>
        <time>2014-11-02T11:58:44Z</time>
      </trkpt>
      <trkpt lat="46.2792" lon="6.08413">
        <ele>473.09</ele>
        <time>2014-11-02T11:58:45Z</time>
      </trkpt>
      <trkpt lat="46.27914" lon="6.08407">
        <ele>473.3</ele>
        <time>2014-11-02T11:58:47Z</time>
      </trkpt>
      <trkpt lat="46.27911" lon="6.08404">
        <ele>473.47</ele>
        <time>2014-11-02T11:58:48Z</time>
      </trkpt>
      <trkpt lat="46.27908" lon="6.08401">
        <ele>473.58</ele>
        <time>2014-11-02T11:58:49Z</time>
      </trkpt>
      <trkpt lat="46.27905" lon="6.08398">
        <ele>473.77</ele>
        <time>2014-11-02T11:58:50Z</time>
      </trkpt>
      <trkpt lat="46.27902" lon="6.08395">
        <ele>473.72</ele>
        <time>2014-11-02T11:58:51Z</time>
      </trkpt>
      <trkpt lat="46.27899" lon="6.08393">
        <ele>473.7</ele>
        <time>2014-11-02T11:58:52Z</time>
      </trkpt>
      <trkpt lat="46.27897" lon="6.08392">
        <ele>473.36</ele>
        <time>2014-11-02T11:58:53Z</time>
      </trkpt>
      <trkpt lat="46.27891" lon="6.08394">
        <ele>472.56</ele>
        <time>2014-11-02T11:58:55Z</time>
      </trkpt>
      <trkpt lat="46.27888" lon="6.08396">
        <ele>472.36</ele>
        <time>2014-11-02T11:58:56Z</time>
      </trkpt>
      <trkpt lat="46.27886" lon="6.084">
        <ele>472.24</ele>
        <time>2014-11-02T11:58:57Z</time>
      </trkpt>
      <trkpt lat="46.27884" lon="6.08404">
        <ele>472.22</ele>
        <time>2014-11-02T11:58:58Z</time>
      </trkpt>
      <trkpt lat="46.27882" lon="6.08408">
        <ele>472.73</ele>
        <time>2014-11-02T11:58:59Z</time>
      </trkpt>
      <trkpt lat="46.27879" lon="6.08412">
        <ele>473.11</ele>
        <time>2014-11-02T11:59:00Z</time>
      </trkpt>
      <trkpt lat="46.27875" lon="6.08421">
        <ele>473.32</ele>
        <time>2014-11-02T11:59:02Z</time>
      </trkpt>
      <trkpt lat="46.27872" lon="6.08425">
        <ele>473.49</ele>
        <time>2014-11-02T11:59:03Z</time>
      </trkpt>
      <trkpt lat="46.2787" lon="6.0843">
        <ele>473.74</ele>
        <time>2014-11-02T11:59:04Z</time>
      </trkpt>
      <trkpt lat="46.27867" lon="6.08435">
        <ele>473.96</ele>
        <time>2014-11-02T11:59:05Z</time>
      </trkpt>
      <trkpt lat="46.27864" lon="6.08439">
        <ele>474.16</ele>
        <time>2014-11-02T11:59:06Z</time>
      </trkpt>
      <trkpt lat="46.27861" lon="6.08444">
        <ele>474.36</ele>
        <time>2014-11-02T11:59:07Z</time>
      </trkpt>
      <trkpt lat="46.27858" lon="6.08448">
        <ele>474.46</ele>
        <time>2014-11-02T11:59:08Z</time>
      </trkpt>
      <trkpt lat="46.27853" lon="6.08458">
        <ele>474.65</ele>
        <time>2014-11-02T11:59:10Z</time>
      </trkpt>
      <trkpt lat="46.2785" lon="6.08463">
        <ele>474.69</ele>
        <time>2014-11-02T11:59:11Z</time>
      </trkpt>
      <trkpt lat="46.27848" lon="6.08468">
        <ele>474.95</ele>
        <time>2014-11-02T11:59:12Z</time>
      </trkpt>
      <trkpt lat="46.27835" lon="6.08492">
        <ele>476.07</ele>
        <time>2014-11-02T11:59:17Z</time>
      </trkpt>
      <trkpt lat="46.27826" lon="6.08511">
        <ele>475.87</ele>
        <time>2014-11-02T11:59:21Z</time>
      </trkpt>
      <trkpt lat="46.27823" lon="6.08516">
        <ele>476.02</ele>
        <time>2014-11-02T11:59:22Z</time>
      </trkpt>
      <trkpt lat="46.27778" lon="6.08605">
        <ele>475.19</ele>
        <time>2014-11-02T11:59:37Z</time>
      </trkpt>
      <trkpt lat="46.277" lon="6.08735">
        <ele>474.57</ele>
        <time>2014-11-02T11:59:57Z</time>
      </trkpt>
      <trkpt lat="46.27627" lon="6.08845">
        <ele>473.42</ele>
        <time>2014-11-02T12:00:14Z</time>
      </trkpt>
      <trkpt lat="46.27623" lon="6.0885">
        <ele>473.57</ele>
        <time>2014-11-02T12:00:15Z</time>
      </trkpt>
      <trkpt lat="46.27618" lon="6.08853">
        <ele>473.69</ele>
        <time>2014-11-02T12:00:16Z</time>
      </trkpt>
      <trkpt lat="46.27613" lon="6.08856">
        <ele>473.78</ele>
        <time>2014-11-02T12:00:17Z</time>
      </trkpt>
      <trkpt lat="46.27608" lon="6.08857">
        <ele>473.83</ele>
        <time>2014-11-02T12:00:18Z</time>
      </trkpt>
      <trkpt lat="46.27603" lon="6.08856">
        <ele>473.91</ele>
        <time>2014-11-02T12:00:19Z</time>
      </trkpt>
      <trkpt lat="46.27598" lon="6.08853">
        <ele>473.96</ele>
        <time>2014-11-02T12:00:20Z</time>
      </trkpt>
      <trkpt lat="46.27593" lon="6.0885">
        <ele>474.01</ele>
        <time>2014-11-02T12:00:21Z</time>
      </trkpt>
      <trkpt lat="46.27589" lon="6.08845">
        <ele>473.97</ele>
        <time>2014-11-02T12:00:22Z</time>
      </trkpt>
      <trkpt lat="46.27584" lon="6.0884">
        <ele>473.95</ele>
        <time>2014-11-02T12:00:23Z</time>
      </trkpt>
      <trkpt lat="46.2757" lon="6.08827">
        <ele>473.82</ele>
        <time>2014-11-02T12:00:26Z</time>
      </trkpt>
      <trkpt lat="46.27565" lon="6.08824">
        <ele>473.88</ele>
        <time>2014-11-02T12:00:27Z</time>
      </trkpt>
      <trkpt lat="46.2756" lon="6.08824">
        <ele>473.88</ele>
        <time>2014-11-02T12:00:28Z</time>
      </trkpt>
      <trkpt lat="46.27555" lon="6.08825">
        <ele>473.84</ele>
        <time>2014-11-02T12:00:29Z</time>
      </trkpt>
      <trkpt lat="46.2755" lon="6.08827">
        <ele>473.93</ele>
        <time>2014-11-02T12:00:30Z</time>
      </trkpt>
      <trkpt lat="46.27546" lon="6.08831">
        <ele>473.98</ele>
        <time>2014-11-02T12:00:31Z</time>
      </trkpt>
      <trkpt lat="46.27542" lon="6.08836">
        <ele>474.19</ele>
        <time>2014-11-02T12:00:32Z</time>
      </trkpt>
      <trkpt lat="46.27537" lon="6.08841">
        <ele>474.4</ele>
        <time>2014-11-02T12:00:33Z</time>
      </trkpt>
      <trkpt lat="46.27485" lon="6.08905">
        <ele>475.33</ele>
        <time>2014-11-02T12:00:46Z</time>
      </trkpt>
      <trkpt lat="46.2747" lon="6.08925">
        <ele>475.55</ele>
        <time>2014-11-02T12:00:50Z</time>
      </trkpt>
      <trkpt lat="46.27468" lon="6.08932">
        <ele>475.5</ele>
        <time>2014-11-02T12:00:51Z</time>
      </trkpt>
      <trkpt lat="46.27467" lon="6.08939">
        <ele>475.47</ele>
        <time>2014-11-02T12:00:52Z</time>
      </trkpt>
      <trkpt lat="46.27468" lon="6.08946">
        <ele>475.22</ele>
        <time>2014-11-02T12:00:53Z</time>
      </trkpt>
      <trkpt lat="46.27471" lon="6.08953">
        <ele>475.1</ele>
        <time>2014-11-02T12:00:54Z</time>
      </trkpt>
      <trkpt lat="46.27474" lon="6.08959">
        <ele>474.94</ele>
        <time>2014-11-02T12:00:55Z</time>
      </trkpt>
      <trkpt lat="46.27478" lon="6.08965">
        <ele>474.89</ele>
        <time>2014-11-02T12:00:56Z</time>
      </trkpt>
      <trkpt lat="46.27481" lon="6.08971">
        <ele>474.86</ele>
        <time>2014-11-02T12:00:57Z</time>
      </trkpt>
      <trkpt lat="46.27483" lon="6.08978">
        <ele>474.84</ele>
        <time>2014-11-02T12:00:58Z</time>
      </trkpt>
      <trkpt lat="46.27483" lon="6.08993">
        <ele>474.75</ele>
        <time>2014-11-02T12:01:00Z</time>
      </trkpt>
      <trkpt lat="46.27479" lon="6.09008">
        <ele>474.72</ele>
        <time>2014-11-02T12:01:02Z</time>
      </trkpt>
      <trkpt lat="46.27447" lon="6.0912">
        <ele>475.23</ele>
        <time>2014-11-02T12:01:16Z</time>
      </trkpt>
      <trkpt lat="46.27393" lon="6.09218">
        <ele>477.31</ele>
        <time>2014-11-02T12:01:32Z</time>
      </trkpt>
      <trkpt lat="46.27373" lon="6.09251">
        <ele>478.23</ele>
        <time>2014-11-02T12:01:38Z</time>
      </trkpt>
      <trkpt lat="46.2737" lon="6.09258">
        <ele>478.45</ele>
        <time>2014-11-02T12:01:39Z</time>
      </trkpt>
      <trkpt lat="46.27368" lon="6.09264">
        <ele>478.76</ele>
        <time>2014-11-02T12:01:40Z</time>
      </trkpt>
      <trkpt lat="46.27361" lon="6.09284">
        <ele>479.05</ele>
        <time>2014-11-02T12:01:43Z</time>
      </trkpt>
      <trkpt lat="46.2735" lon="6.0932">
        <ele>479.27</ele>
        <time>2014-11-02T12:01:48Z</time>
      </trkpt>
      <trkpt lat="46.27322" lon="6.09393">
        <ele>478.35</ele>
        <time>2014-11-02T12:01:57Z</time>
      </trkpt>
      <trkpt lat="46.27307" lon="6.09469">
        <ele>477.1</ele>
        <time>2014-11-02T12:02:06Z</time>
      </trkpt>
      <trkpt lat="46.27307" lon="6.09476">
        <ele>476.87</ele>
        <time>2014-11-02T12:02:07Z</time>
      </trkpt>
      <trkpt lat="46.27308" lon="6.09483">
        <ele>476.82</ele>
        <time>2014-11-02T12:02:08Z</time>
      </trkpt>
      <trkpt lat="46.2731" lon="6.09488">
        <ele>476.66</ele>
        <time>2014-11-02T12:02:09Z</time>
      </trkpt>
      <trkpt lat="46.27313" lon="6.09493">
        <ele>476.59</ele>
        <time>2014-11-02T12:02:10Z</time>
      </trkpt>
      <trkpt lat="46.27316" lon="6.09496">
        <ele>476.55</ele>
        <time>2014-11-02T12:02:11Z</time>
      </trkpt>
      <trkpt lat="46.27333" lon="6.095">
        <ele>478.78</ele>
        <time>2014-11-02T12:02:20Z</time>
      </trkpt>
      <trkpt lat="46.27335" lon="6.095">
        <ele>478.79</ele>
        <time>2014-11-02T12:02:21Z</time>
      </trkpt>
      <trkpt lat="46.27337" lon="6.09501">
        <ele>478.8</ele>
        <time>2014-11-02T12:02:22Z</time>
      </trkpt>
      <trkpt lat="46.27344" lon="6.09509">
        <ele>478.5</ele>
        <time>2014-11-02T12:02:25Z</time>
      </trkpt>
      <trkpt lat="46.27349" lon="6.09514">
        <ele>478.14</ele>
        <time>2014-11-02T12:02:27Z</time>
      </trkpt>
      <trkpt lat="46.27352" lon="6.09517">
        <ele>477.91</ele>
        <time>2014-11-02T12:02:28Z</time>
      </trkpt>
      <trkpt lat="46.27355" lon="6.09521">
        <ele>477.8</ele>
        <time>2014-11-02T12:02:29Z</time>
      </trkpt>
      <trkpt lat="46.27358" lon="6.09525">
        <ele>477.91</ele>
        <time>2014-11-02T12:02:30Z</time>
      </trkpt>
      <trkpt lat="46.27361" lon="6.09529">
        <ele>477.8</ele>
        <time>2014-11-02T12:02:31Z</time>
      </trkpt>
      <trkpt lat="46.27364" lon="6.09533">
        <ele>477.98</ele>
        <time>2014-11-02T12:02:32Z</time>
      </trkpt>
      <trkpt lat="46.27367" lon="6.09537">
        <ele>478.17</ele>
        <time>2014-11-02T12:02:33Z</time>
      </trkpt>
      <trkpt lat="46.2737" lon="6.09541">
        <ele>478.29</ele>
        <time>2014-11-02T12:02:34Z</time>
      </trkpt>
      <trkpt lat="46.27374" lon="6.09545">
        <ele>478.35</ele>
        <time>2014-11-02T12:02:35Z</time>
      </trkpt>
      <trkpt lat="46.27377" lon="6.09549">
        <ele>478.34</ele>
        <time>2014-11-02T12:02:36Z</time>
      </trkpt>
      <trkpt lat="46.27438" lon="6.09629">
        <ele>479.78</ele>
        <time>2014-11-02T12:02:54Z</time>
      </trkpt>
      <trkpt lat="46.27459" lon="6.09661">
        <ele>479.06</ele>
        <time>2014-11-02T12:03:02Z</time>
      </trkpt>
      <trkpt lat="46.27456" lon="6.0967">
        <ele>478.96</ele>
        <time>2014-11-02T12:03:04Z</time>
      </trkpt>
      <trkpt lat="46.27453" lon="6.09675">
        <ele>478.94</ele>
        <time>2014-11-02T12:03:05Z</time>
      </trkpt>
      <trkpt lat="46.2745" lon="6.0968">
        <ele>479.05</ele>
        <time>2014-11-02T12:03:06Z</time>
      </trkpt>
      <trkpt lat="46.27444" lon="6.09692">
        <ele>478.92</ele>
        <time>2014-11-02T12:03:08Z</time>
      </trkpt>
      <trkpt lat="46.27379" lon="6.09814">
        <ele>478.16</ele>
        <time>2014-11-02T12:03:27Z</time>
      </trkpt>
      <trkpt lat="46.2733" lon="6.09899">
        <ele>475.98</ele>
        <time>2014-11-02T12:03:40Z</time>
      </trkpt>
      <trkpt lat="46.27326" lon="6.09911">
        <ele>475.79</ele>
        <time>2014-11-02T12:03:42Z</time>
      </trkpt>
      <trkpt lat="46.27326" lon="6.09917">
        <ele>475.66</ele>
        <time>2014-11-02T12:03:43Z</time>
      </trkpt>
      <trkpt lat="46.27324" lon="6.0993">
        <ele>475.6</ele>
        <time>2014-11-02T12:03:45Z</time>
      </trkpt>
      <trkpt lat="46.27322" lon="6.09936">
        <ele>475.5</ele>
        <time>2014-11-02T12:03:46Z</time>
      </trkpt>
      <trkpt lat="46.2732" lon="6.09942">
        <ele>475.33</ele>
        <time>2014-11-02T12:03:47Z</time>
      </trkpt>
      <trkpt lat="46.27318" lon="6.09948">
        <ele>475.06</ele>
        <time>2014-11-02T12:03:48Z</time>
      </trkpt>
      <trkpt lat="46.27316" lon="6.09955">
        <ele>474.95</ele>
        <time>2014-11-02T12:03:49Z</time>
      </trkpt>
      <trkpt lat="46.27292" lon="6.10043">
        <ele>473.94</ele>
        <time>2014-11-02T12:04:05Z</time>
      </trkpt>
      <trkpt lat="46.27271" lon="6.10104">
        <ele>473.95</ele>
        <time>2014-11-02T12:04:16Z</time>
      </trkpt>
      <trkpt lat="46.27265" lon="6.10119">
        <ele>473.79</ele>
        <time>2014-11-02T12:04:19Z</time>
      </trkpt>
      <trkpt lat="46.27263" lon="6.10124">
        <ele>473.7</ele>
        <time>2014-11-02T12:04:20Z</time>
      </trkpt>
      <trkpt lat="46.27261" lon="6.10129">
        <ele>473.56</ele>
        <time>2014-11-02T12:04:21Z</time>
      </trkpt>
      <trkpt lat="46.27259" lon="6.10134">
        <ele>473.37</ele>
        <time>2014-11-02T12:04:22Z</time>
      </trkpt>
      <trkpt lat="46.27257" lon="6.1014">
        <ele>473.17</ele>
        <time>2014-11-02T12:04:23Z</time>
      </trkpt>
      <trkpt lat="46.27254" lon="6.10146">
        <ele>473.01</ele>
        <time>2014-11-02T12:04:24Z</time>
      </trkpt>
      <trkpt lat="46.27251" lon="6.10151">
        <ele>472.83</ele>
        <time>2014-11-02T12:04:25Z</time>
      </trkpt>
      <trkpt lat="46.27247" lon="6.10157">
        <ele>472.51</ele>
        <time>2014-11-02T12:04:26Z</time>
      </trkpt>
      <trkpt lat="46.27207" lon="6.10222">
        <ele>469.58</ele>
        <time>2014-11-02T12:04:38Z</time>
      </trkpt>
      <trkpt lat="46.27194" lon="6.10242">
        <ele>468.09</ele>
        <time>2014-11-02T12:04:46Z</time>
      </trkpt>
      <trkpt lat="46.27179" lon="6.10264">
        <ele>467.29</ele>
        <time>2014-11-02T12:04:55Z</time>
      </trkpt>
      <trkpt lat="46.27172" lon="6.10275">
        <ele>467</ele>
        <time>2014-11-02T12:04:57Z</time>
      </trkpt>
      <trkpt lat="46.27168" lon="6.10282">
        <ele>466.82</ele>
        <time>2014-11-02T12:04:58Z</time>
      </trkpt>
      <trkpt lat="46.27164" lon="6.10289">
        <ele>466.45</ele>
        <time>2014-11-02T12:04:59Z</time>
      </trkpt>
      <trkpt lat="46.27131" lon="6.10361">
        <ele>463.68</ele>
        <time>2014-11-02T12:05:07Z</time>
      </trkpt>
      <trkpt lat="46.27121" lon="6.10388">
        <ele>463.16</ele>
        <time>2014-11-02T12:05:10Z</time>
      </trkpt>
      <trkpt lat="46.27118" lon="6.10394">
        <ele>462.97</ele>
        <time>2014-11-02T12:05:11Z</time>
      </trkpt>
      <trkpt lat="46.27113" lon="6.10398">
        <ele>462.59</ele>
        <time>2014-11-02T12:05:12Z</time>
      </trkpt>
      <trkpt lat="46.27109" lon="6.104">
        <ele>462.25</ele>
        <time>2014-11-02T12:05:13Z</time>
      </trkpt>
      <trkpt lat="46.27106" lon="6.10402">
        <ele>462.01</ele>
        <time>2014-11-02T12:05:14Z</time>
      </trkpt>
      <trkpt lat="46.27103" lon="6.10406">
        <ele>461.71</ele>
        <time>2014-11-02T12:05:16Z</time>
      </trkpt>
      <trkpt lat="46.27101" lon="6.10413">
        <ele>461.3</ele>
        <time>2014-11-02T12:05:18Z</time>
      </trkpt>
      <trkpt lat="46.27102" lon="6.10419">
        <ele>461.2</ele>
        <time>2014-11-02T12:05:19Z</time>
      </trkpt>
      <trkpt lat="46.27103" lon="6.1043">
        <ele>461.05</ele>
        <time>2014-11-02T12:05:21Z</time>
      </trkpt>
      <trkpt lat="46.27103" lon="6.10436">
        <ele>461.01</ele>
        <time>2014-11-02T12:05:22Z</time>
      </trkpt>
      <trkpt lat="46.27103" lon="6.10443">
        <ele>461.05</ele>
        <time>2014-11-02T12:05:23Z</time>
      </trkpt>
      <trkpt lat="46.27101" lon="6.10487">
        <ele>461.27</ele>
        <time>2014-11-02T12:05:29Z</time>
      </trkpt>
      <trkpt lat="46.27097" lon="6.10512">
        <ele>461.16</ele>
        <time>2014-11-02T12:05:32Z</time>
      </trkpt>
      <trkpt lat="46.27062" lon="6.10596">
        <ele>458.43</ele>
        <time>2014-11-02T12:05:42Z</time>
      </trkpt>
      <trkpt lat="46.27055" lon="6.10613">
        <ele>458.38</ele>
        <time>2014-11-02T12:05:44Z</time>
      </trkpt>
      <trkpt lat="46.27052" lon="6.10622">
        <ele>458.23</ele>
        <time>2014-11-02T12:05:45Z</time>
      </trkpt>
      <trkpt lat="46.27048" lon="6.10639">
        <ele>457.7</ele>
        <time>2014-11-02T12:05:47Z</time>
      </trkpt>
      <trkpt lat="46.27047" lon="6.10649">
        <ele>457.42</ele>
        <time>2014-11-02T12:05:48Z</time>
      </trkpt>
      <trkpt lat="46.27043" lon="6.10675">
        <ele>457.12</ele>
        <time>2014-11-02T12:05:51Z</time>
      </trkpt>
      <trkpt lat="46.27041" lon="6.10684">
        <ele>457.13</ele>
        <time>2014-11-02T12:05:52Z</time>
      </trkpt>
      <trkpt lat="46.27038" lon="6.10692">
        <ele>457.19</ele>
        <time>2014-11-02T12:05:53Z</time>
      </trkpt>
      <trkpt lat="46.27019" lon="6.10748">
        <ele>457.42</ele>
        <time>2014-11-02T12:06:00Z</time>
      </trkpt>
      <trkpt lat="46.27016" lon="6.10755">
        <ele>457.25</ele>
        <time>2014-11-02T12:06:01Z</time>
      </trkpt>
      <trkpt lat="46.27004" lon="6.10775">
        <ele>456.47</ele>
        <time>2014-11-02T12:06:04Z</time>
      </trkpt>
      <trkpt lat="46.26971" lon="6.10819">
        <ele>455.24</ele>
        <time>2014-11-02T12:06:11Z</time>
      </trkpt>
      <trkpt lat="46.26966" lon="6.10827">
        <ele>455.08</ele>
        <time>2014-11-02T12:06:12Z</time>
      </trkpt>
      <trkpt lat="46.26962" lon="6.10835">
        <ele>454.87</ele>
        <time>2014-11-02T12:06:13Z</time>
      </trkpt>
      <trkpt lat="46.26913" lon="6.10921">
        <ele>451.84</ele>
        <time>2014-11-02T12:06:23Z</time>
      </trkpt>
      <trkpt lat="46.26858" lon="6.11004">
        <ele>448.67</ele>
        <time>2014-11-02T12:06:32Z</time>
      </trkpt>
      <trkpt lat="46.26796" lon="6.11087">
        <ele>445.47</ele>
        <time>2014-11-02T12:06:41Z</time>
      </trkpt>
      <trkpt lat="46.26749" lon="6.11149">
        <ele>442.46</ele>
        <time>2014-11-02T12:06:48Z</time>
      </trkpt>
      <trkpt lat="46.26667" lon="6.11281">
        <ele>440.69</ele>
        <time>2014-11-02T12:07:03Z</time>
      </trkpt>
      <trkpt lat="46.26627" lon="6.11345">
        <ele>437.56</ele>
        <time>2014-11-02T12:07:09Z</time>
      </trkpt>
      <trkpt lat="46.26594" lon="6.11396">
        <ele>434.32</ele>
        <time>2014-11-02T12:07:14Z</time>
      </trkpt>
      <trkpt lat="46.26575" lon="6.11429">
        <ele>431.57</ele>
        <time>2014-11-02T12:07:18Z</time>
      </trkpt>
      <trkpt lat="46.26524" lon="6.11507">
        <ele>431.88</ele>
        <time>2014-11-02T12:07:30Z</time>
      </trkpt>
      <trkpt lat="46.26521" lon="6.11511">
        <ele>432.26</ele>
        <time>2014-11-02T12:07:31Z</time>
      </trkpt>
      <trkpt lat="46.26515" lon="6.11521">
        <ele>433.28</ele>
        <time>2014-11-02T12:07:33Z</time>
      </trkpt>
      <trkpt lat="46.26512" lon="6.11524">
        <ele>433.72</ele>
        <time>2014-11-02T12:07:34Z</time>
      </trkpt>
      <trkpt lat="46.26508" lon="6.11527">
        <ele>434.14</ele>
        <time>2014-11-02T12:07:35Z</time>
      </trkpt>
      <trkpt lat="46.265" lon="6.11527">
        <ele>434.61</ele>
        <time>2014-11-02T12:07:37Z</time>
      </trkpt>
      <trkpt lat="46.26496" lon="6.11526">
        <ele>435.03</ele>
        <time>2014-11-02T12:07:38Z</time>
      </trkpt>
      <trkpt lat="46.26492" lon="6.11524">
        <ele>435.27</ele>
        <time>2014-11-02T12:07:39Z</time>
      </trkpt>
      <trkpt lat="46.26488" lon="6.11522">
        <ele>435.46</ele>
        <time>2014-11-02T12:07:40Z</time>
      </trkpt>
      <trkpt lat="46.26485" lon="6.11519">
        <ele>435.65</ele>
        <time>2014-11-02T12:07:41Z</time>
      </trkpt>
      <trkpt lat="46.26482" lon="6.11516">
        <ele>435.74</ele>
        <time>2014-11-02T12:07:42Z</time>
      </trkpt>
      <trkpt lat="46.26479" lon="6.11512">
        <ele>435.81</ele>
        <time>2014-11-02T12:07:43Z</time>
      </trkpt>
      <trkpt lat="46.26476" lon="6.11509">
        <ele>435.85</ele>
        <time>2014-11-02T12:07:44Z</time>
      </trkpt>
      <trkpt lat="46.26473" lon="6.11505">
        <ele>435.93</ele>
        <time>2014-11-02T12:07:45Z</time>
      </trkpt>
      <trkpt lat="46.2647" lon="6.11502">
        <ele>435.97</ele>
        <time>2014-11-02T12:07:46Z</time>
      </trkpt>
      <trkpt lat="46.26458" lon="6.11483">
        <ele>436.13</ele>
        <time>2014-11-02T12:07:50Z</time>
      </trkpt>
      <trkpt lat="46.26448" lon="6.11472">
        <ele>436.16</ele>
        <time>2014-11-02T12:07:53Z</time>
      </trkpt>
      <trkpt lat="46.26444" lon="6.11471">
        <ele>436.17</ele>
        <time>2014-11-02T12:07:54Z</time>
      </trkpt>
      <trkpt lat="46.2644" lon="6.11471">
        <ele>436.26</ele>
        <time>2014-11-02T12:07:55Z</time>
      </trkpt>
      <trkpt lat="46.26435" lon="6.11474">
        <ele>436.41</ele>
        <time>2014-11-02T12:07:56Z</time>
      </trkpt>
      <trkpt lat="46.2643" lon="6.11478">
        <ele>436.48</ele>
        <time>2014-11-02T12:07:57Z</time>
      </trkpt>
      <trkpt lat="46.2642" lon="6.11484">
        <ele>436.31</ele>
        <time>2014-11-02T12:07:59Z</time>
      </trkpt>
      <trkpt lat="46.26335" lon="6.11529">
        <ele>432.99</ele>
        <time>2014-11-02T12:08:12Z</time>
      </trkpt>
      <trkpt lat="46.26276" lon="6.11554">
        <ele>429.44</ele>
        <time>2014-11-02T12:08:19Z</time>
      </trkpt>
      <trkpt lat="46.26226" lon="6.1158">
        <ele>425.99</ele>
        <time>2014-11-02T12:08:25Z</time>
      </trkpt>
      <trkpt lat="46.26218" lon="6.11582">
        <ele>425.6</ele>
        <time>2014-11-02T12:08:26Z</time>
      </trkpt>
      <trkpt lat="46.26212" lon="6.11586">
        <ele>425.25</ele>
        <time>2014-11-02T12:08:27Z</time>
      </trkpt>
      <trkpt lat="46.26206" lon="6.11592">
        <ele>424.83</ele>
        <time>2014-11-02T12:08:28Z</time>
      </trkpt>
      <trkpt lat="46.26201" lon="6.116">
        <ele>424.37</ele>
        <time>2014-11-02T12:08:29Z</time>
      </trkpt>
      <trkpt lat="46.2619" lon="6.11615">
        <ele>423.83</ele>
        <time>2014-11-02T12:08:31Z</time>
      </trkpt>
      <trkpt lat="46.26168" lon="6.11641">
        <ele>423.59</ele>
        <time>2014-11-02T12:08:35Z</time>
      </trkpt>
      <trkpt lat="46.26102" lon="6.11773">
        <ele>422.78</ele>
        <time>2014-11-02T12:08:50Z</time>
      </trkpt>
      <trkpt lat="46.2605" lon="6.11876">
        <ele>422.85</ele>
        <time>2014-11-02T12:09:05Z</time>
      </trkpt>
      <trkpt lat="46.26045" lon="6.11905">
        <ele>423.07</ele>
        <time>2014-11-02T12:09:13Z</time>
      </trkpt>
      <trkpt lat="46.26048" lon="6.11911">
        <ele>423.1</ele>
        <time>2014-11-02T12:09:14Z</time>
      </trkpt>
      <trkpt lat="46.26051" lon="6.11917">
        <ele>423.07</ele>
        <time>2014-11-02T12:09:15Z</time>
      </trkpt>
      <trkpt lat="46.26055" lon="6.11924">
        <ele>423.07</ele>
        <time>2014-11-02T12:09:16Z</time>
      </trkpt>
      <trkpt lat="46.26059" lon="6.11931">
        <ele>423.05</ele>
        <time>2014-11-02T12:09:17Z</time>
      </trkpt>
      <trkpt lat="46.26063" lon="6.11937">
        <ele>423.18</ele>
        <time>2014-11-02T12:09:18Z</time>
      </trkpt>
      <trkpt lat="46.26127" lon="6.12059">
        <ele>426.48</ele>
        <time>2014-11-02T12:09:37Z</time>
      </trkpt>
      <trkpt lat="46.26166" lon="6.12134">
        <ele>428.48</ele>
        <time>2014-11-02T12:09:51Z</time>
      </trkpt>
      <trkpt lat="46.26225" lon="6.12243">
        <ele>427.94</ele>
        <time>2014-11-02T12:10:07Z</time>
      </trkpt>
      <trkpt lat="46.26273" lon="6.12334">
        <ele>424.93</ele>
        <time>2014-11-02T12:10:17Z</time>
      </trkpt>
      <trkpt lat="46.2634" lon="6.12457">
        <ele>423.35</ele>
        <time>2014-11-02T12:10:31Z</time>
      </trkpt>
      <trkpt lat="46.26351" lon="6.12505">
        <ele>422.45</ele>
        <time>2014-11-02T12:10:39Z</time>
      </trkpt>
      <trkpt lat="46.26366" lon="6.12488">
        <ele>422.58</ele>
        <time>2014-11-02T12:10:44Z</time>
      </trkpt>
      <trkpt lat="46.26386" lon="6.12481">
        <ele>422.84</ele>
        <time>2014-11-02T12:10:49Z</time>
      </trkpt>
      <trkpt lat="46.26475" lon="6.12482">
        <ele>422.33</ele>
        <time>2014-11-02T12:11:04Z</time>
      </trkpt>
      <trkpt lat="46.26591" lon="6.12499">
        <ele>423.3</ele>
        <time>2014-11-02T12:11:22Z</time>
      </trkpt>
      <trkpt lat="46.26631" lon="6.1252">
        <ele>424.1</ele>
        <time>2014-11-02T12:11:29Z</time>
      </trkpt>
      <trkpt lat="46.26718" lon="6.12536">
        <ele>425.2</ele>
        <time>2014-11-02T12:11:44Z</time>
      </trkpt>
      <trkpt lat="46.26729" lon="6.12533">
        <ele>425.29</ele>
        <time>2014-11-02T12:11:46Z</time>
      </trkpt>
      <trkpt lat="46.26775" lon="6.12467">
        <ele>427.94</ele>
        <time>2014-11-02T12:11:58Z</time>
      </trkpt>
      <trkpt lat="46.26778" lon="6.12461">
        <ele>428.05</ele>
        <time>2014-11-02T12:11:59Z</time>
      </trkpt>
      <trkpt lat="46.26789" lon="6.12436">
        <ele>428.51</ele>
        <time>2014-11-02T12:12:03Z</time>
      </trkpt>
      <trkpt lat="46.26815" lon="6.12342">
        <ele>429.47</ele>
        <time>2014-11-02T12:12:16Z</time>
      </trkpt>
      <trkpt lat="46.26832" lon="6.12293">
        <ele>429.58</ele>
        <time>2014-11-02T12:12:23Z</time>
      </trkpt>
      <trkpt lat="46.26901" lon="6.12188">
        <ele>432.86</ele>
        <time>2014-11-02T12:12:44Z</time>
      </trkpt>
      <trkpt lat="46.26904" lon="6.12183">
        <ele>432.96</ele>
        <time>2014-11-02T12:12:45Z</time>
      </trkpt>
      <trkpt lat="46.26916" lon="6.1217">
        <ele>432.85</ele>
        <time>2014-11-02T12:12:48Z</time>
      </trkpt>
      <trkpt lat="46.26946" lon="6.12179">
        <ele>432.5</ele>
        <time>2014-11-02T12:12:54Z</time>
      </trkpt>
      <trkpt lat="46.26954" lon="6.12185">
        <ele>432.47</ele>
        <time>2014-11-02T12:12:56Z</time>
      </trkpt>
      <trkpt lat="46.2698" lon="6.12211">
        <ele>432.74</ele>
        <time>2014-11-02T12:13:03Z</time>
      </trkpt>
      <trkpt lat="46.27021" lon="6.12269">
        <ele>432.71</ele>
        <time>2014-11-02T12:13:15Z</time>
      </trkpt>
      <trkpt lat="46.27072" lon="6.12392">
        <ele>429.59</ele>
        <time>2014-11-02T12:13:29Z</time>
      </trkpt>
      <trkpt lat="46.27099" lon="6.12464">
        <ele>428.04</ele>
        <time>2014-11-02T12:13:36Z</time>
      </trkpt>
      <trkpt lat="46.27107" lon="6.12479">
        <ele>427.99</ele>
        <time>2014-11-02T12:13:38Z</time>
      </trkpt>
      <trkpt lat="46.27123" lon="6.12496">
        <ele>428.07</ele>
        <time>2014-11-02T12:13:41Z</time>
      </trkpt>
      <trkpt lat="46.27163" lon="6.12545">
        <ele>429.51</ele>
        <time>2014-11-02T12:13:51Z</time>
      </trkpt>
      <trkpt lat="46.27172" lon="6.12565">
        <ele>429.99</ele>
        <time>2014-11-02T12:13:55Z</time>
      </trkpt>
      <trkpt lat="46.27183" lon="6.12593">
        <ele>430.77</ele>
        <time>2014-11-02T12:14:00Z</time>
      </trkpt>
      <trkpt lat="46.27206" lon="6.12697">
        <ele>431.52</ele>
        <time>2014-11-02T12:14:15Z</time>
      </trkpt>
      <trkpt lat="46.27209" lon="6.12721">
        <ele>431.43</ele>
        <time>2014-11-02T12:14:18Z</time>
      </trkpt>
      <trkpt lat="46.27218" lon="6.12762">
        <ele>430.88</ele>
        <time>2014-11-02T12:14:23Z</time>
      </trkpt>
      <trkpt lat="46.27267" lon="6.12881">
        <ele>431.37</ele>
        <time>2014-11-02T12:14:40Z</time>
      </trkpt>
      <trkpt lat="46.27332" lon="6.13003">
        <ele>430.26</ele>
        <time>2014-11-02T12:14:56Z</time>
      </trkpt>
      <trkpt lat="46.27398" lon="6.13112">
        <ele>430.28</ele>
        <time>2014-11-02T12:15:11Z</time>
      </trkpt>
      <trkpt lat="46.27475" lon="6.13182">
        <ele>428.53</ele>
        <time>2014-11-02T12:15:24Z</time>
      </trkpt>
      <trkpt lat="46.27498" lon="6.13187">
        <ele>427.92</ele>
        <time>2014-11-02T12:15:27Z</time>
      </trkpt>
      <trkpt lat="46.27606" lon="6.132">
        <ele>426.4</ele>
        <time>2014-11-02T12:15:41Z</time>
      </trkpt>
      <trkpt lat="46.27701" lon="6.13284">
        <ele>426.31</ele>
        <time>2014-11-02T12:15:55Z</time>
      </trkpt>
      <trkpt lat="46.27798" lon="6.13385">
        <ele>424.91</ele>
        <time>2014-11-02T12:16:10Z</time>
      </trkpt>
      <trkpt lat="46.27837" lon="6.13426">
        <ele>424.94</ele>
        <time>2014-11-02T12:16:17Z</time>
      </trkpt>
      <trkpt lat="46.27929" lon="6.13489">
        <ele>423.24</ele>
        <time>2014-11-02T12:16:28Z</time>
      </trkpt>
      <trkpt lat="46.2798" lon="6.13524">
        <ele>421.56</ele>
        <time>2014-11-02T12:16:33Z</time>
      </trkpt>
      <trkpt lat="46.28024" lon="6.1359">
        <ele>417.13</ele>
        <time>2014-11-02T12:16:38Z</time>
      </trkpt>
      <trkpt lat="46.28054" lon="6.13655">
        <ele>413.71</ele>
        <time>2014-11-02T12:16:42Z</time>
      </trkpt>
      <trkpt lat="46.28084" lon="6.13738">
        <ele>410.09</ele>
        <time>2014-11-02T12:16:47Z</time>
      </trkpt>
      <trkpt lat="46.28105" lon="6.13803">
        <ele>407.06</ele>
        <time>2014-11-02T12:16:51Z</time>
      </trkpt>
      <trkpt lat="46.28161" lon="6.13929">
        <ele>405.61</ele>
        <time>2014-11-02T12:17:01Z</time>
      </trkpt>
      <trkpt lat="46.28168" lon="6.13951">
        <ele>405.95</ele>
        <time>2014-11-02T12:17:03Z</time>
      </trkpt>
      <trkpt lat="46.28169" lon="6.14081">
        <ele>408.11</ele>
        <time>2014-11-02T12:17:14Z</time>
      </trkpt>
      <trkpt lat="46.28168" lon="6.14103">
        <ele>408.09</ele>
        <time>2014-11-02T12:17:16Z</time>
      </trkpt>
      <trkpt lat="46.28184" lon="6.1428">
        <ele>408.29</ele>
        <time>2014-11-02T12:17:32Z</time>
      </trkpt>
      <trkpt lat="46.28206" lon="6.14427">
        <ele>409.16</ele>
        <time>2014-11-02T12:17:46Z</time>
      </trkpt>
      <trkpt lat="46.28227" lon="6.14506">
        <ele>412.42</ele>
        <time>2014-11-02T12:17:56Z</time>
      </trkpt>
      <trkpt lat="46.28261" lon="6.14604">
        <ele>414.55</ele>
        <time>2014-11-02T12:18:11Z</time>
      </trkpt>
      <trkpt lat="46.28357" lon="6.1471">
        <ele>416.96</ele>
        <time>2014-11-02T12:18:34Z</time>
      </trkpt>
      <trkpt lat="46.28389" lon="6.14751">
        <ele>417.2</ele>
        <time>2014-11-02T12:18:42Z</time>
      </trkpt>
      <trkpt lat="46.28399" lon="6.14779">
        <ele>416.78</ele>
        <time>2014-11-02T12:18:46Z</time>
      </trkpt>
      <trkpt lat="46.28426" lon="6.14791">
        <ele>416.73</ele>
        <time>2014-11-02T12:18:52Z</time>
      </trkpt>
      <trkpt lat="46.28442" lon="6.14798">
        <ele>417.11</ele>
        <time>2014-11-02T12:18:55Z</time>
      </trkpt>
      <trkpt lat="46.28526" lon="6.14888">
        <ele>420.1</ele>
        <time>2014-11-02T12:19:15Z</time>
      </trkpt>
      <trkpt lat="46.28659" lon="6.15028">
        <ele>422.51</ele>
        <time>2014-11-02T12:19:46Z</time>
      </trkpt>
      <trkpt lat="46.28733" lon="6.15106">
        <ele>421.86</ele>
        <time>2014-11-02T12:20:02Z</time>
      </trkpt>
      <trkpt lat="46.28743" lon="6.15126">
        <ele>422.04</ele>
        <time>2014-11-02T12:20:05Z</time>
      </trkpt>
      <trkpt lat="46.28763" lon="6.15144">
        <ele>421.81</ele>
        <time>2014-11-02T12:20:09Z</time>
      </trkpt>
      <trkpt lat="46.28866" lon="6.15209">
        <ele>421.01</ele>
        <time>2014-11-02T12:20:26Z</time>
      </trkpt>
      <trkpt lat="46.28987" lon="6.1527">
        <ele>421.06</ele>
        <time>2014-11-02T12:20:45Z</time>
      </trkpt>
      <trkpt lat="46.29053" lon="6.15304">
        <ele>421.08</ele>
        <time>2014-11-02T12:20:56Z</time>
      </trkpt>
      <trkpt lat="46.29155" lon="6.15344">
        <ele>420.43</ele>
        <time>2014-11-02T12:21:13Z</time>
      </trkpt>
      <trkpt lat="46.29189" lon="6.15356">
        <ele>420.63</ele>
        <time>2014-11-02T12:21:19Z</time>
      </trkpt>
      <trkpt lat="46.29204" lon="6.15369">
        <ele>420.68</ele>
        <time>2014-11-02T12:21:22Z</time>
      </trkpt>
      <trkpt lat="46.29209" lon="6.15374">
        <ele>420.57</ele>
        <time>2014-11-02T12:21:23Z</time>
      </trkpt>
      <trkpt lat="46.29232" lon="6.15381">
        <ele>420.64</ele>
        <time>2014-11-02T12:21:27Z</time>
      </trkpt>
      <trkpt lat="46.29309" lon="6.15445">
        <ele>422.21</ele>
        <time>2014-11-02T12:21:42Z</time>
      </trkpt>
      <trkpt lat="46.29412" lon="6.15545">
        <ele>422.19</ele>
        <time>2014-11-02T12:22:02Z</time>
      </trkpt>
      <trkpt lat="46.29521" lon="6.15644">
        <ele>421.98</ele>
        <time>2014-11-02T12:22:21Z</time>
      </trkpt>
      <trkpt lat="46.29562" lon="6.15685">
        <ele>421.27</ele>
        <time>2014-11-02T12:22:29Z</time>
      </trkpt>
      <trkpt lat="46.29573" lon="6.1569">
        <ele>421.22</ele>
        <time>2014-11-02T12:22:31Z</time>
      </trkpt>
      <trkpt lat="46.29621" lon="6.15743">
        <ele>421.41</ele>
        <time>2014-11-02T12:22:43Z</time>
      </trkpt>
      <trkpt lat="46.29645" lon="6.15712">
        <ele>421.1</ele>
        <time>2014-11-02T12:22:52Z</time>
      </trkpt>
      <trkpt lat="46.29667" lon="6.1567">
        <ele>423.06</ele>
        <time>2014-11-02T12:23:00Z</time>
      </trkpt>
      <trkpt lat="46.2972" lon="6.15574">
        <ele>424.36</ele>
        <time>2014-11-02T12:23:18Z</time>
      </trkpt>
      <trkpt lat="46.29777" lon="6.1547">
        <ele>426.57</ele>
        <time>2014-11-02T12:23:36Z</time>
      </trkpt>
      <trkpt lat="46.29782" lon="6.15459">
        <ele>426.72</ele>
        <time>2014-11-02T12:23:38Z</time>
      </trkpt>
      <trkpt lat="46.29804" lon="6.15462">
        <ele>426.89</ele>
        <time>2014-11-02T12:23:44Z</time>
      </trkpt>
      <trkpt lat="46.29876" lon="6.15547">
        <ele>425.9</ele>
        <time>2014-11-02T12:24:00Z</time>
      </trkpt>
      <trkpt lat="46.29911" lon="6.15597">
        <ele>424.61</ele>
        <time>2014-11-02T12:24:09Z</time>
      </trkpt>
      <trkpt lat="46.29922" lon="6.15646">
        <ele>424.2</ele>
        <time>2014-11-02T12:24:20Z</time>
      </trkpt>
      <trkpt lat="46.29929" lon="6.15662">
        <ele>423.88</ele>
        <time>2014-11-02T12:24:23Z</time>
      </trkpt>
      <trkpt lat="46.29957" lon="6.15709">
        <ele>424.54</ele>
        <time>2014-11-02T12:24:32Z</time>
      </trkpt>
      <trkpt lat="46.29973" lon="6.15734">
        <ele>424.7</ele>
        <time>2014-11-02T12:24:37Z</time>
      </trkpt>
      <trkpt lat="46.29988" lon="6.15764">
        <ele>425.39</ele>
        <time>2014-11-02T12:24:42Z</time>
      </trkpt>
      <trkpt lat="46.29999" lon="6.15789">
        <ele>425.18</ele>
        <time>2014-11-02T12:24:46Z</time>
      </trkpt>
      <trkpt lat="46.30001" lon="6.15796">
        <ele>425.14</ele>
        <time>2014-11-02T12:24:47Z</time>
      </trkpt>
      <trkpt lat="46.30013" lon="6.15821">
        <ele>425.1</ele>
        <time>2014-11-02T12:24:51Z</time>
      </trkpt>
      <trkpt lat="46.30031" lon="6.15872">
        <ele>425.12</ele>
        <time>2014-11-02T12:24:58Z</time>
      </trkpt>
      <trkpt lat="46.30046" lon="6.1593">
        <ele>424.65</ele>
        <time>2014-11-02T12:25:05Z</time>
      </trkpt>
      <trkpt lat="46.30071" lon="6.16028">
        <ele>423.45</ele>
        <time>2014-11-02T12:25:16Z</time>
      </trkpt>
      <trkpt lat="46.30065" lon="6.16077">
        <ele>423.16</ele>
        <time>2014-11-02T12:25:22Z</time>
      </trkpt>
      <trkpt lat="46.30054" lon="6.16096">
        <ele>423.02</ele>
        <time>2014-11-02T12:25:25Z</time>
      </trkpt>
      <trkpt lat="46.30047" lon="6.16108">
        <ele>422.96</ele>
        <time>2014-11-02T12:25:27Z</time>
      </trkpt>
      <trkpt lat="46.30044" lon="6.16115">
        <ele>423</ele>
        <time>2014-11-02T12:25:28Z</time>
      </trkpt>
      <trkpt lat="46.3005" lon="6.1616">
        <ele>423.12</ele>
        <time>2014-11-02T12:25:36Z</time>
      </trkpt>
      <trkpt lat="46.30095" lon="6.16196">
        <ele>423.33</ele>
        <time>2014-11-02T12:25:46Z</time>
      </trkpt>
      <trkpt lat="46.30139" lon="6.16217">
        <ele>423.2</ele>
        <time>2014-11-02T12:25:54Z</time>
      </trkpt>
      <trkpt lat="46.30182" lon="6.16236">
        <ele>423.45</ele>
        <time>2014-11-02T12:26:02Z</time>
      </trkpt>
      <trkpt lat="46.30224" lon="6.16245">
        <ele>423.94</ele>
        <time>2014-11-02T12:26:11Z</time>
      </trkpt>
      <trkpt lat="46.30247" lon="6.16246">
        <ele>423.31</ele>
        <time>2014-11-02T12:26:15Z</time>
      </trkpt>
      <trkpt lat="46.3026" lon="6.16244">
        <ele>423.18</ele>
        <time>2014-11-02T12:26:17Z</time>
      </trkpt>
      <trkpt lat="46.30299" lon="6.16228">
        <ele>423.26</ele>
        <time>2014-11-02T12:26:24Z</time>
      </trkpt>
      <trkpt lat="46.30329" lon="6.16225">
        <ele>423.32</ele>
        <time>2014-11-02T12:26:29Z</time>
      </trkpt>
      <trkpt lat="46.30451" lon="6.16263">
        <ele>423.7</ele>
        <time>2014-11-02T12:26:49Z</time>
      </trkpt>
      <trkpt lat="46.3056" lon="6.16266">
        <ele>422.84</ele>
        <time>2014-11-02T12:27:06Z</time>
      </trkpt>
      <trkpt lat="46.30586" lon="6.16265">
        <ele>422.87</ele>
        <time>2014-11-02T12:27:10Z</time>
      </trkpt>
      <trkpt lat="46.30617" lon="6.16258">
        <ele>423.3</ele>
        <time>2014-11-02T12:27:15Z</time>
      </trkpt>
      <trkpt lat="46.30653" lon="6.16261">
        <ele>423.27</ele>
        <time>2014-11-02T12:27:21Z</time>
      </trkpt>
      <trkpt lat="46.30674" lon="6.16276">
        <ele>422.2</ele>
        <time>2014-11-02T12:27:25Z</time>
      </trkpt>
      <trkpt lat="46.30688" lon="6.16291">
        <ele>422.03</ele>
        <time>2014-11-02T12:27:28Z</time>
      </trkpt>
      <trkpt lat="46.30727" lon="6.16307">
        <ele>421.84</ele>
        <time>2014-11-02T12:27:36Z</time>
      </trkpt>
      <trkpt lat="46.30744" lon="6.16299">
        <ele>421.58</ele>
        <time>2014-11-02T12:27:40Z</time>
      </trkpt>
      <trkpt lat="46.30798" lon="6.16169">
        <ele>424.12</ele>
        <time>2014-11-02T12:28:01Z</time>
      </trkpt>
      <trkpt lat="46.3082" lon="6.16117">
        <ele>424.5</ele>
        <time>2014-11-02T12:28:10Z</time>
      </trkpt>
      <trkpt lat="46.30842" lon="6.16123">
        <ele>425.01</ele>
        <time>2014-11-02T12:28:17Z</time>
      </trkpt>
      <trkpt lat="46.30845" lon="6.16128">
        <ele>425.07</ele>
        <time>2014-11-02T12:28:18Z</time>
      </trkpt>
      <trkpt lat="46.30907" lon="6.16221">
        <ele>424.53</ele>
        <time>2014-11-02T12:28:34Z</time>
      </trkpt>
      <trkpt lat="46.30932" lon="6.16281">
        <ele>424.04</ele>
        <time>2014-11-02T12:28:42Z</time>
      </trkpt>
      <trkpt lat="46.30963" lon="6.16339">
        <ele>424.66</ele>
        <time>2014-11-02T12:28:51Z</time>
      </trkpt>
      <trkpt lat="46.3102" lon="6.16408">
        <ele>424.59</ele>
        <time>2014-11-02T12:29:05Z</time>
      </trkpt>
      <trkpt lat="46.3104" lon="6.16424">
        <ele>423.62</ele>
        <time>2014-11-02T12:29:11Z</time>
      </trkpt>
      <trkpt lat="46.3106" lon="6.16399">
        <ele>423.31</ele>
        <time>2014-11-02T12:29:18Z</time>
      </trkpt>
      <trkpt lat="46.31065" lon="6.16387">
        <ele>423.48</ele>
        <time>2014-11-02T12:29:20Z</time>
      </trkpt>
      <trkpt lat="46.31104" lon="6.16283">
        <ele>425.83</ele>
        <time>2014-11-02T12:29:36Z</time>
      </trkpt>
      <trkpt lat="46.31149" lon="6.1621">
        <ele>427.15</ele>
        <time>2014-11-02T12:29:50Z</time>
      </trkpt>
      <trkpt lat="46.312" lon="6.16155">
        <ele>430.4</ele>
        <time>2014-11-02T12:30:06Z</time>
      </trkpt>
      <trkpt lat="46.31225" lon="6.16115">
        <ele>433.58</ele>
        <time>2014-11-02T12:30:18Z</time>
      </trkpt>
      <trkpt lat="46.31244" lon="6.16066">
        <ele>436.66</ele>
        <time>2014-11-02T12:30:31Z</time>
      </trkpt>
      <trkpt lat="46.31251" lon="6.1605">
        <ele>437.18</ele>
        <time>2014-11-02T12:30:35Z</time>
      </trkpt>
      <trkpt lat="46.3126" lon="6.16032">
        <ele>437.51</ele>
        <time>2014-11-02T12:30:40Z</time>
      </trkpt>
      <trkpt lat="46.31263" lon="6.16025">
        <ele>437.39</ele>
        <time>2014-11-02T12:30:42Z</time>
      </trkpt>
      <trkpt lat="46.31287" lon="6.16036">
        <ele>436.92</ele>
        <time>2014-11-02T12:30:50Z</time>
      </trkpt>
      <trkpt lat="46.31297" lon="6.16045">
        <ele>437.15</ele>
        <time>2014-11-02T12:30:53Z</time>
      </trkpt>
      <trkpt lat="46.31334" lon="6.16067">
        <ele>437.82</ele>
        <time>2014-11-02T12:31:02Z</time>
      </trkpt>
      <trkpt lat="46.3137" lon="6.1608">
        <ele>437.7</ele>
        <time>2014-11-02T12:31:10Z</time>
      </trkpt>
      <trkpt lat="46.31382" lon="6.16081">
        <ele>437.72</ele>
        <time>2014-11-02T12:31:13Z</time>
      </trkpt>
      <trkpt lat="46.31432" lon="6.16068">
        <ele>437.74</ele>
        <time>2014-11-02T12:31:23Z</time>
      </trkpt>
      <trkpt lat="46.31441" lon="6.16061">
        <ele>437.82</ele>
        <time>2014-11-02T12:31:25Z</time>
      </trkpt>
      <trkpt lat="46.31476" lon="6.16014">
        <ele>438.12</ele>
        <time>2014-11-02T12:31:34Z</time>
      </trkpt>
      <trkpt lat="46.3148" lon="6.16009">
        <ele>438.15</ele>
        <time>2014-11-02T12:31:35Z</time>
      </trkpt>
      <trkpt lat="46.31586" lon="6.1596">
        <ele>438.02</ele>
        <time>2014-11-02T12:31:55Z</time>
      </trkpt>
      <trkpt lat="46.31591" lon="6.15958">
        <ele>438.29</ele>
        <time>2014-11-02T12:31:56Z</time>
      </trkpt>
      <trkpt lat="46.31725" lon="6.15954">
        <ele>438.38</ele>
        <time>2014-11-02T12:32:18Z</time>
      </trkpt>
      <trkpt lat="46.31843" lon="6.15955">
        <ele>441.11</ele>
        <time>2014-11-02T12:32:37Z</time>
      </trkpt>
      <trkpt lat="46.31868" lon="6.15955">
        <ele>443.07</ele>
        <time>2014-11-02T12:32:41Z</time>
      </trkpt>
      <trkpt lat="46.31929" lon="6.15955">
        <ele>446.13</ele>
        <time>2014-11-02T12:32:53Z</time>
      </trkpt>
      <trkpt lat="46.32022" lon="6.15957">
        <ele>446.79</ele>
        <time>2014-11-02T12:33:12Z</time>
      </trkpt>
      <trkpt lat="46.32053" lon="6.15956">
        <ele>447.04</ele>
        <time>2014-11-02T12:33:19Z</time>
      </trkpt>
      <trkpt lat="46.32152" lon="6.15958">
        <ele>447.76</ele>
        <time>2014-11-02T12:33:40Z</time>
      </trkpt>
      <trkpt lat="46.32167" lon="6.15961">
        <ele>447.84</ele>
        <time>2014-11-02T12:33:43Z</time>
      </trkpt>
      <trkpt lat="46.32192" lon="6.15973">
        <ele>447.91</ele>
        <time>2014-11-02T12:33:48Z</time>
      </trkpt>
      <trkpt lat="46.32249" lon="6.16003">
        <ele>447.42</ele>
        <time>2014-11-02T12:33:59Z</time>
      </trkpt>
      <trkpt lat="46.32355" lon="6.16061">
        <ele>448.69</ele>
        <time>2014-11-02T12:34:20Z</time>
      </trkpt>
      <trkpt lat="46.32448" lon="6.16111">
        <ele>445.54</ele>
        <time>2014-11-02T12:34:34Z</time>
      </trkpt>
      <trkpt lat="46.32591" lon="6.16188">
        <ele>444.28</ele>
        <time>2014-11-02T12:34:55Z</time>
      </trkpt>
      <trkpt lat="46.32712" lon="6.16252">
        <ele>446.5</ele>
        <time>2014-11-02T12:35:16Z</time>
      </trkpt>
      <trkpt lat="46.32805" lon="6.16302">
        <ele>447.78</ele>
        <time>2014-11-02T12:35:34Z</time>
      </trkpt>
      <trkpt lat="46.32825" lon="6.16312">
        <ele>447.15</ele>
        <time>2014-11-02T12:35:40Z</time>
      </trkpt>
      <trkpt lat="46.32843" lon="6.16326">
        <ele>446.03</ele>
        <time>2014-11-02T12:35:45Z</time>
      </trkpt>
      <trkpt lat="46.32929" lon="6.16399">
        <ele>445.43</ele>
        <time>2014-11-02T12:36:05Z</time>
      </trkpt>
      <trkpt lat="46.33026" lon="6.16481">
        <ele>447.47</ele>
        <time>2014-11-02T12:36:27Z</time>
      </trkpt>
      <trkpt lat="46.33046" lon="6.16499">
        <ele>447.4</ele>
        <time>2014-11-02T12:36:32Z</time>
      </trkpt>
      <trkpt lat="46.33139" lon="6.16579">
        <ele>449.44</ele>
        <time>2014-11-02T12:36:54Z</time>
      </trkpt>
      <trkpt lat="46.3317" lon="6.16602">
        <ele>447.96</ele>
        <time>2014-11-02T12:37:01Z</time>
      </trkpt>
      <trkpt lat="46.33226" lon="6.16649">
        <ele>450.09</ele>
        <time>2014-11-02T12:37:14Z</time>
      </trkpt>
      <trkpt lat="46.3326" lon="6.16679">
        <ele>450.14</ele>
        <time>2014-11-02T12:37:22Z</time>
      </trkpt>
      <trkpt lat="46.33273" lon="6.16688">
        <ele>451.03</ele>
        <time>2014-11-02T12:37:25Z</time>
      </trkpt>
      <trkpt lat="46.33362" lon="6.16719">
        <ele>451.46</ele>
        <time>2014-11-02T12:37:45Z</time>
      </trkpt>
      <trkpt lat="46.33383" lon="6.1673">
        <ele>451.69</ele>
        <time>2014-11-02T12:37:50Z</time>
      </trkpt>
      <trkpt lat="46.3345" lon="6.168">
        <ele>453.35</ele>
        <time>2014-11-02T12:38:10Z</time>
      </trkpt>
      <trkpt lat="46.33458" lon="6.1681">
        <ele>452.83</ele>
        <time>2014-11-02T12:38:14Z</time>
      </trkpt>
      <trkpt lat="46.33473" lon="6.16828">
        <ele>451.74</ele>
        <time>2014-11-02T12:38:21Z</time>
      </trkpt>
      <trkpt lat="46.33481" lon="6.16839">
        <ele>451.48</ele>
        <time>2014-11-02T12:38:24Z</time>
      </trkpt>
      <trkpt lat="46.33483" lon="6.16851">
        <ele>450.96</ele>
        <time>2014-11-02T12:38:26Z</time>
      </trkpt>
      <trkpt lat="46.33496" lon="6.16958">
        <ele>447.68</ele>
        <time>2014-11-02T12:38:39Z</time>
      </trkpt>
      <trkpt lat="46.33496" lon="6.16967">
        <ele>447.41</ele>
        <time>2014-11-02T12:38:40Z</time>
      </trkpt>
      <trkpt lat="46.33486" lon="6.17017">
        <ele>444.92</ele>
        <time>2014-11-02T12:38:47Z</time>
      </trkpt>
      <trkpt lat="46.33487" lon="6.17042">
        <ele>443.94</ele>
        <time>2014-11-02T12:38:51Z</time>
      </trkpt>
      <trkpt lat="46.33499" lon="6.17055">
        <ele>442.66</ele>
        <time>2014-11-02T12:38:54Z</time>
      </trkpt>
      <trkpt lat="46.33508" lon="6.17056">
        <ele>442.32</ele>
        <time>2014-11-02T12:38:56Z</time>
      </trkpt>
      <trkpt lat="46.33526" lon="6.17053">
        <ele>442.9</ele>
        <time>2014-11-02T12:39:01Z</time>
      </trkpt>
      <trkpt lat="46.33538" lon="6.1705">
        <ele>444.16</ele>
        <time>2014-11-02T12:39:05Z</time>
      </trkpt>
      <trkpt lat="46.33547" lon="6.17049">
        <ele>445.13</ele>
        <time>2014-11-02T12:39:08Z</time>
      </trkpt>
      <trkpt lat="46.33563" lon="6.17047">
        <ele>446.9</ele>
        <time>2014-11-02T12:39:13Z</time>
      </trkpt>
      <trkpt lat="46.33568" lon="6.17047">
        <ele>447.7</ele>
        <time>2014-11-02T12:39:15Z</time>
      </trkpt>
      <trkpt lat="46.33591" lon="6.17067">
        <ele>450.56</ele>
        <time>2014-11-02T12:39:28Z</time>
      </trkpt>
      <trkpt lat="46.33593" lon="6.17079">
        <ele>450.83</ele>
        <time>2014-11-02T12:39:31Z</time>
      </trkpt>
      <trkpt lat="46.33638" lon="6.17114">
        <ele>451.49</ele>
        <time>2014-11-02T12:39:45Z</time>
      </trkpt>
      <trkpt lat="46.33694" lon="6.17134">
        <ele>453.94</ele>
        <time>2014-11-02T12:40:02Z</time>
      </trkpt>
      <trkpt lat="46.33724" lon="6.17142">
        <ele>455.44</ele>
        <time>2014-11-02T12:40:12Z</time>
      </trkpt>
      <trkpt lat="46.33733" lon="6.17143">
        <ele>455.72</ele>
        <time>2014-11-02T12:40:15Z</time>
      </trkpt>
      <trkpt lat="46.33763" lon="6.1714">
        <ele>457.11</ele>
        <time>2014-11-02T12:40:25Z</time>
      </trkpt>
      <trkpt lat="46.33768" lon="6.17138">
        <ele>457.55</ele>
        <time>2014-11-02T12:40:27Z</time>
      </trkpt>
      <trkpt lat="46.33781" lon="6.17138">
        <ele>458.88</ele>
        <time>2014-11-02T12:40:40Z</time>
      </trkpt>
      <trkpt lat="46.33781" lon="6.17138">
        <ele>458.48</ele>
        <time>2014-11-02T12:40:45Z</time>
      </trkpt>
      <trkpt lat="46.33818" lon="6.1714">
        <ele>458.02</ele>
        <time>2014-11-02T12:41:00Z</time>
      </trkpt>
      <trkpt lat="46.33844" lon="6.17147">
        <ele>458.04</ele>
        <time>2014-11-02T12:41:07Z</time>
      </trkpt>
      <trkpt lat="46.33912" lon="6.17192">
        <ele>458.25</ele>
        <time>2014-11-02T12:41:24Z</time>
      </trkpt>
      <trkpt lat="46.33943" lon="6.17217">
        <ele>458.69</ele>
        <time>2014-11-02T12:41:33Z</time>
      </trkpt>
      <trkpt lat="46.33951" lon="6.17211">
        <ele>458.29</ele>
        <time>2014-11-02T12:41:37Z</time>
      </trkpt>
      <trkpt lat="46.3396" lon="6.17186">
        <ele>458.06</ele>
        <time>2014-11-02T12:41:42Z</time>
      </trkpt>
      <trkpt lat="46.33974" lon="6.17147">
        <ele>457.53</ele>
        <time>2014-11-02T12:41:48Z</time>
      </trkpt>
      <trkpt lat="46.34014" lon="6.17009">
        <ele>457.02</ele>
        <time>2014-11-02T12:42:06Z</time>
      </trkpt>
      <trkpt lat="46.34018" lon="6.16998">
        <ele>457.67</ele>
        <time>2014-11-02T12:42:08Z</time>
      </trkpt>
      <trkpt lat="46.34045" lon="6.16932">
        <ele>461.07</ele>
        <time>2014-11-02T12:42:21Z</time>
      </trkpt>
      <trkpt lat="46.34055" lon="6.16911">
        <ele>462.31</ele>
        <time>2014-11-02T12:42:26Z</time>
      </trkpt>
      <trkpt lat="46.34071" lon="6.16874">
        <ele>464.2</ele>
        <time>2014-11-02T12:42:35Z</time>
      </trkpt>
      <trkpt lat="46.34086" lon="6.16841">
        <ele>465.81</ele>
        <time>2014-11-02T12:42:46Z</time>
      </trkpt>
      <trkpt lat="46.34087" lon="6.16841">
        <ele>467.05</ele>
        <time>2014-11-02T12:42:58Z</time>
      </trkpt>
      <trkpt lat="46.341" lon="6.16837">
        <ele>466.8</ele>
        <time>2014-11-02T12:43:04Z</time>
      </trkpt>
      <trkpt lat="46.34103" lon="6.16837">
        <ele>466.38</ele>
        <time>2014-11-02T12:43:05Z</time>
      </trkpt>
      <trkpt lat="46.34135" lon="6.16839">
        <ele>466.5</ele>
        <time>2014-11-02T12:43:14Z</time>
      </trkpt>
      <trkpt lat="46.34195" lon="6.16842">
        <ele>466.48</ele>
        <time>2014-11-02T12:43:30Z</time>
      </trkpt>
      <trkpt lat="46.3422" lon="6.1685">
        <ele>465.81</ele>
        <time>2014-11-02T12:43:37Z</time>
      </trkpt>
      <trkpt lat="46.3425" lon="6.1688">
        <ele>466.01</ele>
        <time>2014-11-02T12:43:46Z</time>
      </trkpt>
      <trkpt lat="46.34257" lon="6.16887">
        <ele>465.45</ele>
        <time>2014-11-02T12:43:48Z</time>
      </trkpt>
      <trkpt lat="46.3428" lon="6.1691">
        <ele>465.91</ele>
        <time>2014-11-02T12:43:55Z</time>
      </trkpt>
      <trkpt lat="46.34324" lon="6.16953">
        <ele>464.66</ele>
        <time>2014-11-02T12:44:09Z</time>
      </trkpt>
      <trkpt lat="46.3433" lon="6.16958">
        <ele>464.39</ele>
        <time>2014-11-02T12:44:23Z</time>
      </trkpt>
      <trkpt lat="46.3433" lon="6.16958">
        <ele>464.77</ele>
        <time>2014-11-02T12:44:43Z</time>
      </trkpt>
      <trkpt lat="46.34327" lon="6.16957">
        <ele>464.72</ele>
        <time>2014-11-02T12:44:55Z</time>
      </trkpt>
      <trkpt lat="46.34304" lon="6.16932">
        <ele>466.02</ele>
        <time>2014-11-02T12:45:07Z</time>
      </trkpt>
      <trkpt lat="46.34296" lon="6.16925">
        <ele>465.09</ele>
        <time>2014-11-02T12:45:10Z</time>
      </trkpt>
      <trkpt lat="46.34282" lon="6.1691">
        <ele>465.3</ele>
        <time>2014-11-02T12:45:15Z</time>
      </trkpt>
      <trkpt lat="46.34261" lon="6.1689">
        <ele>465.73</ele>
        <time>2014-11-02T12:45:22Z</time>
      </trkpt>
      <trkpt lat="46.34247" lon="6.16876">
        <ele>467.02</ele>
        <time>2014-11-02T12:45:27Z</time>
      </trkpt>
      <trkpt lat="46.34232" lon="6.16862">
        <ele>466.86</ele>
        <time>2014-11-02T12:45:32Z</time>
      </trkpt>
      <trkpt lat="46.3422" lon="6.1685">
        <ele>467.01</ele>
        <time>2014-11-02T12:45:36Z</time>
      </trkpt>
      <trkpt lat="46.34189" lon="6.16842">
        <ele>467.29</ele>
        <time>2014-11-02T12:45:44Z</time>
      </trkpt>
      <trkpt lat="46.34137" lon="6.16839">
        <ele>467.01</ele>
        <time>2014-11-02T12:45:57Z</time>
      </trkpt>
      <trkpt lat="46.34118" lon="6.16836">
        <ele>467.1</ele>
        <time>2014-11-02T12:46:02Z</time>
      </trkpt>
      <trkpt lat="46.34114" lon="6.16835">
        <ele>467.13</ele>
        <time>2014-11-02T12:46:03Z</time>
      </trkpt>
      <trkpt lat="46.34079" lon="6.16843">
        <ele>467.26</ele>
        <time>2014-11-02T12:46:14Z</time>
      </trkpt>
      <trkpt lat="46.34072" lon="6.16859">
        <ele>466.86</ele>
        <time>2014-11-02T12:46:18Z</time>
      </trkpt>
      <trkpt lat="46.34066" lon="6.16877">
        <ele>466.58</ele>
        <time>2014-11-02T12:46:21Z</time>
      </trkpt>
      <trkpt lat="46.34053" lon="6.16913">
        <ele>465.01</ele>
        <time>2014-11-02T12:46:26Z</time>
      </trkpt>
      <trkpt lat="46.34031" lon="6.1696">
        <ele>462.89</ele>
        <time>2014-11-02T12:46:32Z</time>
      </trkpt>
      <trkpt lat="46.34003" lon="6.17031">
        <ele>459.37</ele>
        <time>2014-11-02T12:46:39Z</time>
      </trkpt>
      <trkpt lat="46.33998" lon="6.17042">
        <ele>458.97</ele>
        <time>2014-11-02T12:46:40Z</time>
      </trkpt>
      <trkpt lat="46.33954" lon="6.17196">
        <ele>457.56</ele>
        <time>2014-11-02T12:46:55Z</time>
      </trkpt>
      <trkpt lat="46.33946" lon="6.17216">
        <ele>458.2</ele>
        <time>2014-11-02T12:46:59Z</time>
      </trkpt>
      <trkpt lat="46.33954" lon="6.1724">
        <ele>458.37</ele>
        <time>2014-11-02T12:47:06Z</time>
      </trkpt>
      <trkpt lat="46.33968" lon="6.17257">
        <ele>458.31</ele>
        <time>2014-11-02T12:47:10Z</time>
      </trkpt>
      <trkpt lat="46.34025" lon="6.17371">
        <ele>455.17</ele>
        <time>2014-11-02T12:47:26Z</time>
      </trkpt>
      <trkpt lat="46.34028" lon="6.17378">
        <ele>453.63</ele>
        <time>2014-11-02T12:47:32Z</time>
      </trkpt>
      <trkpt lat="46.34025" lon="6.17378">
        <ele>453.46</ele>
        <time>2014-11-02T12:47:54Z</time>
      </trkpt>
      <trkpt lat="46.34025" lon="6.17378">
        <ele>453.62</ele>
        <time>2014-11-02T12:48:29Z</time>
      </trkpt>
      <trkpt lat="46.34024" lon="6.17378">
        <ele>453.94</ele>
        <time>2014-11-02T12:55:18Z</time>
      </trkpt>
      <trkpt lat="46.34023" lon="6.17379">
        <ele>453.66</ele>
        <time>2014-11-02T12:58:12Z</time>
      </trkpt>
      <trkpt lat="46.34025" lon="6.17377">
        <ele>452.68</ele>
        <time>2014-11-02T13:02:02Z</time>
      </trkpt>
      <trkpt lat="46.34026" lon="6.1738">
        <ele>452.75</ele>
        <time>2014-11-02T13:06:24Z</time>
      </trkpt>
      <trkpt lat="46.34027" lon="6.1738">
        <ele>452.5</ele>
        <time>2014-11-02T13:06:52Z</time>
      </trkpt>
      <trkpt lat="46.34025" lon="6.1738">
        <ele>452.55</ele>
        <time>2014-11-02T13:07:37Z</time>
      </trkpt>
      <trkpt lat="46.34026" lon="6.17378">
        <ele>452.42</ele>
        <time>2014-11-02T13:08:17Z</time>
      </trkpt>
      <trkpt lat="46.34028" lon="6.17375">
        <ele>452.88</ele>
        <time>2014-11-02T13:08:37Z</time>
      </trkpt>
      <trkpt lat="46.34027" lon="6.17365">
        <ele>452.88</ele>
        <time>2014-11-02T13:08:42Z</time>
      </trkpt>
      <trkpt lat="46.34026" lon="6.17362">
        <ele>452.99</ele>
        <time>2014-11-02T13:08:44Z</time>
      </trkpt>
      <trkpt lat="46.34018" lon="6.17342">
        <ele>453.86</ele>
        <time>2014-11-02T13:08:52Z</time>
      </trkpt>
      <trkpt lat="46.34004" lon="6.17314">
        <ele>454.44</ele>
        <time>2014-11-02T13:08:57Z</time>
      </trkpt>
      <trkpt lat="46.33983" lon="6.17274">
        <ele>455.79</ele>
        <time>2014-11-02T13:09:03Z</time>
      </trkpt>
      <trkpt lat="46.33957" lon="6.17233">
        <ele>456.83</ele>
        <time>2014-11-02T13:09:10Z</time>
      </trkpt>
      <trkpt lat="46.33896" lon="6.17174">
        <ele>458.3</ele>
        <time>2014-11-02T13:09:24Z</time>
      </trkpt>
      <trkpt lat="46.33854" lon="6.17147">
        <ele>458.18</ele>
        <time>2014-11-02T13:09:33Z</time>
      </trkpt>
      <trkpt lat="46.33836" lon="6.1714">
        <ele>457.81</ele>
        <time>2014-11-02T13:09:37Z</time>
      </trkpt>
      <trkpt lat="46.33817" lon="6.17137">
        <ele>457.69</ele>
        <time>2014-11-02T13:09:41Z</time>
      </trkpt>
      <trkpt lat="46.33788" lon="6.17134">
        <ele>457.86</ele>
        <time>2014-11-02T13:09:49Z</time>
      </trkpt>
      <trkpt lat="46.33787" lon="6.17136">
        <ele>457.93</ele>
        <time>2014-11-02T13:09:57Z</time>
      </trkpt>
      <trkpt lat="46.33824" lon="6.1714">
        <ele>457.54</ele>
        <time>2014-11-02T13:10:08Z</time>
      </trkpt>
      <trkpt lat="46.33844" lon="6.17145">
        <ele>457.41</ele>
        <time>2014-11-02T13:10:13Z</time>
      </trkpt>
      <trkpt lat="46.3387" lon="6.17158">
        <ele>457.72</ele>
        <time>2014-11-02T13:10:19Z</time>
      </trkpt>
      <trkpt lat="46.33916" lon="6.17194">
        <ele>457.98</ele>
        <time>2014-11-02T13:10:29Z</time>
      </trkpt>
      <trkpt lat="46.33943" lon="6.17221">
        <ele>458.01</ele>
        <time>2014-11-02T13:10:35Z</time>
      </trkpt>
      <trkpt lat="46.33967" lon="6.17253">
        <ele>457.25</ele>
        <time>2014-11-02T13:10:41Z</time>
      </trkpt>
      <trkpt lat="46.34026" lon="6.17369">
        <ele>454.52</ele>
        <time>2014-11-02T13:10:56Z</time>
      </trkpt>
      <trkpt lat="46.34038" lon="6.17395">
        <ele>452.45</ele>
        <time>2014-11-02T13:10:59Z</time>
      </trkpt>
      <trkpt lat="46.34042" lon="6.17443">
        <ele>449.99</ele>
        <time>2014-11-02T13:11:04Z</time>
      </trkpt>
      <trkpt lat="46.34033" lon="6.17488">
        <ele>447</ele>
        <time>2014-11-02T13:11:08Z</time>
      </trkpt>
      <trkpt lat="46.34027" lon="6.17511">
        <ele>443.73</ele>
        <time>2014-11-02T13:11:11Z</time>
      </trkpt>
      <trkpt lat="46.34023" lon="6.17525">
        <ele>441.46</ele>
        <time>2014-11-02T13:11:15Z</time>
      </trkpt>
      <trkpt lat="46.34041" lon="6.17545">
        <ele>440.68</ele>
        <time>2014-11-02T13:11:23Z</time>
      </trkpt>
      <trkpt lat="46.34049" lon="6.17549">
        <ele>441.02</ele>
        <time>2014-11-02T13:11:25Z</time>
      </trkpt>
      <trkpt lat="46.34114" lon="6.17596">
        <ele>444.28</ele>
        <time>2014-11-02T13:11:42Z</time>
      </trkpt>
      <trkpt lat="46.34129" lon="6.17606">
        <ele>445.26</ele>
        <time>2014-11-02T13:11:46Z</time>
      </trkpt>
      <trkpt lat="46.34175" lon="6.1764">
        <ele>446.94</ele>
        <time>2014-11-02T13:11:58Z</time>
      </trkpt>
      <trkpt lat="46.34205" lon="6.17663">
        <ele>447.22</ele>
        <time>2014-11-02T13:12:05Z</time>
      </trkpt>
      <trkpt lat="46.3429" lon="6.17749">
        <ele>447.8</ele>
        <time>2014-11-02T13:12:25Z</time>
      </trkpt>
      <trkpt lat="46.34333" lon="6.17773">
        <ele>447.72</ele>
        <time>2014-11-02T13:12:34Z</time>
      </trkpt>
      <trkpt lat="46.34398" lon="6.17768">
        <ele>447.09</ele>
        <time>2014-11-02T13:12:46Z</time>
      </trkpt>
      <trkpt lat="46.34481" lon="6.17761">
        <ele>447.1</ele>
        <time>2014-11-02T13:13:00Z</time>
      </trkpt>
      <trkpt lat="46.34498" lon="6.1776">
        <ele>447.23</ele>
        <time>2014-11-02T13:13:03Z</time>
      </trkpt>
      <trkpt lat="46.34508" lon="6.17755">
        <ele>447.41</ele>
        <time>2014-11-02T13:13:05Z</time>
      </trkpt>
      <trkpt lat="46.34534" lon="6.17709">
        <ele>446.7</ele>
        <time>2014-11-02T13:13:12Z</time>
      </trkpt>
      <trkpt lat="46.3454" lon="6.17696">
        <ele>446.31</ele>
        <time>2014-11-02T13:13:14Z</time>
      </trkpt>
      <trkpt lat="46.3455" lon="6.17677">
        <ele>446.69</ele>
        <time>2014-11-02T13:13:17Z</time>
      </trkpt>
      <trkpt lat="46.3459" lon="6.17656">
        <ele>449.31</ele>
        <time>2014-11-02T13:13:28Z</time>
      </trkpt>
      <trkpt lat="46.34598" lon="6.17652">
        <ele>450.7</ele>
        <time>2014-11-02T13:13:31Z</time>
      </trkpt>
      <trkpt lat="46.34625" lon="6.17608">
        <ele>453.03</ele>
        <time>2014-11-02T13:13:42Z</time>
      </trkpt>
      <trkpt lat="46.34638" lon="6.17585">
        <ele>453.66</ele>
        <time>2014-11-02T13:13:47Z</time>
      </trkpt>
      <trkpt lat="46.34658" lon="6.1755">
        <ele>454.36</ele>
        <time>2014-11-02T13:13:55Z</time>
      </trkpt>
      <trkpt lat="46.34664" lon="6.17537">
        <ele>455.02</ele>
        <time>2014-11-02T13:13:58Z</time>
      </trkpt>
      <trkpt lat="46.34668" lon="6.17529">
        <ele>455.56</ele>
        <time>2014-11-02T13:14:00Z</time>
      </trkpt>
      <trkpt lat="46.34695" lon="6.17469">
        <ele>457.72</ele>
        <time>2014-11-02T13:14:14Z</time>
      </trkpt>
      <trkpt lat="46.34696" lon="6.17408">
        <ele>458.06</ele>
        <time>2014-11-02T13:14:25Z</time>
      </trkpt>
      <trkpt lat="46.34691" lon="6.17398">
        <ele>458.09</ele>
        <time>2014-11-02T13:14:27Z</time>
      </trkpt>
      <trkpt lat="46.34681" lon="6.17374">
        <ele>459</ele>
        <time>2014-11-02T13:14:32Z</time>
      </trkpt>
      <trkpt lat="46.34683" lon="6.17325">
        <ele>461.35</ele>
        <time>2014-11-02T13:14:43Z</time>
      </trkpt>
      <trkpt lat="46.34698" lon="6.17294">
        <ele>462.81</ele>
        <time>2014-11-02T13:14:51Z</time>
      </trkpt>
      <trkpt lat="46.34719" lon="6.17232">
        <ele>465.38</ele>
        <time>2014-11-02T13:15:06Z</time>
      </trkpt>
      <trkpt lat="46.34731" lon="6.17201">
        <ele>466.74</ele>
        <time>2014-11-02T13:15:14Z</time>
      </trkpt>
      <trkpt lat="46.34737" lon="6.17189">
        <ele>467.55</ele>
        <time>2014-11-02T13:15:17Z</time>
      </trkpt>
      <trkpt lat="46.34765" lon="6.17125">
        <ele>470.92</ele>
        <time>2014-11-02T13:15:35Z</time>
      </trkpt>
      <trkpt lat="46.3479" lon="6.17071">
        <ele>473.99</ele>
        <time>2014-11-02T13:15:50Z</time>
      </trkpt>
      <trkpt lat="46.34796" lon="6.17054">
        <ele>474.4</ele>
        <time>2014-11-02T13:15:54Z</time>
      </trkpt>
      <trkpt lat="46.34809" lon="6.17023">
        <ele>475.89</ele>
        <time>2014-11-02T13:16:02Z</time>
      </trkpt>
      <trkpt lat="46.34828" lon="6.16969">
        <ele>476.65</ele>
        <time>2014-11-02T13:16:15Z</time>
      </trkpt>
      <trkpt lat="46.34835" lon="6.1695">
        <ele>476.63</ele>
        <time>2014-11-02T13:16:19Z</time>
      </trkpt>
      <trkpt lat="46.34841" lon="6.16935">
        <ele>476.27</ele>
        <time>2014-11-02T13:16:22Z</time>
      </trkpt>
      <trkpt lat="46.34894" lon="6.16845">
        <ele>475.13</ele>
        <time>2014-11-02T13:16:37Z</time>
      </trkpt>
      <trkpt lat="46.34988" lon="6.16695">
        <ele>472.67</ele>
        <time>2014-11-02T13:16:58Z</time>
      </trkpt>
      <trkpt lat="46.35077" lon="6.16549">
        <ele>470.48</ele>
        <time>2014-11-02T13:17:17Z</time>
      </trkpt>
      <trkpt lat="46.35088" lon="6.1652">
        <ele>469.97</ele>
        <time>2014-11-02T13:17:26Z</time>
      </trkpt>
      <trkpt lat="46.35082" lon="6.16514">
        <ele>470.01</ele>
        <time>2014-11-02T13:17:29Z</time>
      </trkpt>
      <trkpt lat="46.34989" lon="6.16516">
        <ele>470.69</ele>
        <time>2014-11-02T13:17:46Z</time>
      </trkpt>
      <trkpt lat="46.34892" lon="6.16481">
        <ele>471.61</ele>
        <time>2014-11-02T13:18:02Z</time>
      </trkpt>
      <trkpt lat="46.34782" lon="6.16453">
        <ele>473.49</ele>
        <time>2014-11-02T13:18:21Z</time>
      </trkpt>
      <trkpt lat="46.34717" lon="6.16408">
        <ele>474.51</ele>
        <time>2014-11-02T13:18:34Z</time>
      </trkpt>
      <trkpt lat="46.34696" lon="6.16381">
        <ele>474.49</ele>
        <time>2014-11-02T13:18:39Z</time>
      </trkpt>
      <trkpt lat="46.34673" lon="6.16346">
        <ele>474.74</ele>
        <time>2014-11-02T13:18:45Z</time>
      </trkpt>
      <trkpt lat="46.34654" lon="6.16327">
        <ele>475.01</ele>
        <time>2014-11-02T13:18:49Z</time>
      </trkpt>
      <trkpt lat="46.34596" lon="6.16298">
        <ele>476.02</ele>
        <time>2014-11-02T13:19:00Z</time>
      </trkpt>
      <trkpt lat="46.34507" lon="6.16266">
        <ele>475.88</ele>
        <time>2014-11-02T13:19:17Z</time>
      </trkpt>
      <trkpt lat="46.34473" lon="6.16255">
        <ele>475.52</ele>
        <time>2014-11-02T13:19:24Z</time>
      </trkpt>
      <trkpt lat="46.3446" lon="6.1626">
        <ele>475.69</ele>
        <time>2014-11-02T13:19:34Z</time>
      </trkpt>
      <trkpt lat="46.34455" lon="6.16253">
        <ele>475.69</ele>
        <time>2014-11-02T13:20:06Z</time>
      </trkpt>
      <trkpt lat="46.34454" lon="6.16251">
        <ele>475.8</ele>
        <time>2014-11-02T13:20:25Z</time>
      </trkpt>
      <trkpt lat="46.34451" lon="6.16249">
        <ele>476</ele>
        <time>2014-11-02T13:20:28Z</time>
      </trkpt>
      <trkpt lat="46.34441" lon="6.16249">
        <ele>476.22</ele>
        <time>2014-11-02T13:20:32Z</time>
      </trkpt>
      <trkpt lat="46.34435" lon="6.16247">
        <ele>476.03</ele>
        <time>2014-11-02T13:20:36Z</time>
      </trkpt>
      <trkpt lat="46.34417" lon="6.1624">
        <ele>475.82</ele>
        <time>2014-11-02T13:20:42Z</time>
      </trkpt>
      <trkpt lat="46.34377" lon="6.1622">
        <ele>475.94</ele>
        <time>2014-11-02T13:20:49Z</time>
      </trkpt>
      <trkpt lat="46.34357" lon="6.16213">
        <ele>476.28</ele>
        <time>2014-11-02T13:20:53Z</time>
      </trkpt>
      <trkpt lat="46.34359" lon="6.16184">
        <ele>476.75</ele>
        <time>2014-11-02T13:20:58Z</time>
      </trkpt>
      <trkpt lat="46.3438" lon="6.16067">
        <ele>474.4</ele>
        <time>2014-11-02T13:21:11Z</time>
      </trkpt>
      <trkpt lat="46.34393" lon="6.15992">
        <ele>472.86</ele>
        <time>2014-11-02T13:21:18Z</time>
      </trkpt>
      <trkpt lat="46.34372" lon="6.15959">
        <ele>470.83</ele>
        <time>2014-11-02T13:21:24Z</time>
      </trkpt>
      <trkpt lat="46.34296" lon="6.15926">
        <ele>470.54</ele>
        <time>2014-11-02T13:21:38Z</time>
      </trkpt>
      <trkpt lat="46.34291" lon="6.15916">
        <ele>470.08</ele>
        <time>2014-11-02T13:21:42Z</time>
      </trkpt>
      <trkpt lat="46.34271" lon="6.15898">
        <ele>469.78</ele>
        <time>2014-11-02T13:21:47Z</time>
      </trkpt>
      <trkpt lat="46.34265" lon="6.15897">
        <ele>469.46</ele>
        <time>2014-11-02T13:21:48Z</time>
      </trkpt>
      <trkpt lat="46.34179" lon="6.15828">
        <ele>469.97</ele>
        <time>2014-11-02T13:22:03Z</time>
      </trkpt>
      <trkpt lat="46.34048" lon="6.15681">
        <ele>469.04</ele>
        <time>2014-11-02T13:22:27Z</time>
      </trkpt>
      <trkpt lat="46.33951" lon="6.15571">
        <ele>468.71</ele>
        <time>2014-11-02T13:22:45Z</time>
      </trkpt>
      <trkpt lat="46.33846" lon="6.15439">
        <ele>471.46</ele>
        <time>2014-11-02T13:23:07Z</time>
      </trkpt>
      <trkpt lat="46.33835" lon="6.15423">
        <ele>471.65</ele>
        <time>2014-11-02T13:23:10Z</time>
      </trkpt>
      <trkpt lat="46.33795" lon="6.15372">
        <ele>472.01</ele>
        <time>2014-11-02T13:23:20Z</time>
      </trkpt>
      <trkpt lat="46.3376" lon="6.1533">
        <ele>472.15</ele>
        <time>2014-11-02T13:23:28Z</time>
      </trkpt>
      <trkpt lat="46.33665" lon="6.1521">
        <ele>471.73</ele>
        <time>2014-11-02T13:23:49Z</time>
      </trkpt>
      <trkpt lat="46.3358" lon="6.15105">
        <ele>471.17</ele>
        <time>2014-11-02T13:24:06Z</time>
      </trkpt>
      <trkpt lat="46.33485" lon="6.14961">
        <ele>472.39</ele>
        <time>2014-11-02T13:24:28Z</time>
      </trkpt>
      <trkpt lat="46.33418" lon="6.1486">
        <ele>473.96</ele>
        <time>2014-11-02T13:24:45Z</time>
      </trkpt>
      <trkpt lat="46.33346" lon="6.14734">
        <ele>473.81</ele>
        <time>2014-11-02T13:25:04Z</time>
      </trkpt>
      <trkpt lat="46.33296" lon="6.14647">
        <ele>473.58</ele>
        <time>2014-11-02T13:25:17Z</time>
      </trkpt>
      <trkpt lat="46.33225" lon="6.1458">
        <ele>476.94</ele>
        <time>2014-11-02T13:25:33Z</time>
      </trkpt>
      <trkpt lat="46.33187" lon="6.1454">
        <ele>478.85</ele>
        <time>2014-11-02T13:25:43Z</time>
      </trkpt>
      <trkpt lat="46.33132" lon="6.1444">
        <ele>476.98</ele>
        <time>2014-11-02T13:25:58Z</time>
      </trkpt>
      <trkpt lat="46.33047" lon="6.14375">
        <ele>474.4</ele>
        <time>2014-11-02T13:26:12Z</time>
      </trkpt>
      <trkpt lat="46.32942" lon="6.14324">
        <ele>474.87</ele>
        <time>2014-11-02T13:26:29Z</time>
      </trkpt>
      <trkpt lat="46.32849" lon="6.14274">
        <ele>477.7</ele>
        <time>2014-11-02T13:26:47Z</time>
      </trkpt>
      <trkpt lat="46.32837" lon="6.14266">
        <ele>478.02</ele>
        <time>2014-11-02T13:26:50Z</time>
      </trkpt>
      <trkpt lat="46.32773" lon="6.14218">
        <ele>480.45</ele>
        <time>2014-11-02T13:27:06Z</time>
      </trkpt>
      <trkpt lat="46.32705" lon="6.14148">
        <ele>480.17</ele>
        <time>2014-11-02T13:27:21Z</time>
      </trkpt>
      <trkpt lat="46.32691" lon="6.14133">
        <ele>479.95</ele>
        <time>2014-11-02T13:27:24Z</time>
      </trkpt>
      <trkpt lat="46.32639" lon="6.141">
        <ele>479.08</ele>
        <time>2014-11-02T13:27:33Z</time>
      </trkpt>
      <trkpt lat="46.32545" lon="6.14056">
        <ele>478.56</ele>
        <time>2014-11-02T13:27:49Z</time>
      </trkpt>
      <trkpt lat="46.32465" lon="6.14003">
        <ele>479.17</ele>
        <time>2014-11-02T13:28:03Z</time>
      </trkpt>
      <trkpt lat="46.32443" lon="6.13987">
        <ele>479.19</ele>
        <time>2014-11-02T13:28:07Z</time>
      </trkpt>
      <trkpt lat="46.32386" lon="6.13906">
        <ele>479.15</ele>
        <time>2014-11-02T13:28:20Z</time>
      </trkpt>
      <trkpt lat="46.32305" lon="6.13809">
        <ele>478.88</ele>
        <time>2014-11-02T13:28:37Z</time>
      </trkpt>
      <trkpt lat="46.32209" lon="6.13705">
        <ele>478.31</ele>
        <time>2014-11-02T13:28:56Z</time>
      </trkpt>
      <trkpt lat="46.32113" lon="6.13599">
        <ele>476.59</ele>
        <time>2014-11-02T13:29:14Z</time>
      </trkpt>
      <trkpt lat="46.32088" lon="6.1357">
        <ele>476.37</ele>
        <time>2014-11-02T13:29:19Z</time>
      </trkpt>
      <trkpt lat="46.32076" lon="6.13542">
        <ele>476.34</ele>
        <time>2014-11-02T13:29:23Z</time>
      </trkpt>
      <trkpt lat="46.32039" lon="6.13415">
        <ele>474.63</ele>
        <time>2014-11-02T13:29:39Z</time>
      </trkpt>
      <trkpt lat="46.32006" lon="6.1332">
        <ele>474.03</ele>
        <time>2014-11-02T13:29:51Z</time>
      </trkpt>
      <trkpt lat="46.3198" lon="6.13253">
        <ele>473.61</ele>
        <time>2014-11-02T13:30:00Z</time>
      </trkpt>
      <trkpt lat="46.31968" lon="6.13223">
        <ele>473.7</ele>
        <time>2014-11-02T13:30:04Z</time>
      </trkpt>
      <trkpt lat="46.31934" lon="6.13151">
        <ele>474.21</ele>
        <time>2014-11-02T13:30:14Z</time>
      </trkpt>
      <trkpt lat="46.31855" lon="6.13065">
        <ele>472.52</ele>
        <time>2014-11-02T13:30:30Z</time>
      </trkpt>
      <trkpt lat="46.31803" lon="6.13021">
        <ele>472.38</ele>
        <time>2014-11-02T13:30:40Z</time>
      </trkpt>
      <trkpt lat="46.31798" lon="6.13018">
        <ele>472.45</ele>
        <time>2014-11-02T13:30:41Z</time>
      </trkpt>
      <trkpt lat="46.31678" lon="6.12998">
        <ele>471.77</ele>
        <time>2014-11-02T13:31:00Z</time>
      </trkpt>
      <trkpt lat="46.3163" lon="6.12979">
        <ele>471.26</ele>
        <time>2014-11-02T13:31:08Z</time>
      </trkpt>
      <trkpt lat="46.31607" lon="6.12955">
        <ele>471.19</ele>
        <time>2014-11-02T13:31:13Z</time>
      </trkpt>
      <trkpt lat="46.3155" lon="6.12896">
        <ele>470.14</ele>
        <time>2014-11-02T13:31:24Z</time>
      </trkpt>
      <trkpt lat="46.3154" lon="6.12835">
        <ele>469.7</ele>
        <time>2014-11-02T13:31:31Z</time>
      </trkpt>
      <trkpt lat="46.31586" lon="6.1268">
        <ele>467.81</ele>
        <time>2014-11-02T13:31:49Z</time>
      </trkpt>
      <trkpt lat="46.316" lon="6.12628">
        <ele>467.31</ele>
        <time>2014-11-02T13:31:55Z</time>
      </trkpt>
      <trkpt lat="46.31604" lon="6.12609">
        <ele>466.82</ele>
        <time>2014-11-02T13:31:57Z</time>
      </trkpt>
      <trkpt lat="46.31585" lon="6.12543">
        <ele>465.66</ele>
        <time>2014-11-02T13:32:04Z</time>
      </trkpt>
      <trkpt lat="46.3157" lon="6.1252">
        <ele>465.03</ele>
        <time>2014-11-02T13:32:07Z</time>
      </trkpt>
      <trkpt lat="46.31559" lon="6.12506">
        <ele>464.91</ele>
        <time>2014-11-02T13:32:09Z</time>
      </trkpt>
      <trkpt lat="46.31462" lon="6.12404">
        <ele>462.14</ele>
        <time>2014-11-02T13:32:25Z</time>
      </trkpt>
      <trkpt lat="46.31373" lon="6.12283">
        <ele>461.54</ele>
        <time>2014-11-02T13:32:43Z</time>
      </trkpt>
      <trkpt lat="46.3129" lon="6.1216">
        <ele>462.44</ele>
        <time>2014-11-02T13:33:02Z</time>
      </trkpt>
      <trkpt lat="46.31274" lon="6.12139">
        <ele>462.23</ele>
        <time>2014-11-02T13:33:05Z</time>
      </trkpt>
      <trkpt lat="46.31268" lon="6.12133">
        <ele>462.12</ele>
        <time>2014-11-02T13:33:06Z</time>
      </trkpt>
      <trkpt lat="46.31262" lon="6.12128">
        <ele>461.96</ele>
        <time>2014-11-02T13:33:07Z</time>
      </trkpt>
      <trkpt lat="46.31173" lon="6.1208">
        <ele>458.93</ele>
        <time>2014-11-02T13:33:20Z</time>
      </trkpt>
      <trkpt lat="46.31167" lon="6.12075">
        <ele>458.54</ele>
        <time>2014-11-02T13:33:21Z</time>
      </trkpt>
      <trkpt lat="46.31162" lon="6.12069">
        <ele>458.11</ele>
        <time>2014-11-02T13:33:22Z</time>
      </trkpt>
      <trkpt lat="46.31159" lon="6.12061">
        <ele>457.67</ele>
        <time>2014-11-02T13:33:23Z</time>
      </trkpt>
      <trkpt lat="46.31157" lon="6.1205">
        <ele>457.3</ele>
        <time>2014-11-02T13:33:24Z</time>
      </trkpt>
      <trkpt lat="46.31159" lon="6.1203">
        <ele>456.72</ele>
        <time>2014-11-02T13:33:26Z</time>
      </trkpt>
      <trkpt lat="46.31162" lon="6.12022">
        <ele>456.45</ele>
        <time>2014-11-02T13:33:27Z</time>
      </trkpt>
      <trkpt lat="46.31218" lon="6.11922">
        <ele>455.93</ele>
        <time>2014-11-02T13:33:40Z</time>
      </trkpt>
      <trkpt lat="46.31241" lon="6.11897">
        <ele>457.43</ele>
        <time>2014-11-02T13:33:45Z</time>
      </trkpt>
      <trkpt lat="46.31245" lon="6.1189">
        <ele>457.89</ele>
        <time>2014-11-02T13:33:46Z</time>
      </trkpt>
      <trkpt lat="46.31244" lon="6.11877">
        <ele>459.09</ele>
        <time>2014-11-02T13:33:48Z</time>
      </trkpt>
      <trkpt lat="46.31241" lon="6.11872">
        <ele>459.5</ele>
        <time>2014-11-02T13:33:49Z</time>
      </trkpt>
      <trkpt lat="46.31234" lon="6.11862">
        <ele>460.11</ele>
        <time>2014-11-02T13:33:51Z</time>
      </trkpt>
      <trkpt lat="46.31231" lon="6.11857">
        <ele>460.47</ele>
        <time>2014-11-02T13:33:52Z</time>
      </trkpt>
      <trkpt lat="46.31202" lon="6.11799">
        <ele>463.56</ele>
        <time>2014-11-02T13:34:03Z</time>
      </trkpt>
      <trkpt lat="46.31186" lon="6.1177">
        <ele>464.03</ele>
        <time>2014-11-02T13:34:09Z</time>
      </trkpt>
      <trkpt lat="46.31183" lon="6.11767">
        <ele>463.9</ele>
        <time>2014-11-02T13:34:10Z</time>
      </trkpt>
      <trkpt lat="46.3118" lon="6.11763">
        <ele>463.73</ele>
        <time>2014-11-02T13:34:11Z</time>
      </trkpt>
      <trkpt lat="46.31177" lon="6.11759">
        <ele>463.65</ele>
        <time>2014-11-02T13:34:12Z</time>
      </trkpt>
      <trkpt lat="46.31174" lon="6.11754">
        <ele>463.57</ele>
        <time>2014-11-02T13:34:13Z</time>
      </trkpt>
      <trkpt lat="46.3116" lon="6.11733">
        <ele>463.69</ele>
        <time>2014-11-02T13:34:18Z</time>
      </trkpt>
      <trkpt lat="46.31157" lon="6.11728">
        <ele>463.63</ele>
        <time>2014-11-02T13:34:19Z</time>
      </trkpt>
      <trkpt lat="46.31154" lon="6.11723">
        <ele>463.66</ele>
        <time>2014-11-02T13:34:20Z</time>
      </trkpt>
      <trkpt lat="46.3115" lon="6.11718">
        <ele>463.47</ele>
        <time>2014-11-02T13:34:21Z</time>
      </trkpt>
      <trkpt lat="46.31147" lon="6.11713">
        <ele>463.54</ele>
        <time>2014-11-02T13:34:22Z</time>
      </trkpt>
      <trkpt lat="46.3109" lon="6.11612">
        <ele>462.69</ele>
        <time>2014-11-02T13:34:42Z</time>
      </trkpt>
      <trkpt lat="46.31084" lon="6.11602">
        <ele>462.68</ele>
        <time>2014-11-02T13:34:44Z</time>
      </trkpt>
      <trkpt lat="46.3108" lon="6.11599">
        <ele>462.64</ele>
        <time>2014-11-02T13:34:45Z</time>
      </trkpt>
      <trkpt lat="46.31076" lon="6.11595">
        <ele>462.66</ele>
        <time>2014-11-02T13:34:46Z</time>
      </trkpt>
      <trkpt lat="46.31071" lon="6.11592">
        <ele>462.67</ele>
        <time>2014-11-02T13:34:47Z</time>
      </trkpt>
      <trkpt lat="46.31066" lon="6.1159">
        <ele>462.63</ele>
        <time>2014-11-02T13:34:48Z</time>
      </trkpt>
      <trkpt lat="46.31012" lon="6.11555">
        <ele>461.21</ele>
        <time>2014-11-02T13:34:58Z</time>
      </trkpt>
      <trkpt lat="46.30946" lon="6.1146">
        <ele>459.77</ele>
        <time>2014-11-02T13:35:13Z</time>
      </trkpt>
      <trkpt lat="46.30866" lon="6.11331">
        <ele>457.66</ele>
        <time>2014-11-02T13:35:30Z</time>
      </trkpt>
      <trkpt lat="46.30862" lon="6.11323">
        <ele>457.62</ele>
        <time>2014-11-02T13:35:31Z</time>
      </trkpt>
      <trkpt lat="46.30859" lon="6.11314">
        <ele>457.6</ele>
        <time>2014-11-02T13:35:32Z</time>
      </trkpt>
      <trkpt lat="46.30812" lon="6.11217">
        <ele>458.29</ele>
        <time>2014-11-02T13:35:45Z</time>
      </trkpt>
      <trkpt lat="46.30802" lon="6.11205">
        <ele>458.42</ele>
        <time>2014-11-02T13:35:47Z</time>
      </trkpt>
      <trkpt lat="46.30725" lon="6.11117">
        <ele>458.37</ele>
        <time>2014-11-02T13:36:03Z</time>
      </trkpt>
      <trkpt lat="46.30633" lon="6.11071">
        <ele>459.76</ele>
        <time>2014-11-02T13:36:20Z</time>
      </trkpt>
      <trkpt lat="46.30583" lon="6.11042">
        <ele>459.67</ele>
        <time>2014-11-02T13:36:31Z</time>
      </trkpt>
      <trkpt lat="46.30573" lon="6.11037">
        <ele>459.72</ele>
        <time>2014-11-02T13:36:33Z</time>
      </trkpt>
      <trkpt lat="46.30568" lon="6.11035">
        <ele>459.73</ele>
        <time>2014-11-02T13:36:34Z</time>
      </trkpt>
      <trkpt lat="46.30559" lon="6.11027">
        <ele>459.49</ele>
        <time>2014-11-02T13:36:36Z</time>
      </trkpt>
      <trkpt lat="46.30546" lon="6.11014">
        <ele>459.9</ele>
        <time>2014-11-02T13:36:39Z</time>
      </trkpt>
      <trkpt lat="46.30542" lon="6.11008">
        <ele>459.85</ele>
        <time>2014-11-02T13:36:40Z</time>
      </trkpt>
      <trkpt lat="46.3054" lon="6.11001">
        <ele>459.83</ele>
        <time>2014-11-02T13:36:41Z</time>
      </trkpt>
      <trkpt lat="46.30539" lon="6.10993">
        <ele>459.89</ele>
        <time>2014-11-02T13:36:42Z</time>
      </trkpt>
      <trkpt lat="46.3054" lon="6.10986">
        <ele>459.88</ele>
        <time>2014-11-02T13:36:43Z</time>
      </trkpt>
      <trkpt lat="46.30543" lon="6.1098">
        <ele>459.88</ele>
        <time>2014-11-02T13:36:44Z</time>
      </trkpt>
      <trkpt lat="46.30549" lon="6.1097">
        <ele>459.88</ele>
        <time>2014-11-02T13:36:46Z</time>
      </trkpt>
      <trkpt lat="46.30569" lon="6.10945">
        <ele>460.93</ele>
        <time>2014-11-02T13:36:52Z</time>
      </trkpt>
      <trkpt lat="46.30578" lon="6.10933">
        <ele>461.58</ele>
        <time>2014-11-02T13:36:55Z</time>
      </trkpt>
      <trkpt lat="46.30613" lon="6.10887">
        <ele>464.65</ele>
        <time>2014-11-02T13:37:06Z</time>
      </trkpt>
      <trkpt lat="46.30619" lon="6.10879">
        <ele>464.8</ele>
        <time>2014-11-02T13:37:08Z</time>
      </trkpt>
      <trkpt lat="46.30622" lon="6.10875">
        <ele>464.86</ele>
        <time>2014-11-02T13:37:09Z</time>
      </trkpt>
      <trkpt lat="46.3065" lon="6.1084">
        <ele>466.31</ele>
        <time>2014-11-02T13:37:18Z</time>
      </trkpt>
      <trkpt lat="46.30672" lon="6.10812">
        <ele>466.47</ele>
        <time>2014-11-02T13:37:25Z</time>
      </trkpt>
      <trkpt lat="46.30674" lon="6.10807">
        <ele>466.47</ele>
        <time>2014-11-02T13:37:26Z</time>
      </trkpt>
      <trkpt lat="46.30678" lon="6.10797">
        <ele>466.62</ele>
        <time>2014-11-02T13:37:28Z</time>
      </trkpt>
      <trkpt lat="46.3068" lon="6.1079">
        <ele>466.76</ele>
        <time>2014-11-02T13:37:29Z</time>
      </trkpt>
      <trkpt lat="46.30681" lon="6.10783">
        <ele>466.77</ele>
        <time>2014-11-02T13:37:30Z</time>
      </trkpt>
      <trkpt lat="46.30681" lon="6.10769">
        <ele>466.67</ele>
        <time>2014-11-02T13:37:32Z</time>
      </trkpt>
      <trkpt lat="46.3068" lon="6.10762">
        <ele>466.59</ele>
        <time>2014-11-02T13:37:33Z</time>
      </trkpt>
      <trkpt lat="46.30679" lon="6.10756">
        <ele>466.44</ele>
        <time>2014-11-02T13:37:34Z</time>
      </trkpt>
      <trkpt lat="46.30677" lon="6.1075">
        <ele>466.48</ele>
        <time>2014-11-02T13:37:35Z</time>
      </trkpt>
      <trkpt lat="46.30674" lon="6.10744">
        <ele>466.51</ele>
        <time>2014-11-02T13:37:36Z</time>
      </trkpt>
      <trkpt lat="46.30647" lon="6.10687">
        <ele>466.95</ele>
        <time>2014-11-02T13:37:46Z</time>
      </trkpt>
      <trkpt lat="46.30638" lon="6.10665">
        <ele>467.08</ele>
        <time>2014-11-02T13:37:50Z</time>
      </trkpt>
      <trkpt lat="46.30634" lon="6.10653">
        <ele>467.12</ele>
        <time>2014-11-02T13:37:52Z</time>
      </trkpt>
      <trkpt lat="46.30618" lon="6.10597">
        <ele>468.13</ele>
        <time>2014-11-02T13:38:01Z</time>
      </trkpt>
      <trkpt lat="46.30616" lon="6.1059">
        <ele>468.12</ele>
        <time>2014-11-02T13:38:02Z</time>
      </trkpt>
      <trkpt lat="46.30602" lon="6.10534">
        <ele>468.39</ele>
        <time>2014-11-02T13:38:11Z</time>
      </trkpt>
      <trkpt lat="46.30569" lon="6.10431">
        <ele>470.38</ele>
        <time>2014-11-02T13:38:28Z</time>
      </trkpt>
      <trkpt lat="46.30525" lon="6.10338">
        <ele>470.62</ele>
        <time>2014-11-02T13:38:43Z</time>
      </trkpt>
      <trkpt lat="46.30475" lon="6.1025">
        <ele>471.28</ele>
        <time>2014-11-02T13:39:00Z</time>
      </trkpt>
      <trkpt lat="46.30423" lon="6.10155">
        <ele>470.3</ele>
        <time>2014-11-02T13:39:15Z</time>
      </trkpt>
      <trkpt lat="46.30422" lon="6.10146">
        <ele>470.19</ele>
        <time>2014-11-02T13:39:16Z</time>
      </trkpt>
      <trkpt lat="46.30423" lon="6.10129">
        <ele>470.06</ele>
        <time>2014-11-02T13:39:18Z</time>
      </trkpt>
      <trkpt lat="46.30425" lon="6.10122">
        <ele>470.03</ele>
        <time>2014-11-02T13:39:19Z</time>
      </trkpt>
      <trkpt lat="46.30434" lon="6.10082">
        <ele>470.36</ele>
        <time>2014-11-02T13:39:24Z</time>
      </trkpt>
      <trkpt lat="46.30434" lon="6.10074">
        <ele>470.5</ele>
        <time>2014-11-02T13:39:25Z</time>
      </trkpt>
      <trkpt lat="46.30433" lon="6.10066">
        <ele>470.58</ele>
        <time>2014-11-02T13:39:26Z</time>
      </trkpt>
      <trkpt lat="46.30432" lon="6.10058">
        <ele>470.62</ele>
        <time>2014-11-02T13:39:27Z</time>
      </trkpt>
      <trkpt lat="46.30426" lon="6.10044">
        <ele>470.64</ele>
        <time>2014-11-02T13:39:29Z</time>
      </trkpt>
      <trkpt lat="46.30423" lon="6.10037">
        <ele>470.64</ele>
        <time>2014-11-02T13:39:30Z</time>
      </trkpt>
      <trkpt lat="46.30399" lon="6.09992">
        <ele>470.91</ele>
        <time>2014-11-02T13:39:37Z</time>
      </trkpt>
      <trkpt lat="46.30396" lon="6.09985">
        <ele>471.06</ele>
        <time>2014-11-02T13:39:38Z</time>
      </trkpt>
      <trkpt lat="46.30395" lon="6.09978">
        <ele>471.01</ele>
        <time>2014-11-02T13:39:39Z</time>
      </trkpt>
      <trkpt lat="46.30395" lon="6.0997">
        <ele>471.04</ele>
        <time>2014-11-02T13:39:40Z</time>
      </trkpt>
      <trkpt lat="46.30395" lon="6.09962">
        <ele>471.05</ele>
        <time>2014-11-02T13:39:41Z</time>
      </trkpt>
      <trkpt lat="46.30397" lon="6.09956">
        <ele>471.11</ele>
        <time>2014-11-02T13:39:42Z</time>
      </trkpt>
      <trkpt lat="46.30399" lon="6.09949">
        <ele>471.2</ele>
        <time>2014-11-02T13:39:43Z</time>
      </trkpt>
      <trkpt lat="46.30401" lon="6.09944">
        <ele>471.34</ele>
        <time>2014-11-02T13:39:44Z</time>
      </trkpt>
      <trkpt lat="46.30422" lon="6.09895">
        <ele>474.45</ele>
        <time>2014-11-02T13:39:54Z</time>
      </trkpt>
      <trkpt lat="46.3043" lon="6.09875">
        <ele>475.39</ele>
        <time>2014-11-02T13:39:58Z</time>
      </trkpt>
      <trkpt lat="46.30438" lon="6.09852">
        <ele>476.35</ele>
        <time>2014-11-02T13:40:04Z</time>
      </trkpt>
      <trkpt lat="46.30439" lon="6.0985">
        <ele>476.37</ele>
        <time>2014-11-02T13:40:05Z</time>
      </trkpt>
      <trkpt lat="46.3044" lon="6.09847">
        <ele>476.43</ele>
        <time>2014-11-02T13:40:06Z</time>
      </trkpt>
      <trkpt lat="46.30441" lon="6.09844">
        <ele>476.41</ele>
        <time>2014-11-02T13:40:07Z</time>
      </trkpt>
      <trkpt lat="46.30441" lon="6.09841">
        <ele>476.34</ele>
        <time>2014-11-02T13:40:08Z</time>
      </trkpt>
      <trkpt lat="46.30441" lon="6.09837">
        <ele>476.16</ele>
        <time>2014-11-02T13:40:09Z</time>
      </trkpt>
      <trkpt lat="46.30438" lon="6.09828">
        <ele>475.95</ele>
        <time>2014-11-02T13:40:11Z</time>
      </trkpt>
      <trkpt lat="46.30436" lon="6.09824">
        <ele>475.79</ele>
        <time>2014-11-02T13:40:12Z</time>
      </trkpt>
      <trkpt lat="46.30432" lon="6.09819">
        <ele>475.7</ele>
        <time>2014-11-02T13:40:13Z</time>
      </trkpt>
      <trkpt lat="46.30429" lon="6.09815">
        <ele>475.59</ele>
        <time>2014-11-02T13:40:14Z</time>
      </trkpt>
      <trkpt lat="46.30425" lon="6.09811">
        <ele>475.54</ele>
        <time>2014-11-02T13:40:15Z</time>
      </trkpt>
      <trkpt lat="46.30367" lon="6.09752">
        <ele>475.18</ele>
        <time>2014-11-02T13:40:28Z</time>
      </trkpt>
      <trkpt lat="46.30363" lon="6.09746">
        <ele>475.18</ele>
        <time>2014-11-02T13:40:29Z</time>
      </trkpt>
      <trkpt lat="46.30324" lon="6.09688">
        <ele>475.6</ele>
        <time>2014-11-02T13:40:40Z</time>
      </trkpt>
      <trkpt lat="46.30321" lon="6.09684">
        <ele>475.6</ele>
        <time>2014-11-02T13:40:41Z</time>
      </trkpt>
      <trkpt lat="46.30319" lon="6.0968">
        <ele>475.7</ele>
        <time>2014-11-02T13:40:42Z</time>
      </trkpt>
      <trkpt lat="46.3032" lon="6.09675">
        <ele>475.7</ele>
        <time>2014-11-02T13:40:43Z</time>
      </trkpt>
      <trkpt lat="46.30322" lon="6.09669">
        <ele>475.75</ele>
        <time>2014-11-02T13:40:44Z</time>
      </trkpt>
      <trkpt lat="46.30324" lon="6.09664">
        <ele>475.78</ele>
        <time>2014-11-02T13:40:45Z</time>
      </trkpt>
      <trkpt lat="46.30327" lon="6.09659">
        <ele>475.75</ele>
        <time>2014-11-02T13:40:46Z</time>
      </trkpt>
      <trkpt lat="46.30331" lon="6.09653">
        <ele>475.64</ele>
        <time>2014-11-02T13:40:47Z</time>
      </trkpt>
      <trkpt lat="46.30333" lon="6.09646">
        <ele>475.58</ele>
        <time>2014-11-02T13:40:48Z</time>
      </trkpt>
      <trkpt lat="46.3034" lon="6.09619">
        <ele>475.31</ele>
        <time>2014-11-02T13:40:52Z</time>
      </trkpt>
      <trkpt lat="46.30342" lon="6.09612">
        <ele>475.02</ele>
        <time>2014-11-02T13:40:53Z</time>
      </trkpt>
      <trkpt lat="46.30346" lon="6.09592">
        <ele>475.34</ele>
        <time>2014-11-02T13:40:56Z</time>
      </trkpt>
      <trkpt lat="46.30346" lon="6.09577">
        <ele>475.48</ele>
        <time>2014-11-02T13:40:58Z</time>
      </trkpt>
      <trkpt lat="46.30345" lon="6.09555">
        <ele>475.76</ele>
        <time>2014-11-02T13:41:01Z</time>
      </trkpt>
      <trkpt lat="46.30345" lon="6.09547">
        <ele>475.73</ele>
        <time>2014-11-02T13:41:02Z</time>
      </trkpt>
      <trkpt lat="46.30347" lon="6.09532">
        <ele>475.56</ele>
        <time>2014-11-02T13:41:04Z</time>
      </trkpt>
      <trkpt lat="46.30348" lon="6.09524">
        <ele>475.53</ele>
        <time>2014-11-02T13:41:05Z</time>
      </trkpt>
      <trkpt lat="46.30355" lon="6.09505">
        <ele>475.46</ele>
        <time>2014-11-02T13:41:08Z</time>
      </trkpt>
      <trkpt lat="46.30364" lon="6.09488">
        <ele>475.95</ele>
        <time>2014-11-02T13:41:11Z</time>
      </trkpt>
      <trkpt lat="46.30367" lon="6.09482">
        <ele>476.12</ele>
        <time>2014-11-02T13:41:12Z</time>
      </trkpt>
      <trkpt lat="46.30375" lon="6.09464">
        <ele>476.56</ele>
        <time>2014-11-02T13:41:15Z</time>
      </trkpt>
      <trkpt lat="46.30375" lon="6.09457">
        <ele>476.62</ele>
        <time>2014-11-02T13:41:16Z</time>
      </trkpt>
      <trkpt lat="46.30374" lon="6.0945">
        <ele>476.71</ele>
        <time>2014-11-02T13:41:17Z</time>
      </trkpt>
      <trkpt lat="46.30371" lon="6.09437">
        <ele>477.05</ele>
        <time>2014-11-02T13:41:19Z</time>
      </trkpt>
      <trkpt lat="46.30368" lon="6.0943">
        <ele>477.19</ele>
        <time>2014-11-02T13:41:20Z</time>
      </trkpt>
      <trkpt lat="46.30366" lon="6.09424">
        <ele>477.33</ele>
        <time>2014-11-02T13:41:21Z</time>
      </trkpt>
      <trkpt lat="46.3036" lon="6.09413">
        <ele>477.74</ele>
        <time>2014-11-02T13:41:23Z</time>
      </trkpt>
      <trkpt lat="46.30308" lon="6.09343">
        <ele>478.24</ele>
        <time>2014-11-02T13:41:37Z</time>
      </trkpt>
      <trkpt lat="46.30301" lon="6.09332">
        <ele>478.23</ele>
        <time>2014-11-02T13:41:39Z</time>
      </trkpt>
      <trkpt lat="46.30299" lon="6.09325">
        <ele>478.25</ele>
        <time>2014-11-02T13:41:40Z</time>
      </trkpt>
      <trkpt lat="46.30297" lon="6.09318">
        <ele>478.26</ele>
        <time>2014-11-02T13:41:41Z</time>
      </trkpt>
      <trkpt lat="46.30292" lon="6.09297">
        <ele>478.13</ele>
        <time>2014-11-02T13:41:44Z</time>
      </trkpt>
      <trkpt lat="46.30291" lon="6.09276">
        <ele>478.13</ele>
        <time>2014-11-02T13:41:47Z</time>
      </trkpt>
      <trkpt lat="46.30291" lon="6.09264">
        <ele>478.45</ele>
        <time>2014-11-02T13:41:49Z</time>
      </trkpt>
      <trkpt lat="46.30293" lon="6.09252">
        <ele>478.54</ele>
        <time>2014-11-02T13:41:51Z</time>
      </trkpt>
      <trkpt lat="46.30294" lon="6.09246">
        <ele>478.56</ele>
        <time>2014-11-02T13:41:52Z</time>
      </trkpt>
      <trkpt lat="46.30299" lon="6.09235">
        <ele>478.57</ele>
        <time>2014-11-02T13:41:54Z</time>
      </trkpt>
      <trkpt lat="46.30364" lon="6.09113">
        <ele>480.9</ele>
        <time>2014-11-02T13:42:15Z</time>
      </trkpt>
      <trkpt lat="46.3039" lon="6.09061">
        <ele>482.19</ele>
        <time>2014-11-02T13:42:24Z</time>
      </trkpt>
      <trkpt lat="46.30404" lon="6.09027">
        <ele>481.91</ele>
        <time>2014-11-02T13:42:31Z</time>
      </trkpt>
      <trkpt lat="46.30402" lon="6.09022">
        <ele>481.82</ele>
        <time>2014-11-02T13:42:32Z</time>
      </trkpt>
      <trkpt lat="46.304" lon="6.09016">
        <ele>481.68</ele>
        <time>2014-11-02T13:42:33Z</time>
      </trkpt>
      <trkpt lat="46.30397" lon="6.09011">
        <ele>481.78</ele>
        <time>2014-11-02T13:42:34Z</time>
      </trkpt>
      <trkpt lat="46.30392" lon="6.08999">
        <ele>481.93</ele>
        <time>2014-11-02T13:42:36Z</time>
      </trkpt>
      <trkpt lat="46.30389" lon="6.08993">
        <ele>481.9</ele>
        <time>2014-11-02T13:42:37Z</time>
      </trkpt>
      <trkpt lat="46.30343" lon="6.08915">
        <ele>481.85</ele>
        <time>2014-11-02T13:42:51Z</time>
      </trkpt>
      <trkpt lat="46.30339" lon="6.08903">
        <ele>482.06</ele>
        <time>2014-11-02T13:42:53Z</time>
      </trkpt>
      <trkpt lat="46.30337" lon="6.08882">
        <ele>481.93</ele>
        <time>2014-11-02T13:42:56Z</time>
      </trkpt>
      <trkpt lat="46.30336" lon="6.08874">
        <ele>481.79</ele>
        <time>2014-11-02T13:42:57Z</time>
      </trkpt>
      <trkpt lat="46.30344" lon="6.08729">
        <ele>482.57</ele>
        <time>2014-11-02T13:43:15Z</time>
      </trkpt>
      <trkpt lat="46.30351" lon="6.08605">
        <ele>483.29</ele>
        <time>2014-11-02T13:43:32Z</time>
      </trkpt>
      <trkpt lat="46.30361" lon="6.08509">
        <ele>483.84</ele>
        <time>2014-11-02T13:43:46Z</time>
      </trkpt>
      <trkpt lat="46.30361" lon="6.08495">
        <ele>484.06</ele>
        <time>2014-11-02T13:43:48Z</time>
      </trkpt>
      <trkpt lat="46.30353" lon="6.08447">
        <ele>484.56</ele>
        <time>2014-11-02T13:43:55Z</time>
      </trkpt>
      <trkpt lat="46.30332" lon="6.08321">
        <ele>486.5</ele>
        <time>2014-11-02T13:44:14Z</time>
      </trkpt>
      <trkpt lat="46.30288" lon="6.08229">
        <ele>487.3</ele>
        <time>2014-11-02T13:44:33Z</time>
      </trkpt>
      <trkpt lat="46.30285" lon="6.08225">
        <ele>487.34</ele>
        <time>2014-11-02T13:44:34Z</time>
      </trkpt>
      <trkpt lat="46.30274" lon="6.08209">
        <ele>487.35</ele>
        <time>2014-11-02T13:44:38Z</time>
      </trkpt>
      <trkpt lat="46.30271" lon="6.08204">
        <ele>487.34</ele>
        <time>2014-11-02T13:44:39Z</time>
      </trkpt>
      <trkpt lat="46.30265" lon="6.08195">
        <ele>487.38</ele>
        <time>2014-11-02T13:44:41Z</time>
      </trkpt>
      <trkpt lat="46.30262" lon="6.08191">
        <ele>487.46</ele>
        <time>2014-11-02T13:44:42Z</time>
      </trkpt>
      <trkpt lat="46.302" lon="6.08096">
        <ele>486.9</ele>
        <time>2014-11-02T13:45:01Z</time>
      </trkpt>
      <trkpt lat="46.30116" lon="6.0796">
        <ele>486.52</ele>
        <time>2014-11-02T13:45:23Z</time>
      </trkpt>
      <trkpt lat="46.30024" lon="6.07816">
        <ele>485.21</ele>
        <time>2014-11-02T13:45:45Z</time>
      </trkpt>
      <trkpt lat="46.29989" lon="6.07775">
        <ele>485.02</ele>
        <time>2014-11-02T13:45:52Z</time>
      </trkpt>
      <trkpt lat="46.29907" lon="6.07683">
        <ele>484.58</ele>
        <time>2014-11-02T13:46:09Z</time>
      </trkpt>
      <trkpt lat="46.2985" lon="6.07611">
        <ele>483.78</ele>
        <time>2014-11-02T13:46:21Z</time>
      </trkpt>
      <trkpt lat="46.29846" lon="6.07605">
        <ele>483.76</ele>
        <time>2014-11-02T13:46:22Z</time>
      </trkpt>
      <trkpt lat="46.29759" lon="6.07476">
        <ele>482.85</ele>
        <time>2014-11-02T13:46:43Z</time>
      </trkpt>
      <trkpt lat="46.29748" lon="6.07458">
        <ele>482.75</ele>
        <time>2014-11-02T13:46:46Z</time>
      </trkpt>
      <trkpt lat="46.29743" lon="6.07447">
        <ele>482.72</ele>
        <time>2014-11-02T13:46:48Z</time>
      </trkpt>
      <trkpt lat="46.29737" lon="6.07427">
        <ele>482.7</ele>
        <time>2014-11-02T13:46:52Z</time>
      </trkpt>
      <trkpt lat="46.29736" lon="6.07424">
        <ele>482.66</ele>
        <time>2014-11-02T13:46:53Z</time>
      </trkpt>
      <trkpt lat="46.29735" lon="6.07422">
        <ele>482.71</ele>
        <time>2014-11-02T13:46:54Z</time>
      </trkpt>
      <trkpt lat="46.29733" lon="6.07421">
        <ele>483.12</ele>
        <time>2014-11-02T13:47:08Z</time>
      </trkpt>
      <trkpt lat="46.29729" lon="6.07419">
        <ele>483.01</ele>
        <time>2014-11-02T13:47:26Z</time>
      </trkpt>
      <trkpt lat="46.29728" lon="6.07418">
        <ele>483.1</ele>
        <time>2014-11-02T13:47:27Z</time>
      </trkpt>
      <trkpt lat="46.29726" lon="6.07417">
        <ele>483.15</ele>
        <time>2014-11-02T13:47:28Z</time>
      </trkpt>
      <trkpt lat="46.29723" lon="6.07416">
        <ele>483.15</ele>
        <time>2014-11-02T13:47:29Z</time>
      </trkpt>
      <trkpt lat="46.2972" lon="6.07415">
        <ele>483.21</ele>
        <time>2014-11-02T13:47:30Z</time>
      </trkpt>
      <trkpt lat="46.29717" lon="6.07412">
        <ele>483.25</ele>
        <time>2014-11-02T13:47:31Z</time>
      </trkpt>
      <trkpt lat="46.29714" lon="6.0741">
        <ele>483.27</ele>
        <time>2014-11-02T13:47:32Z</time>
      </trkpt>
      <trkpt lat="46.29711" lon="6.07406">
        <ele>483.18</ele>
        <time>2014-11-02T13:47:33Z</time>
      </trkpt>
      <trkpt lat="46.29707" lon="6.07402">
        <ele>483.06</ele>
        <time>2014-11-02T13:47:34Z</time>
      </trkpt>
      <trkpt lat="46.29705" lon="6.07397">
        <ele>483.01</ele>
        <time>2014-11-02T13:47:35Z</time>
      </trkpt>
      <trkpt lat="46.29702" lon="6.07393">
        <ele>482.98</ele>
        <time>2014-11-02T13:47:36Z</time>
      </trkpt>
      <trkpt lat="46.29695" lon="6.07384">
        <ele>482.8</ele>
        <time>2014-11-02T13:47:38Z</time>
      </trkpt>
      <trkpt lat="46.29691" lon="6.0738">
        <ele>482.68</ele>
        <time>2014-11-02T13:47:39Z</time>
      </trkpt>
      <trkpt lat="46.2968" lon="6.07371">
        <ele>482.36</ele>
        <time>2014-11-02T13:47:42Z</time>
      </trkpt>
      <trkpt lat="46.29677" lon="6.07367">
        <ele>482.34</ele>
        <time>2014-11-02T13:47:43Z</time>
      </trkpt>
      <trkpt lat="46.29675" lon="6.07362">
        <ele>482.32</ele>
        <time>2014-11-02T13:47:44Z</time>
      </trkpt>
      <trkpt lat="46.29671" lon="6.07349">
        <ele>482.32</ele>
        <time>2014-11-02T13:47:46Z</time>
      </trkpt>
      <trkpt lat="46.29668" lon="6.07344">
        <ele>482.32</ele>
        <time>2014-11-02T13:47:47Z</time>
      </trkpt>
      <trkpt lat="46.29665" lon="6.07338">
        <ele>482.38</ele>
        <time>2014-11-02T13:47:48Z</time>
      </trkpt>
      <trkpt lat="46.29661" lon="6.07333">
        <ele>482.45</ele>
        <time>2014-11-02T13:47:49Z</time>
      </trkpt>
      <trkpt lat="46.29658" lon="6.07327">
        <ele>482.48</ele>
        <time>2014-11-02T13:47:50Z</time>
      </trkpt>
      <trkpt lat="46.29618" lon="6.07286">
        <ele>481.82</ele>
        <time>2014-11-02T13:47:59Z</time>
      </trkpt>
      <trkpt lat="46.29613" lon="6.07281">
        <ele>481.74</ele>
        <time>2014-11-02T13:48:00Z</time>
      </trkpt>
      <trkpt lat="46.29608" lon="6.07277">
        <ele>481.79</ele>
        <time>2014-11-02T13:48:01Z</time>
      </trkpt>
      <trkpt lat="46.29604" lon="6.07272">
        <ele>481.81</ele>
        <time>2014-11-02T13:48:02Z</time>
      </trkpt>
      <trkpt lat="46.29557" lon="6.07233">
        <ele>481.09</ele>
        <time>2014-11-02T13:48:12Z</time>
      </trkpt>
      <trkpt lat="46.29536" lon="6.07205">
        <ele>481.73</ele>
        <time>2014-11-02T13:48:19Z</time>
      </trkpt>
      <trkpt lat="46.29536" lon="6.07201">
        <ele>481.73</ele>
        <time>2014-11-02T13:48:20Z</time>
      </trkpt>
      <trkpt lat="46.29545" lon="6.07189">
        <ele>482</ele>
        <time>2014-11-02T13:48:23Z</time>
      </trkpt>
      <trkpt lat="46.29551" lon="6.07181">
        <ele>482.1</ele>
        <time>2014-11-02T13:48:25Z</time>
      </trkpt>
      <trkpt lat="46.29555" lon="6.07177">
        <ele>482.2</ele>
        <time>2014-11-02T13:48:26Z</time>
      </trkpt>
      <trkpt lat="46.29621" lon="6.07122">
        <ele>483.03</ele>
        <time>2014-11-02T13:48:41Z</time>
      </trkpt>
      <trkpt lat="46.29635" lon="6.07101">
        <ele>483.59</ele>
        <time>2014-11-02T13:48:45Z</time>
      </trkpt>
      <trkpt lat="46.29645" lon="6.07076">
        <ele>483.81</ele>
        <time>2014-11-02T13:48:49Z</time>
      </trkpt>
      <trkpt lat="46.29647" lon="6.0707">
        <ele>483.82</ele>
        <time>2014-11-02T13:48:50Z</time>
      </trkpt>
      <trkpt lat="46.2965" lon="6.07064">
        <ele>483.86</ele>
        <time>2014-11-02T13:48:51Z</time>
      </trkpt>
      <trkpt lat="46.29675" lon="6.07019">
        <ele>484.88</ele>
        <time>2014-11-02T13:48:59Z</time>
      </trkpt>
      <trkpt lat="46.29679" lon="6.07014">
        <ele>484.98</ele>
        <time>2014-11-02T13:49:00Z</time>
      </trkpt>
      <trkpt lat="46.29715" lon="6.06967">
        <ele>486.23</ele>
        <time>2014-11-02T13:49:10Z</time>
      </trkpt>
      <trkpt lat="46.29717" lon="6.06961">
        <ele>486.25</ele>
        <time>2014-11-02T13:49:11Z</time>
      </trkpt>
      <trkpt lat="46.2972" lon="6.06956">
        <ele>486.3</ele>
        <time>2014-11-02T13:49:12Z</time>
      </trkpt>
      <trkpt lat="46.29721" lon="6.0695">
        <ele>486.32</ele>
        <time>2014-11-02T13:49:13Z</time>
      </trkpt>
      <trkpt lat="46.29721" lon="6.06943">
        <ele>486.35</ele>
        <time>2014-11-02T13:49:14Z</time>
      </trkpt>
      <trkpt lat="46.29722" lon="6.06936">
        <ele>486.47</ele>
        <time>2014-11-02T13:49:15Z</time>
      </trkpt>
      <trkpt lat="46.29724" lon="6.0693">
        <ele>486.62</ele>
        <time>2014-11-02T13:49:16Z</time>
      </trkpt>
      <trkpt lat="46.29726" lon="6.06924">
        <ele>486.69</ele>
        <time>2014-11-02T13:49:17Z</time>
      </trkpt>
      <trkpt lat="46.29733" lon="6.069">
        <ele>487.16</ele>
        <time>2014-11-02T13:49:21Z</time>
      </trkpt>
      <trkpt lat="46.29736" lon="6.06894">
        <ele>487.19</ele>
        <time>2014-11-02T13:49:22Z</time>
      </trkpt>
      <trkpt lat="46.29742" lon="6.06884">
        <ele>487.25</ele>
        <time>2014-11-02T13:49:24Z</time>
      </trkpt>
      <trkpt lat="46.29745" lon="6.06879">
        <ele>487.25</ele>
        <time>2014-11-02T13:49:25Z</time>
      </trkpt>
      <trkpt lat="46.29749" lon="6.06875">
        <ele>487.22</ele>
        <time>2014-11-02T13:49:26Z</time>
      </trkpt>
      <trkpt lat="46.29815" lon="6.06803">
        <ele>488.71</ele>
        <time>2014-11-02T13:49:43Z</time>
      </trkpt>
      <trkpt lat="46.2985" lon="6.06765">
        <ele>489.95</ele>
        <time>2014-11-02T13:49:52Z</time>
      </trkpt>
      <trkpt lat="46.29925" lon="6.06685">
        <ele>491.84</ele>
        <time>2014-11-02T13:50:12Z</time>
      </trkpt>
      <trkpt lat="46.29962" lon="6.06646">
        <ele>492.85</ele>
        <time>2014-11-02T13:50:22Z</time>
      </trkpt>
      <trkpt lat="46.30023" lon="6.06599">
        <ele>493.89</ele>
        <time>2014-11-02T13:50:37Z</time>
      </trkpt>
      <trkpt lat="46.30081" lon="6.06583">
        <ele>494.93</ele>
        <time>2014-11-02T13:50:53Z</time>
      </trkpt>
      <trkpt lat="46.30084" lon="6.06584">
        <ele>494.96</ele>
        <time>2014-11-02T13:50:54Z</time>
      </trkpt>
      <trkpt lat="46.30086" lon="6.06585">
        <ele>494.98</ele>
        <time>2014-11-02T13:50:55Z</time>
      </trkpt>
      <trkpt lat="46.30087" lon="6.06588">
        <ele>494.98</ele>
        <time>2014-11-02T13:50:56Z</time>
      </trkpt>
      <trkpt lat="46.30089" lon="6.06591">
        <ele>494.98</ele>
        <time>2014-11-02T13:50:57Z</time>
      </trkpt>
      <trkpt lat="46.3009" lon="6.06594">
        <ele>495.04</ele>
        <time>2014-11-02T13:50:58Z</time>
      </trkpt>
      <trkpt lat="46.30093" lon="6.06596">
        <ele>495.08</ele>
        <time>2014-11-02T13:50:59Z</time>
      </trkpt>
      <trkpt lat="46.30096" lon="6.06599">
        <ele>495.13</ele>
        <time>2014-11-02T13:51:00Z</time>
      </trkpt>
      <trkpt lat="46.30099" lon="6.066">
        <ele>495.18</ele>
        <time>2014-11-02T13:51:01Z</time>
      </trkpt>
      <trkpt lat="46.30106" lon="6.06598">
        <ele>495.35</ele>
        <time>2014-11-02T13:51:03Z</time>
      </trkpt>
      <trkpt lat="46.30108" lon="6.06595">
        <ele>495.39</ele>
        <time>2014-11-02T13:51:04Z</time>
      </trkpt>
      <trkpt lat="46.30108" lon="6.0659">
        <ele>495.44</ele>
        <time>2014-11-02T13:51:05Z</time>
      </trkpt>
      <trkpt lat="46.30108" lon="6.06585">
        <ele>495.57</ele>
        <time>2014-11-02T13:51:06Z</time>
      </trkpt>
      <trkpt lat="46.30107" lon="6.06579">
        <ele>495.57</ele>
        <time>2014-11-02T13:51:07Z</time>
      </trkpt>
      <trkpt lat="46.30106" lon="6.06573">
        <ele>495.65</ele>
        <time>2014-11-02T13:51:08Z</time>
      </trkpt>
      <trkpt lat="46.30106" lon="6.06561">
        <ele>495.97</ele>
        <time>2014-11-02T13:51:10Z</time>
      </trkpt>
      <trkpt lat="46.30106" lon="6.06555">
        <ele>496.04</ele>
        <time>2014-11-02T13:51:11Z</time>
      </trkpt>
      <trkpt lat="46.30103" lon="6.06513">
        <ele>496.59</ele>
        <time>2014-11-02T13:51:18Z</time>
      </trkpt>
      <trkpt lat="46.30102" lon="6.06507">
        <ele>496.67</ele>
        <time>2014-11-02T13:51:19Z</time>
      </trkpt>
      <trkpt lat="46.30101" lon="6.06501">
        <ele>496.76</ele>
        <time>2014-11-02T13:51:20Z</time>
      </trkpt>
      <trkpt lat="46.30101" lon="6.06495">
        <ele>496.86</ele>
        <time>2014-11-02T13:51:21Z</time>
      </trkpt>
      <trkpt lat="46.301" lon="6.06489">
        <ele>496.98</ele>
        <time>2014-11-02T13:51:22Z</time>
      </trkpt>
      <trkpt lat="46.301" lon="6.06483">
        <ele>497.04</ele>
        <time>2014-11-02T13:51:23Z</time>
      </trkpt>
      <trkpt lat="46.301" lon="6.06477">
        <ele>497.12</ele>
        <time>2014-11-02T13:51:24Z</time>
      </trkpt>
      <trkpt lat="46.301" lon="6.0647">
        <ele>497.2</ele>
        <time>2014-11-02T13:51:25Z</time>
      </trkpt>
      <trkpt lat="46.30101" lon="6.06456">
        <ele>497.26</ele>
        <time>2014-11-02T13:51:27Z</time>
      </trkpt>
      <trkpt lat="46.30102" lon="6.06449">
        <ele>497.28</ele>
        <time>2014-11-02T13:51:28Z</time>
      </trkpt>
      <trkpt lat="46.30104" lon="6.06442">
        <ele>497.34</ele>
        <time>2014-11-02T13:51:29Z</time>
      </trkpt>
      <trkpt lat="46.30108" lon="6.06429">
        <ele>497.37</ele>
        <time>2014-11-02T13:51:31Z</time>
      </trkpt>
      <trkpt lat="46.3011" lon="6.06423">
        <ele>497.26</ele>
        <time>2014-11-02T13:51:32Z</time>
      </trkpt>
      <trkpt lat="46.30113" lon="6.06417">
        <ele>497.31</ele>
        <time>2014-11-02T13:51:33Z</time>
      </trkpt>
      <trkpt lat="46.30117" lon="6.06412">
        <ele>497.29</ele>
        <time>2014-11-02T13:51:34Z</time>
      </trkpt>
      <trkpt lat="46.3012" lon="6.06407">
        <ele>497.27</ele>
        <time>2014-11-02T13:51:35Z</time>
      </trkpt>
      <trkpt lat="46.3014" lon="6.06378">
        <ele>498.45</ele>
        <time>2014-11-02T13:51:42Z</time>
      </trkpt>
      <trkpt lat="46.30145" lon="6.06372">
        <ele>498.68</ele>
        <time>2014-11-02T13:51:44Z</time>
      </trkpt>
      <trkpt lat="46.30147" lon="6.06369">
        <ele>498.91</ele>
        <time>2014-11-02T13:51:45Z</time>
      </trkpt>
      <trkpt lat="46.30149" lon="6.06367">
        <ele>499.07</ele>
        <time>2014-11-02T13:51:46Z</time>
      </trkpt>
      <trkpt lat="46.30151" lon="6.06364">
        <ele>499.28</ele>
        <time>2014-11-02T13:51:47Z</time>
      </trkpt>
      <trkpt lat="46.30153" lon="6.0636">
        <ele>499.46</ele>
        <time>2014-11-02T13:51:48Z</time>
      </trkpt>
      <trkpt lat="46.30156" lon="6.06357">
        <ele>499.6</ele>
        <time>2014-11-02T13:51:49Z</time>
      </trkpt>
      <trkpt lat="46.30158" lon="6.06355">
        <ele>499.77</ele>
        <time>2014-11-02T13:51:50Z</time>
      </trkpt>
      <trkpt lat="46.30164" lon="6.0635">
        <ele>500.35</ele>
        <time>2014-11-02T13:51:52Z</time>
      </trkpt>
      <trkpt lat="46.30166" lon="6.06347">
        <ele>500.67</ele>
        <time>2014-11-02T13:51:53Z</time>
      </trkpt>
      <trkpt lat="46.30168" lon="6.06343">
        <ele>500.96</ele>
        <time>2014-11-02T13:51:54Z</time>
      </trkpt>
      <trkpt lat="46.30171" lon="6.0634">
        <ele>501.16</ele>
        <time>2014-11-02T13:51:55Z</time>
      </trkpt>
      <trkpt lat="46.30173" lon="6.06336">
        <ele>501.49</ele>
        <time>2014-11-02T13:51:56Z</time>
      </trkpt>
      <trkpt lat="46.30176" lon="6.06333">
        <ele>501.81</ele>
        <time>2014-11-02T13:51:57Z</time>
      </trkpt>
      <trkpt lat="46.3018" lon="6.06326">
        <ele>502.24</ele>
        <time>2014-11-02T13:51:59Z</time>
      </trkpt>
      <trkpt lat="46.30185" lon="6.06319">
        <ele>502.69</ele>
        <time>2014-11-02T13:52:01Z</time>
      </trkpt>
      <trkpt lat="46.30187" lon="6.06315">
        <ele>502.86</ele>
        <time>2014-11-02T13:52:02Z</time>
      </trkpt>
      <trkpt lat="46.30189" lon="6.06311">
        <ele>503.04</ele>
        <time>2014-11-02T13:52:03Z</time>
      </trkpt>
      <trkpt lat="46.30191" lon="6.06308">
        <ele>503.22</ele>
        <time>2014-11-02T13:52:04Z</time>
      </trkpt>
      <trkpt lat="46.30193" lon="6.06304">
        <ele>503.3</ele>
        <time>2014-11-02T13:52:05Z</time>
      </trkpt>
      <trkpt lat="46.30195" lon="6.06301">
        <ele>503.38</ele>
        <time>2014-11-02T13:52:06Z</time>
      </trkpt>
      <trkpt lat="46.30198" lon="6.06298">
        <ele>503.41</ele>
        <time>2014-11-02T13:52:07Z</time>
      </trkpt>
      <trkpt lat="46.30201" lon="6.06295">
        <ele>503.46</ele>
        <time>2014-11-02T13:52:08Z</time>
      </trkpt>
      <trkpt lat="46.30203" lon="6.06292">
        <ele>503.57</ele>
        <time>2014-11-02T13:52:09Z</time>
      </trkpt>
      <trkpt lat="46.30206" lon="6.06288">
        <ele>503.75</ele>
        <time>2014-11-02T13:52:10Z</time>
      </trkpt>
      <trkpt lat="46.30224" lon="6.06265">
        <ele>505</ele>
        <time>2014-11-02T13:52:17Z</time>
      </trkpt>
      <trkpt lat="46.30226" lon="6.06263">
        <ele>505.35</ele>
        <time>2014-11-02T13:52:18Z</time>
      </trkpt>
      <trkpt lat="46.3023" lon="6.06258">
        <ele>505.83</ele>
        <time>2014-11-02T13:52:20Z</time>
      </trkpt>
      <trkpt lat="46.30233" lon="6.06256">
        <ele>505.97</ele>
        <time>2014-11-02T13:52:21Z</time>
      </trkpt>
      <trkpt lat="46.30235" lon="6.06254">
        <ele>506.07</ele>
        <time>2014-11-02T13:52:22Z</time>
      </trkpt>
      <trkpt lat="46.30238" lon="6.06252">
        <ele>506.18</ele>
        <time>2014-11-02T13:52:23Z</time>
      </trkpt>
      <trkpt lat="46.3024" lon="6.0625">
        <ele>506.23</ele>
        <time>2014-11-02T13:52:24Z</time>
      </trkpt>
      <trkpt lat="46.30243" lon="6.06249">
        <ele>506.29</ele>
        <time>2014-11-02T13:52:25Z</time>
      </trkpt>
      <trkpt lat="46.30245" lon="6.06248">
        <ele>506.32</ele>
        <time>2014-11-02T13:52:26Z</time>
      </trkpt>
      <trkpt lat="46.30259" lon="6.06242">
        <ele>507.86</ele>
        <time>2014-11-02T13:52:31Z</time>
      </trkpt>
      <trkpt lat="46.30268" lon="6.06236">
        <ele>508.01</ele>
        <time>2014-11-02T13:52:34Z</time>
      </trkpt>
      <trkpt lat="46.30271" lon="6.06234">
        <ele>508.11</ele>
        <time>2014-11-02T13:52:35Z</time>
      </trkpt>
      <trkpt lat="46.30274" lon="6.06231">
        <ele>508.05</ele>
        <time>2014-11-02T13:52:36Z</time>
      </trkpt>
      <trkpt lat="46.30277" lon="6.06229">
        <ele>508.18</ele>
        <time>2014-11-02T13:52:37Z</time>
      </trkpt>
      <trkpt lat="46.30281" lon="6.06227">
        <ele>508.3</ele>
        <time>2014-11-02T13:52:38Z</time>
      </trkpt>
      <trkpt lat="46.30284" lon="6.06225">
        <ele>508.58</ele>
        <time>2014-11-02T13:52:39Z</time>
      </trkpt>
      <trkpt lat="46.30303" lon="6.06212">
        <ele>509.4</ele>
        <time>2014-11-02T13:52:45Z</time>
      </trkpt>
      <trkpt lat="46.30306" lon="6.06211">
        <ele>509.4</ele>
        <time>2014-11-02T13:52:46Z</time>
      </trkpt>
      <trkpt lat="46.30309" lon="6.06209">
        <ele>509.49</ele>
        <time>2014-11-02T13:52:47Z</time>
      </trkpt>
      <trkpt lat="46.30313" lon="6.06207">
        <ele>509.59</ele>
        <time>2014-11-02T13:52:48Z</time>
      </trkpt>
      <trkpt lat="46.30316" lon="6.06205">
        <ele>509.58</ele>
        <time>2014-11-02T13:52:49Z</time>
      </trkpt>
      <trkpt lat="46.30319" lon="6.06202">
        <ele>509.64</ele>
        <time>2014-11-02T13:52:50Z</time>
      </trkpt>
      <trkpt lat="46.30322" lon="6.062">
        <ele>509.76</ele>
        <time>2014-11-02T13:52:51Z</time>
      </trkpt>
      <trkpt lat="46.30325" lon="6.06198">
        <ele>509.95</ele>
        <time>2014-11-02T13:52:52Z</time>
      </trkpt>
      <trkpt lat="46.30332" lon="6.06193">
        <ele>510.36</ele>
        <time>2014-11-02T13:52:54Z</time>
      </trkpt>
      <trkpt lat="46.30335" lon="6.06191">
        <ele>510.51</ele>
        <time>2014-11-02T13:52:55Z</time>
      </trkpt>
      <trkpt lat="46.30351" lon="6.06178">
        <ele>510.79</ele>
        <time>2014-11-02T13:53:00Z</time>
      </trkpt>
      <trkpt lat="46.30354" lon="6.06176">
        <ele>510.87</ele>
        <time>2014-11-02T13:53:01Z</time>
      </trkpt>
      <trkpt lat="46.30357" lon="6.06173">
        <ele>510.97</ele>
        <time>2014-11-02T13:53:02Z</time>
      </trkpt>
      <trkpt lat="46.3036" lon="6.06171">
        <ele>511.02</ele>
        <time>2014-11-02T13:53:03Z</time>
      </trkpt>
      <trkpt lat="46.30363" lon="6.06168">
        <ele>511.1</ele>
        <time>2014-11-02T13:53:04Z</time>
      </trkpt>
      <trkpt lat="46.30369" lon="6.06161">
        <ele>511.16</ele>
        <time>2014-11-02T13:53:06Z</time>
      </trkpt>
      <trkpt lat="46.30372" lon="6.06158">
        <ele>511.27</ele>
        <time>2014-11-02T13:53:07Z</time>
      </trkpt>
      <trkpt lat="46.30379" lon="6.06151">
        <ele>511.34</ele>
        <time>2014-11-02T13:53:09Z</time>
      </trkpt>
      <trkpt lat="46.30382" lon="6.06147">
        <ele>511.38</ele>
        <time>2014-11-02T13:53:10Z</time>
      </trkpt>
      <trkpt lat="46.30386" lon="6.06143">
        <ele>511.4</ele>
        <time>2014-11-02T13:53:11Z</time>
      </trkpt>
      <trkpt lat="46.30413" lon="6.06115">
        <ele>510.4</ele>
        <time>2014-11-02T13:53:18Z</time>
      </trkpt>
      <trkpt lat="46.30455" lon="6.06053">
        <ele>510.43</ele>
        <time>2014-11-02T13:53:31Z</time>
      </trkpt>
      <trkpt lat="46.30458" lon="6.06048">
        <ele>510.45</ele>
        <time>2014-11-02T13:53:32Z</time>
      </trkpt>
      <trkpt lat="46.30489" lon="6.05995">
        <ele>510.52</ele>
        <time>2014-11-02T13:53:43Z</time>
      </trkpt>
      <trkpt lat="46.30492" lon="6.05991">
        <ele>510.7</ele>
        <time>2014-11-02T13:53:44Z</time>
      </trkpt>
      <trkpt lat="46.30495" lon="6.05987">
        <ele>510.79</ele>
        <time>2014-11-02T13:53:45Z</time>
      </trkpt>
      <trkpt lat="46.30501" lon="6.05978">
        <ele>510.96</ele>
        <time>2014-11-02T13:53:47Z</time>
      </trkpt>
      <trkpt lat="46.30552" lon="6.05891">
        <ele>513.06</ele>
        <time>2014-11-02T13:54:04Z</time>
      </trkpt>
      <trkpt lat="46.30556" lon="6.05871">
        <ele>513.59</ele>
        <time>2014-11-02T13:54:07Z</time>
      </trkpt>
      <trkpt lat="46.30558" lon="6.05865">
        <ele>513.47</ele>
        <time>2014-11-02T13:54:08Z</time>
      </trkpt>
      <trkpt lat="46.3056" lon="6.05858">
        <ele>513.68</ele>
        <time>2014-11-02T13:54:09Z</time>
      </trkpt>
      <trkpt lat="46.30566" lon="6.05839">
        <ele>514.11</ele>
        <time>2014-11-02T13:54:12Z</time>
      </trkpt>
      <trkpt lat="46.30569" lon="6.05833">
        <ele>514.21</ele>
        <time>2014-11-02T13:54:13Z</time>
      </trkpt>
      <trkpt lat="46.30586" lon="6.05807">
        <ele>514.28</ele>
        <time>2014-11-02T13:54:18Z</time>
      </trkpt>
      <trkpt lat="46.3059" lon="6.05803">
        <ele>514.34</ele>
        <time>2014-11-02T13:54:19Z</time>
      </trkpt>
      <trkpt lat="46.30594" lon="6.05799">
        <ele>514.23</ele>
        <time>2014-11-02T13:54:20Z</time>
      </trkpt>
      <trkpt lat="46.30609" lon="6.05785">
        <ele>514.15</ele>
        <time>2014-11-02T13:54:24Z</time>
      </trkpt>
      <trkpt lat="46.30645" lon="6.05745">
        <ele>515.9</ele>
        <time>2014-11-02T13:54:34Z</time>
      </trkpt>
      <trkpt lat="46.30688" lon="6.05636">
        <ele>518.02</ele>
        <time>2014-11-02T13:54:52Z</time>
      </trkpt>
      <trkpt lat="46.30704" lon="6.05591">
        <ele>519.68</ele>
        <time>2014-11-02T13:55:01Z</time>
      </trkpt>
      <trkpt lat="46.30706" lon="6.05587">
        <ele>520.07</ele>
        <time>2014-11-02T13:55:02Z</time>
      </trkpt>
      <trkpt lat="46.30707" lon="6.05583">
        <ele>520.41</ele>
        <time>2014-11-02T13:55:03Z</time>
      </trkpt>
      <trkpt lat="46.30709" lon="6.05579">
        <ele>520.71</ele>
        <time>2014-11-02T13:55:04Z</time>
      </trkpt>
      <trkpt lat="46.30711" lon="6.05574">
        <ele>520.96</ele>
        <time>2014-11-02T13:55:05Z</time>
      </trkpt>
      <trkpt lat="46.30713" lon="6.0557">
        <ele>521.21</ele>
        <time>2014-11-02T13:55:06Z</time>
      </trkpt>
      <trkpt lat="46.30718" lon="6.05561">
        <ele>521.61</ele>
        <time>2014-11-02T13:55:08Z</time>
      </trkpt>
      <trkpt lat="46.3072" lon="6.05557">
        <ele>521.76</ele>
        <time>2014-11-02T13:55:09Z</time>
      </trkpt>
      <trkpt lat="46.30722" lon="6.05552">
        <ele>521.94</ele>
        <time>2014-11-02T13:55:10Z</time>
      </trkpt>
      <trkpt lat="46.30728" lon="6.05539">
        <ele>522.33</ele>
        <time>2014-11-02T13:55:13Z</time>
      </trkpt>
      <trkpt lat="46.3073" lon="6.05534">
        <ele>522.4</ele>
        <time>2014-11-02T13:55:14Z</time>
      </trkpt>
      <trkpt lat="46.30735" lon="6.05526">
        <ele>522.47</ele>
        <time>2014-11-02T13:55:16Z</time>
      </trkpt>
      <trkpt lat="46.3076" lon="6.05465">
        <ele>523.26</ele>
        <time>2014-11-02T13:55:29Z</time>
      </trkpt>
      <trkpt lat="46.30762" lon="6.05459">
        <ele>523.15</ele>
        <time>2014-11-02T13:55:30Z</time>
      </trkpt>
      <trkpt lat="46.30763" lon="6.05453">
        <ele>523.15</ele>
        <time>2014-11-02T13:55:31Z</time>
      </trkpt>
      <trkpt lat="46.30764" lon="6.05447">
        <ele>523</ele>
        <time>2014-11-02T13:55:32Z</time>
      </trkpt>
      <trkpt lat="46.30765" lon="6.05441">
        <ele>522.98</ele>
        <time>2014-11-02T13:55:33Z</time>
      </trkpt>
      <trkpt lat="46.30764" lon="6.05367">
        <ele>524.41</ele>
        <time>2014-11-02T13:55:46Z</time>
      </trkpt>
      <trkpt lat="46.30759" lon="6.05328">
        <ele>525.04</ele>
        <time>2014-11-02T13:55:53Z</time>
      </trkpt>
      <trkpt lat="46.30779" lon="6.05252">
        <ele>526.86</ele>
        <time>2014-11-02T13:56:08Z</time>
      </trkpt>
      <trkpt lat="46.30805" lon="6.0517">
        <ele>529.98</ele>
        <time>2014-11-02T13:56:25Z</time>
      </trkpt>
      <trkpt lat="46.30806" lon="6.05148">
        <ele>530.2</ele>
        <time>2014-11-02T13:56:29Z</time>
      </trkpt>
      <trkpt lat="46.30806" lon="6.05143">
        <ele>530.32</ele>
        <time>2014-11-02T13:56:30Z</time>
      </trkpt>
      <trkpt lat="46.30801" lon="6.05108">
        <ele>530.98</ele>
        <time>2014-11-02T13:56:37Z</time>
      </trkpt>
      <trkpt lat="46.308" lon="6.05103">
        <ele>531.06</ele>
        <time>2014-11-02T13:56:38Z</time>
      </trkpt>
      <trkpt lat="46.308" lon="6.05097">
        <ele>531.1</ele>
        <time>2014-11-02T13:56:39Z</time>
      </trkpt>
      <trkpt lat="46.30799" lon="6.05092">
        <ele>531.15</ele>
        <time>2014-11-02T13:56:40Z</time>
      </trkpt>
      <trkpt lat="46.30798" lon="6.05086">
        <ele>531.3</ele>
        <time>2014-11-02T13:56:41Z</time>
      </trkpt>
      <trkpt lat="46.30798" lon="6.05081">
        <ele>531.48</ele>
        <time>2014-11-02T13:56:42Z</time>
      </trkpt>
      <trkpt lat="46.30796" lon="6.05031">
        <ele>532.91</ele>
        <time>2014-11-02T13:56:52Z</time>
      </trkpt>
      <trkpt lat="46.30796" lon="6.05026">
        <ele>533.11</ele>
        <time>2014-11-02T13:56:53Z</time>
      </trkpt>
      <trkpt lat="46.30795" lon="6.05021">
        <ele>533.25</ele>
        <time>2014-11-02T13:56:54Z</time>
      </trkpt>
      <trkpt lat="46.30795" lon="6.05016">
        <ele>533.38</ele>
        <time>2014-11-02T13:56:55Z</time>
      </trkpt>
      <trkpt lat="46.30794" lon="6.05011">
        <ele>533.48</ele>
        <time>2014-11-02T13:56:56Z</time>
      </trkpt>
      <trkpt lat="46.30784" lon="6.04955">
        <ele>535.02</ele>
        <time>2014-11-02T13:57:07Z</time>
      </trkpt>
      <trkpt lat="46.30785" lon="6.04853">
        <ele>536.22</ele>
        <time>2014-11-02T13:57:25Z</time>
      </trkpt>
      <trkpt lat="46.30791" lon="6.04836">
        <ele>536.47</ele>
        <time>2014-11-02T13:57:28Z</time>
      </trkpt>
      <trkpt lat="46.30795" lon="6.04826">
        <ele>536.61</ele>
        <time>2014-11-02T13:57:30Z</time>
      </trkpt>
      <trkpt lat="46.30797" lon="6.0482">
        <ele>536.64</ele>
        <time>2014-11-02T13:57:31Z</time>
      </trkpt>
      <trkpt lat="46.30804" lon="6.04804">
        <ele>536.67</ele>
        <time>2014-11-02T13:57:34Z</time>
      </trkpt>
      <trkpt lat="46.30807" lon="6.048">
        <ele>536.67</ele>
        <time>2014-11-02T13:57:35Z</time>
      </trkpt>
      <trkpt lat="46.30821" lon="6.04773">
        <ele>537.24</ele>
        <time>2014-11-02T13:57:41Z</time>
      </trkpt>
      <trkpt lat="46.30839" lon="6.04741">
        <ele>540.46</ele>
        <time>2014-11-02T13:57:51Z</time>
      </trkpt>
      <trkpt lat="46.30857" lon="6.04707">
        <ele>543.61</ele>
        <time>2014-11-02T13:58:03Z</time>
      </trkpt>
      <trkpt lat="46.30883" lon="6.04653">
        <ele>546.45</ele>
        <time>2014-11-02T13:58:20Z</time>
      </trkpt>
      <trkpt lat="46.30907" lon="6.04615">
        <ele>547.04</ele>
        <time>2014-11-02T13:58:36Z</time>
      </trkpt>
      <trkpt lat="46.30912" lon="6.04603">
        <ele>547.22</ele>
        <time>2014-11-02T13:58:44Z</time>
      </trkpt>
      <trkpt lat="46.30912" lon="6.046">
        <ele>547.23</ele>
        <time>2014-11-02T13:58:45Z</time>
      </trkpt>
      <trkpt lat="46.30911" lon="6.04597">
        <ele>547.18</ele>
        <time>2014-11-02T13:58:46Z</time>
      </trkpt>
      <trkpt lat="46.3091" lon="6.04593">
        <ele>547.18</ele>
        <time>2014-11-02T13:58:47Z</time>
      </trkpt>
      <trkpt lat="46.30908" lon="6.04588">
        <ele>547.11</ele>
        <time>2014-11-02T13:58:48Z</time>
      </trkpt>
      <trkpt lat="46.30905" lon="6.04583">
        <ele>547.11</ele>
        <time>2014-11-02T13:58:49Z</time>
      </trkpt>
      <trkpt lat="46.30902" lon="6.04578">
        <ele>547.06</ele>
        <time>2014-11-02T13:58:50Z</time>
      </trkpt>
      <trkpt lat="46.30899" lon="6.04573">
        <ele>546.98</ele>
        <time>2014-11-02T13:58:51Z</time>
      </trkpt>
      <trkpt lat="46.30895" lon="6.04567">
        <ele>546.9</ele>
        <time>2014-11-02T13:58:52Z</time>
      </trkpt>
      <trkpt lat="46.3085" lon="6.04494">
        <ele>543.48</ele>
        <time>2014-11-02T13:59:02Z</time>
      </trkpt>
      <trkpt lat="46.30834" lon="6.04472">
        <ele>543.08</ele>
        <time>2014-11-02T13:59:05Z</time>
      </trkpt>
      <trkpt lat="46.30828" lon="6.04467">
        <ele>543</ele>
        <time>2014-11-02T13:59:06Z</time>
      </trkpt>
      <trkpt lat="46.30822" lon="6.04462">
        <ele>542.77</ele>
        <time>2014-11-02T13:59:07Z</time>
      </trkpt>
      <trkpt lat="46.30815" lon="6.04458">
        <ele>542.65</ele>
        <time>2014-11-02T13:59:08Z</time>
      </trkpt>
      <trkpt lat="46.30809" lon="6.04455">
        <ele>542.45</ele>
        <time>2014-11-02T13:59:09Z</time>
      </trkpt>
      <trkpt lat="46.30802" lon="6.04453">
        <ele>542.26</ele>
        <time>2014-11-02T13:59:10Z</time>
      </trkpt>
      <trkpt lat="46.30789" lon="6.0445">
        <ele>541.78</ele>
        <time>2014-11-02T13:59:12Z</time>
      </trkpt>
      <trkpt lat="46.30783" lon="6.0445">
        <ele>541.66</ele>
        <time>2014-11-02T13:59:13Z</time>
      </trkpt>
      <trkpt lat="46.3072" lon="6.04453">
        <ele>541.77</ele>
        <time>2014-11-02T13:59:23Z</time>
      </trkpt>
      <trkpt lat="46.30658" lon="6.04434">
        <ele>543.51</ele>
        <time>2014-11-02T13:59:34Z</time>
      </trkpt>
      <trkpt lat="46.30589" lon="6.04403">
        <ele>545.25</ele>
        <time>2014-11-02T13:59:47Z</time>
      </trkpt>
      <trkpt lat="46.3048" lon="6.04354">
        <ele>545.75</ele>
        <time>2014-11-02T14:00:06Z</time>
      </trkpt>
      <trkpt lat="46.30354" lon="6.04299">
        <ele>545.33</ele>
        <time>2014-11-02T14:00:28Z</time>
      </trkpt>
      <trkpt lat="46.30273" lon="6.04268">
        <ele>545.77</ele>
        <time>2014-11-02T14:00:42Z</time>
      </trkpt>
      <trkpt lat="46.30262" lon="6.0426">
        <ele>545.64</ele>
        <time>2014-11-02T14:00:44Z</time>
      </trkpt>
      <trkpt lat="46.30189" lon="6.04179">
        <ele>544</ele>
        <time>2014-11-02T14:00:58Z</time>
      </trkpt>
      <trkpt lat="46.30155" lon="6.04137">
        <ele>541.78</ele>
        <time>2014-11-02T14:01:05Z</time>
      </trkpt>
      <trkpt lat="46.30093" lon="6.0405">
        <ele>541.42</ele>
        <time>2014-11-02T14:01:18Z</time>
      </trkpt>
      <trkpt lat="46.30087" lon="6.04045">
        <ele>541.49</ele>
        <time>2014-11-02T14:01:19Z</time>
      </trkpt>
      <trkpt lat="46.30082" lon="6.04042">
        <ele>541.4</ele>
        <time>2014-11-02T14:01:20Z</time>
      </trkpt>
      <trkpt lat="46.30075" lon="6.04039">
        <ele>541.34</ele>
        <time>2014-11-02T14:01:21Z</time>
      </trkpt>
      <trkpt lat="46.30069" lon="6.04037">
        <ele>541.32</ele>
        <time>2014-11-02T14:01:22Z</time>
      </trkpt>
      <trkpt lat="46.30063" lon="6.04036">
        <ele>541.27</ele>
        <time>2014-11-02T14:01:23Z</time>
      </trkpt>
      <trkpt lat="46.30057" lon="6.04037">
        <ele>541.24</ele>
        <time>2014-11-02T14:01:24Z</time>
      </trkpt>
      <trkpt lat="46.30052" lon="6.04038">
        <ele>541.06</ele>
        <time>2014-11-02T14:01:25Z</time>
      </trkpt>
      <trkpt lat="46.30047" lon="6.0404">
        <ele>540.81</ele>
        <time>2014-11-02T14:01:26Z</time>
      </trkpt>
      <trkpt lat="46.30042" lon="6.04045">
        <ele>540.68</ele>
        <time>2014-11-02T14:01:27Z</time>
      </trkpt>
      <trkpt lat="46.30038" lon="6.0405">
        <ele>540.81</ele>
        <time>2014-11-02T14:01:28Z</time>
      </trkpt>
      <trkpt lat="46.30033" lon="6.04056">
        <ele>540.88</ele>
        <time>2014-11-02T14:01:29Z</time>
      </trkpt>
      <trkpt lat="46.30028" lon="6.04062">
        <ele>540.75</ele>
        <time>2014-11-02T14:01:30Z</time>
      </trkpt>
      <trkpt lat="46.30023" lon="6.04067">
        <ele>540.75</ele>
        <time>2014-11-02T14:01:31Z</time>
      </trkpt>
      <trkpt lat="46.30018" lon="6.04073">
        <ele>541.01</ele>
        <time>2014-11-02T14:01:32Z</time>
      </trkpt>
      <trkpt lat="46.29989" lon="6.04107">
        <ele>541.49</ele>
        <time>2014-11-02T14:01:38Z</time>
      </trkpt>
      <trkpt lat="46.29984" lon="6.04112">
        <ele>541.45</ele>
        <time>2014-11-02T14:01:39Z</time>
      </trkpt>
      <trkpt lat="46.29978" lon="6.04115">
        <ele>541.43</ele>
        <time>2014-11-02T14:01:40Z</time>
      </trkpt>
      <trkpt lat="46.29971" lon="6.04116">
        <ele>541.41</ele>
        <time>2014-11-02T14:01:41Z</time>
      </trkpt>
      <trkpt lat="46.29966" lon="6.04117">
        <ele>541.4</ele>
        <time>2014-11-02T14:01:42Z</time>
      </trkpt>
      <trkpt lat="46.2996" lon="6.04117">
        <ele>541.32</ele>
        <time>2014-11-02T14:01:43Z</time>
      </trkpt>
      <trkpt lat="46.29954" lon="6.04115">
        <ele>541.28</ele>
        <time>2014-11-02T14:01:44Z</time>
      </trkpt>
      <trkpt lat="46.29949" lon="6.04113">
        <ele>541.26</ele>
        <time>2014-11-02T14:01:45Z</time>
      </trkpt>
      <trkpt lat="46.29943" lon="6.0411">
        <ele>541.28</ele>
        <time>2014-11-02T14:01:46Z</time>
      </trkpt>
      <trkpt lat="46.29926" lon="6.041">
        <ele>541.9</ele>
        <time>2014-11-02T14:01:49Z</time>
      </trkpt>
      <trkpt lat="46.29916" lon="6.04093">
        <ele>542.29</ele>
        <time>2014-11-02T14:01:51Z</time>
      </trkpt>
      <trkpt lat="46.29902" lon="6.0408">
        <ele>542.88</ele>
        <time>2014-11-02T14:01:54Z</time>
      </trkpt>
      <trkpt lat="46.29894" lon="6.04071">
        <ele>542.96</ele>
        <time>2014-11-02T14:01:56Z</time>
      </trkpt>
      <trkpt lat="46.29886" lon="6.0406">
        <ele>542.85</ele>
        <time>2014-11-02T14:01:58Z</time>
      </trkpt>
      <trkpt lat="46.29882" lon="6.04054">
        <ele>542.7</ele>
        <time>2014-11-02T14:01:59Z</time>
      </trkpt>
      <trkpt lat="46.29879" lon="6.04048">
        <ele>542.58</ele>
        <time>2014-11-02T14:02:00Z</time>
      </trkpt>
      <trkpt lat="46.29876" lon="6.04041">
        <ele>542.49</ele>
        <time>2014-11-02T14:02:01Z</time>
      </trkpt>
      <trkpt lat="46.29873" lon="6.04033">
        <ele>542.37</ele>
        <time>2014-11-02T14:02:02Z</time>
      </trkpt>
      <trkpt lat="46.29845" lon="6.03912">
        <ele>542.51</ele>
        <time>2014-11-02T14:02:17Z</time>
      </trkpt>
      <trkpt lat="46.29839" lon="6.03887">
        <ele>542.49</ele>
        <time>2014-11-02T14:02:20Z</time>
      </trkpt>
      <trkpt lat="46.2979" lon="6.03785">
        <ele>541.77</ele>
        <time>2014-11-02T14:02:33Z</time>
      </trkpt>
      <trkpt lat="46.2975" lon="6.03666">
        <ele>541.21</ele>
        <time>2014-11-02T14:02:47Z</time>
      </trkpt>
      <trkpt lat="46.29743" lon="6.03612">
        <ele>542.01</ele>
        <time>2014-11-02T14:02:53Z</time>
      </trkpt>
      <trkpt lat="46.29741" lon="6.03603">
        <ele>541.94</ele>
        <time>2014-11-02T14:02:54Z</time>
      </trkpt>
      <trkpt lat="46.29738" lon="6.03595">
        <ele>541.98</ele>
        <time>2014-11-02T14:02:55Z</time>
      </trkpt>
      <trkpt lat="46.29734" lon="6.03587">
        <ele>541.79</ele>
        <time>2014-11-02T14:02:56Z</time>
      </trkpt>
      <trkpt lat="46.2973" lon="6.0358">
        <ele>541.9</ele>
        <time>2014-11-02T14:02:57Z</time>
      </trkpt>
      <trkpt lat="46.29726" lon="6.03574">
        <ele>541.95</ele>
        <time>2014-11-02T14:02:58Z</time>
      </trkpt>
      <trkpt lat="46.29715" lon="6.03555">
        <ele>542.12</ele>
        <time>2014-11-02T14:03:01Z</time>
      </trkpt>
      <trkpt lat="46.29712" lon="6.0355">
        <ele>542.12</ele>
        <time>2014-11-02T14:03:02Z</time>
      </trkpt>
      <trkpt lat="46.29708" lon="6.03544">
        <ele>542.18</ele>
        <time>2014-11-02T14:03:03Z</time>
      </trkpt>
      <trkpt lat="46.29705" lon="6.0354">
        <ele>542.29</ele>
        <time>2014-11-02T14:03:04Z</time>
      </trkpt>
      <trkpt lat="46.29702" lon="6.03535">
        <ele>542.63</ele>
        <time>2014-11-02T14:03:05Z</time>
      </trkpt>
      <trkpt lat="46.29699" lon="6.03531">
        <ele>543.18</ele>
        <time>2014-11-02T14:03:06Z</time>
      </trkpt>
      <trkpt lat="46.29697" lon="6.03526">
        <ele>543.81</ele>
        <time>2014-11-02T14:03:07Z</time>
      </trkpt>
      <trkpt lat="46.29691" lon="6.03515">
        <ele>544.78</ele>
        <time>2014-11-02T14:03:10Z</time>
      </trkpt>
      <trkpt lat="46.29689" lon="6.03511">
        <ele>545.3</ele>
        <time>2014-11-02T14:03:11Z</time>
      </trkpt>
      <trkpt lat="46.29687" lon="6.03507">
        <ele>545.85</ele>
        <time>2014-11-02T14:03:12Z</time>
      </trkpt>
      <trkpt lat="46.29686" lon="6.03502">
        <ele>546.25</ele>
        <time>2014-11-02T14:03:13Z</time>
      </trkpt>
      <trkpt lat="46.29684" lon="6.03497">
        <ele>546.51</ele>
        <time>2014-11-02T14:03:14Z</time>
      </trkpt>
      <trkpt lat="46.29683" lon="6.03492">
        <ele>546.74</ele>
        <time>2014-11-02T14:03:15Z</time>
      </trkpt>
      <trkpt lat="46.29682" lon="6.03487">
        <ele>546.94</ele>
        <time>2014-11-02T14:03:16Z</time>
      </trkpt>
      <trkpt lat="46.29681" lon="6.03482">
        <ele>547.17</ele>
        <time>2014-11-02T14:03:17Z</time>
      </trkpt>
      <trkpt lat="46.2968" lon="6.03473">
        <ele>547.81</ele>
        <time>2014-11-02T14:03:19Z</time>
      </trkpt>
      <trkpt lat="46.2968" lon="6.03468">
        <ele>548.09</ele>
        <time>2014-11-02T14:03:20Z</time>
      </trkpt>
      <trkpt lat="46.29679" lon="6.03463">
        <ele>548.33</ele>
        <time>2014-11-02T14:03:21Z</time>
      </trkpt>
      <trkpt lat="46.29678" lon="6.03458">
        <ele>548.56</ele>
        <time>2014-11-02T14:03:22Z</time>
      </trkpt>
      <trkpt lat="46.29677" lon="6.03454">
        <ele>548.76</ele>
        <time>2014-11-02T14:03:23Z</time>
      </trkpt>
      <trkpt lat="46.29677" lon="6.03449">
        <ele>549.06</ele>
        <time>2014-11-02T14:03:24Z</time>
      </trkpt>
      <trkpt lat="46.29676" lon="6.03444">
        <ele>549.68</ele>
        <time>2014-11-02T14:03:25Z</time>
      </trkpt>
      <trkpt lat="46.29674" lon="6.03435">
        <ele>549.93</ele>
        <time>2014-11-02T14:03:27Z</time>
      </trkpt>
      <trkpt lat="46.29674" lon="6.0343">
        <ele>550.14</ele>
        <time>2014-11-02T14:03:28Z</time>
      </trkpt>
      <trkpt lat="46.29673" lon="6.03425">
        <ele>550.38</ele>
        <time>2014-11-02T14:03:29Z</time>
      </trkpt>
      <trkpt lat="46.29672" lon="6.03421">
        <ele>550.62</ele>
        <time>2014-11-02T14:03:30Z</time>
      </trkpt>
      <trkpt lat="46.29671" lon="6.03417">
        <ele>551</ele>
        <time>2014-11-02T14:03:31Z</time>
      </trkpt>
      <trkpt lat="46.29671" lon="6.03413">
        <ele>551.42</ele>
        <time>2014-11-02T14:03:32Z</time>
      </trkpt>
      <trkpt lat="46.29669" lon="6.03399">
        <ele>551.91</ele>
        <time>2014-11-02T14:03:35Z</time>
      </trkpt>
      <trkpt lat="46.29668" lon="6.03395">
        <ele>552.13</ele>
        <time>2014-11-02T14:03:36Z</time>
      </trkpt>
      <trkpt lat="46.29667" lon="6.03391">
        <ele>552.47</ele>
        <time>2014-11-02T14:03:37Z</time>
      </trkpt>
      <trkpt lat="46.29667" lon="6.03387">
        <ele>552.76</ele>
        <time>2014-11-02T14:03:38Z</time>
      </trkpt>
      <trkpt lat="46.29667" lon="6.03382">
        <ele>552.98</ele>
        <time>2014-11-02T14:03:39Z</time>
      </trkpt>
      <trkpt lat="46.29667" lon="6.03378">
        <ele>553.12</ele>
        <time>2014-11-02T14:03:40Z</time>
      </trkpt>
      <trkpt lat="46.29667" lon="6.03372">
        <ele>553.29</ele>
        <time>2014-11-02T14:03:41Z</time>
      </trkpt>
      <trkpt lat="46.29666" lon="6.03366">
        <ele>553.62</ele>
        <time>2014-11-02T14:03:42Z</time>
      </trkpt>
      <trkpt lat="46.29666" lon="6.03361">
        <ele>554</ele>
        <time>2014-11-02T14:03:43Z</time>
      </trkpt>
      <trkpt lat="46.29665" lon="6.03356">
        <ele>554</ele>
        <time>2014-11-02T14:03:44Z</time>
      </trkpt>
      <trkpt lat="46.29665" lon="6.03351">
        <ele>554.27</ele>
        <time>2014-11-02T14:03:45Z</time>
      </trkpt>
      <trkpt lat="46.29664" lon="6.03347">
        <ele>554.46</ele>
        <time>2014-11-02T14:03:46Z</time>
      </trkpt>
      <trkpt lat="46.29664" lon="6.03343">
        <ele>554.62</ele>
        <time>2014-11-02T14:03:47Z</time>
      </trkpt>
      <trkpt lat="46.29663" lon="6.03338">
        <ele>554.77</ele>
        <time>2014-11-02T14:03:48Z</time>
      </trkpt>
      <trkpt lat="46.29662" lon="6.03329">
        <ele>555.03</ele>
        <time>2014-11-02T14:03:50Z</time>
      </trkpt>
      <trkpt lat="46.29661" lon="6.03324">
        <ele>555.15</ele>
        <time>2014-11-02T14:03:51Z</time>
      </trkpt>
      <trkpt lat="46.2966" lon="6.03319">
        <ele>555.22</ele>
        <time>2014-11-02T14:03:52Z</time>
      </trkpt>
      <trkpt lat="46.2966" lon="6.03314">
        <ele>555.25</ele>
        <time>2014-11-02T14:03:53Z</time>
      </trkpt>
      <trkpt lat="46.2966" lon="6.0331">
        <ele>555.26</ele>
        <time>2014-11-02T14:03:54Z</time>
      </trkpt>
      <trkpt lat="46.29659" lon="6.03306">
        <ele>555.32</ele>
        <time>2014-11-02T14:03:55Z</time>
      </trkpt>
      <trkpt lat="46.29659" lon="6.03302">
        <ele>555.35</ele>
        <time>2014-11-02T14:03:56Z</time>
      </trkpt>
      <trkpt lat="46.29659" lon="6.03297">
        <ele>555.37</ele>
        <time>2014-11-02T14:03:57Z</time>
      </trkpt>
      <trkpt lat="46.29659" lon="6.03284">
        <ele>555.41</ele>
        <time>2014-11-02T14:04:00Z</time>
      </trkpt>
      <trkpt lat="46.2966" lon="6.03279">
        <ele>555.46</ele>
        <time>2014-11-02T14:04:01Z</time>
      </trkpt>
      <trkpt lat="46.2966" lon="6.03275">
        <ele>555.48</ele>
        <time>2014-11-02T14:04:02Z</time>
      </trkpt>
      <trkpt lat="46.29661" lon="6.03271">
        <ele>555.31</ele>
        <time>2014-11-02T14:04:03Z</time>
      </trkpt>
      <trkpt lat="46.29662" lon="6.03267">
        <ele>555.23</ele>
        <time>2014-11-02T14:04:04Z</time>
      </trkpt>
      <trkpt lat="46.29663" lon="6.03263">
        <ele>555.28</ele>
        <time>2014-11-02T14:04:05Z</time>
      </trkpt>
      <trkpt lat="46.29665" lon="6.03259">
        <ele>555.31</ele>
        <time>2014-11-02T14:04:06Z</time>
      </trkpt>
      <trkpt lat="46.29667" lon="6.03255">
        <ele>555.22</ele>
        <time>2014-11-02T14:04:07Z</time>
      </trkpt>
      <trkpt lat="46.29668" lon="6.03251">
        <ele>555.17</ele>
        <time>2014-11-02T14:04:08Z</time>
      </trkpt>
      <trkpt lat="46.29675" lon="6.03229">
        <ele>555.13</ele>
        <time>2014-11-02T14:04:13Z</time>
      </trkpt>
      <trkpt lat="46.29674" lon="6.03218">
        <ele>555.12</ele>
        <time>2014-11-02T14:04:15Z</time>
      </trkpt>
      <trkpt lat="46.29673" lon="6.03212">
        <ele>555.01</ele>
        <time>2014-11-02T14:04:16Z</time>
      </trkpt>
      <trkpt lat="46.29672" lon="6.03206">
        <ele>554.92</ele>
        <time>2014-11-02T14:04:17Z</time>
      </trkpt>
      <trkpt lat="46.2967" lon="6.03201">
        <ele>554.87</ele>
        <time>2014-11-02T14:04:18Z</time>
      </trkpt>
      <trkpt lat="46.29667" lon="6.03195">
        <ele>554.75</ele>
        <time>2014-11-02T14:04:19Z</time>
      </trkpt>
      <trkpt lat="46.29659" lon="6.03178">
        <ele>554.43</ele>
        <time>2014-11-02T14:04:22Z</time>
      </trkpt>
      <trkpt lat="46.29644" lon="6.03151">
        <ele>553.58</ele>
        <time>2014-11-02T14:04:27Z</time>
      </trkpt>
      <trkpt lat="46.29641" lon="6.03145">
        <ele>553.8</ele>
        <time>2014-11-02T14:04:28Z</time>
      </trkpt>
      <trkpt lat="46.29623" lon="6.03114">
        <ele>554.16</ele>
        <time>2014-11-02T14:04:34Z</time>
      </trkpt>
      <trkpt lat="46.296" lon="6.03081">
        <ele>554.83</ele>
        <time>2014-11-02T14:04:41Z</time>
      </trkpt>
      <trkpt lat="46.29596" lon="6.03077">
        <ele>555.02</ele>
        <time>2014-11-02T14:04:42Z</time>
      </trkpt>
      <trkpt lat="46.29592" lon="6.03074">
        <ele>555.02</ele>
        <time>2014-11-02T14:04:43Z</time>
      </trkpt>
      <trkpt lat="46.29575" lon="6.03062">
        <ele>555.02</ele>
        <time>2014-11-02T14:04:47Z</time>
      </trkpt>
      <trkpt lat="46.29547" lon="6.03047">
        <ele>554.26</ele>
        <time>2014-11-02T14:04:53Z</time>
      </trkpt>
      <trkpt lat="46.29543" lon="6.03043">
        <ele>553.9</ele>
        <time>2014-11-02T14:04:54Z</time>
      </trkpt>
      <trkpt lat="46.2954" lon="6.03036">
        <ele>553.63</ele>
        <time>2014-11-02T14:04:55Z</time>
      </trkpt>
      <trkpt lat="46.29539" lon="6.03028">
        <ele>553.33</ele>
        <time>2014-11-02T14:04:56Z</time>
      </trkpt>
      <trkpt lat="46.29544" lon="6.03012">
        <ele>552.48</ele>
        <time>2014-11-02T14:04:58Z</time>
      </trkpt>
      <trkpt lat="46.29549" lon="6.03006">
        <ele>552.03</ele>
        <time>2014-11-02T14:04:59Z</time>
      </trkpt>
      <trkpt lat="46.29555" lon="6.03001">
        <ele>551.78</ele>
        <time>2014-11-02T14:05:00Z</time>
      </trkpt>
      <trkpt lat="46.29589" lon="6.0297">
        <ele>549.49</ele>
        <time>2014-11-02T14:05:05Z</time>
      </trkpt>
      <trkpt lat="46.29596" lon="6.02961">
        <ele>549.21</ele>
        <time>2014-11-02T14:05:06Z</time>
      </trkpt>
      <trkpt lat="46.29603" lon="6.02952">
        <ele>548.47</ele>
        <time>2014-11-02T14:05:07Z</time>
      </trkpt>
      <trkpt lat="46.29625" lon="6.02925">
        <ele>546.34</ele>
        <time>2014-11-02T14:05:10Z</time>
      </trkpt>
      <trkpt lat="46.29655" lon="6.02892">
        <ele>543.98</ele>
        <time>2014-11-02T14:05:14Z</time>
      </trkpt>
      <trkpt lat="46.29659" lon="6.02882">
        <ele>543.37</ele>
        <time>2014-11-02T14:05:15Z</time>
      </trkpt>
      <trkpt lat="46.29662" lon="6.0287">
        <ele>542.82</ele>
        <time>2014-11-02T14:05:16Z</time>
      </trkpt>
      <trkpt lat="46.29662" lon="6.02858">
        <ele>542.8</ele>
        <time>2014-11-02T14:05:17Z</time>
      </trkpt>
      <trkpt lat="46.29659" lon="6.02847">
        <ele>542.57</ele>
        <time>2014-11-02T14:05:18Z</time>
      </trkpt>
      <trkpt lat="46.29655" lon="6.02838">
        <ele>542.45</ele>
        <time>2014-11-02T14:05:19Z</time>
      </trkpt>
      <trkpt lat="46.29649" lon="6.02831">
        <ele>542.45</ele>
        <time>2014-11-02T14:05:20Z</time>
      </trkpt>
      <trkpt lat="46.29636" lon="6.02822">
        <ele>542.46</ele>
        <time>2014-11-02T14:05:22Z</time>
      </trkpt>
      <trkpt lat="46.2963" lon="6.0282">
        <ele>542.8</ele>
        <time>2014-11-02T14:05:23Z</time>
      </trkpt>
      <trkpt lat="46.29624" lon="6.0282">
        <ele>542.8</ele>
        <time>2014-11-02T14:05:24Z</time>
      </trkpt>
      <trkpt lat="46.29618" lon="6.02821">
        <ele>542.87</ele>
        <time>2014-11-02T14:05:25Z</time>
      </trkpt>
      <trkpt lat="46.29611" lon="6.02822">
        <ele>542.99</ele>
        <time>2014-11-02T14:05:26Z</time>
      </trkpt>
      <trkpt lat="46.29605" lon="6.02824">
        <ele>543.14</ele>
        <time>2014-11-02T14:05:27Z</time>
      </trkpt>
      <trkpt lat="46.29573" lon="6.02836">
        <ele>544.91</ele>
        <time>2014-11-02T14:05:33Z</time>
      </trkpt>
      <trkpt lat="46.29545" lon="6.02849">
        <ele>545.9</ele>
        <time>2014-11-02T14:05:38Z</time>
      </trkpt>
      <trkpt lat="46.29541" lon="6.02852">
        <ele>546.01</ele>
        <time>2014-11-02T14:05:39Z</time>
      </trkpt>
      <trkpt lat="46.29535" lon="6.02854">
        <ele>546.25</ele>
        <time>2014-11-02T14:05:40Z</time>
      </trkpt>
      <trkpt lat="46.29471" lon="6.02867">
        <ele>546.82</ele>
        <time>2014-11-02T14:05:51Z</time>
      </trkpt>
      <trkpt lat="46.29413" lon="6.02848">
        <ele>547.68</ele>
        <time>2014-11-02T14:06:02Z</time>
      </trkpt>
      <trkpt lat="46.29404" lon="6.0284">
        <ele>547.24</ele>
        <time>2014-11-02T14:06:04Z</time>
      </trkpt>
      <trkpt lat="46.29399" lon="6.02835">
        <ele>547.03</ele>
        <time>2014-11-02T14:06:05Z</time>
      </trkpt>
      <trkpt lat="46.29395" lon="6.0283">
        <ele>546.85</ele>
        <time>2014-11-02T14:06:06Z</time>
      </trkpt>
      <trkpt lat="46.29391" lon="6.02824">
        <ele>546.75</ele>
        <time>2014-11-02T14:06:07Z</time>
      </trkpt>
      <trkpt lat="46.29386" lon="6.02817">
        <ele>546.45</ele>
        <time>2014-11-02T14:06:08Z</time>
      </trkpt>
      <trkpt lat="46.29352" lon="6.02765">
        <ele>544.64</ele>
        <time>2014-11-02T14:06:15Z</time>
      </trkpt>
      <trkpt lat="46.29346" lon="6.02759">
        <ele>544.38</ele>
        <time>2014-11-02T14:06:16Z</time>
      </trkpt>
      <trkpt lat="46.29331" lon="6.02746">
        <ele>544.23</ele>
        <time>2014-11-02T14:06:19Z</time>
      </trkpt>
      <trkpt lat="46.29326" lon="6.02743">
        <ele>544.3</ele>
        <time>2014-11-02T14:06:20Z</time>
      </trkpt>
      <trkpt lat="46.29274" lon="6.02717">
        <ele>546.55</ele>
        <time>2014-11-02T14:06:33Z</time>
      </trkpt>
      <trkpt lat="46.29271" lon="6.02713">
        <ele>546.83</ele>
        <time>2014-11-02T14:06:34Z</time>
      </trkpt>
      <trkpt lat="46.29269" lon="6.02709">
        <ele>547.17</ele>
        <time>2014-11-02T14:06:35Z</time>
      </trkpt>
      <trkpt lat="46.29266" lon="6.02704">
        <ele>547.6</ele>
        <time>2014-11-02T14:06:36Z</time>
      </trkpt>
      <trkpt lat="46.29264" lon="6.027">
        <ele>548.01</ele>
        <time>2014-11-02T14:06:37Z</time>
      </trkpt>
      <trkpt lat="46.29262" lon="6.02696">
        <ele>548.37</ele>
        <time>2014-11-02T14:06:38Z</time>
      </trkpt>
      <trkpt lat="46.2926" lon="6.02691">
        <ele>548.77</ele>
        <time>2014-11-02T14:06:39Z</time>
      </trkpt>
      <trkpt lat="46.29258" lon="6.02686">
        <ele>549.09</ele>
        <time>2014-11-02T14:06:40Z</time>
      </trkpt>
      <trkpt lat="46.29256" lon="6.02682">
        <ele>549.35</ele>
        <time>2014-11-02T14:06:41Z</time>
      </trkpt>
      <trkpt lat="46.29254" lon="6.02677">
        <ele>549.63</ele>
        <time>2014-11-02T14:06:42Z</time>
      </trkpt>
      <trkpt lat="46.2925" lon="6.02668">
        <ele>550.21</ele>
        <time>2014-11-02T14:06:44Z</time>
      </trkpt>
      <trkpt lat="46.29246" lon="6.02659">
        <ele>550.37</ele>
        <time>2014-11-02T14:06:46Z</time>
      </trkpt>
      <trkpt lat="46.29244" lon="6.02655">
        <ele>550.56</ele>
        <time>2014-11-02T14:06:47Z</time>
      </trkpt>
      <trkpt lat="46.29239" lon="6.02647">
        <ele>550.99</ele>
        <time>2014-11-02T14:06:49Z</time>
      </trkpt>
      <trkpt lat="46.29237" lon="6.02642">
        <ele>551.11</ele>
        <time>2014-11-02T14:06:50Z</time>
      </trkpt>
      <trkpt lat="46.29235" lon="6.02638">
        <ele>551.18</ele>
        <time>2014-11-02T14:06:51Z</time>
      </trkpt>
      <trkpt lat="46.29232" lon="6.02633">
        <ele>551.25</ele>
        <time>2014-11-02T14:06:52Z</time>
      </trkpt>
      <trkpt lat="46.29229" lon="6.02628">
        <ele>551.38</ele>
        <time>2014-11-02T14:06:53Z</time>
      </trkpt>
      <trkpt lat="46.29226" lon="6.02624">
        <ele>551.47</ele>
        <time>2014-11-02T14:06:54Z</time>
      </trkpt>
      <trkpt lat="46.29164" lon="6.02569">
        <ele>551.23</ele>
        <time>2014-11-02T14:07:11Z</time>
      </trkpt>
      <trkpt lat="46.29087" lon="6.02506">
        <ele>549.95</ele>
        <time>2014-11-02T14:07:27Z</time>
      </trkpt>
      <trkpt lat="46.28996" lon="6.0243">
        <ele>548.4</ele>
        <time>2014-11-02T14:07:45Z</time>
      </trkpt>
      <trkpt lat="46.28911" lon="6.02345">
        <ele>545.53</ele>
        <time>2014-11-02T14:08:00Z</time>
      </trkpt>
      <trkpt lat="46.28814" lon="6.02283">
        <ele>544.03</ele>
        <time>2014-11-02T14:08:15Z</time>
      </trkpt>
      <trkpt lat="46.28807" lon="6.02278">
        <ele>543.63</ele>
        <time>2014-11-02T14:08:16Z</time>
      </trkpt>
      <trkpt lat="46.28801" lon="6.02272">
        <ele>543.18</ele>
        <time>2014-11-02T14:08:17Z</time>
      </trkpt>
      <trkpt lat="46.28796" lon="6.02265">
        <ele>542.62</ele>
        <time>2014-11-02T14:08:18Z</time>
      </trkpt>
      <trkpt lat="46.2879" lon="6.02258">
        <ele>542.35</ele>
        <time>2014-11-02T14:08:19Z</time>
      </trkpt>
      <trkpt lat="46.28691" lon="6.02134">
        <ele>541.03</ele>
        <time>2014-11-02T14:08:38Z</time>
      </trkpt>
      <trkpt lat="46.28581" lon="6.02035">
        <ele>540.88</ele>
        <time>2014-11-02T14:08:56Z</time>
      </trkpt>
      <trkpt lat="46.28536" lon="6.02003">
        <ele>540.05</ele>
        <time>2014-11-02T14:09:03Z</time>
      </trkpt>
      <trkpt lat="46.2845" lon="6.01938">
        <ele>536.92</ele>
        <time>2014-11-02T14:09:15Z</time>
      </trkpt>
      <trkpt lat="46.28416" lon="6.0192">
        <ele>535.41</ele>
        <time>2014-11-02T14:09:19Z</time>
      </trkpt>
      <trkpt lat="46.2832" lon="6.01848">
        <ele>532.27</ele>
        <time>2014-11-02T14:09:32Z</time>
      </trkpt>
      <trkpt lat="46.28275" lon="6.0181">
        <ele>531.65</ele>
        <time>2014-11-02T14:09:39Z</time>
      </trkpt>
      <trkpt lat="46.2827" lon="6.01802">
        <ele>531.59</ele>
        <time>2014-11-02T14:09:40Z</time>
      </trkpt>
      <trkpt lat="46.2826" lon="6.01789">
        <ele>531.52</ele>
        <time>2014-11-02T14:09:42Z</time>
      </trkpt>
      <trkpt lat="46.28254" lon="6.01785">
        <ele>531.56</ele>
        <time>2014-11-02T14:09:43Z</time>
      </trkpt>
      <trkpt lat="46.28242" lon="6.01781">
        <ele>531.62</ele>
        <time>2014-11-02T14:09:45Z</time>
      </trkpt>
      <trkpt lat="46.28236" lon="6.01777">
        <ele>531.65</ele>
        <time>2014-11-02T14:09:46Z</time>
      </trkpt>
      <trkpt lat="46.28231" lon="6.01772">
        <ele>531.66</ele>
        <time>2014-11-02T14:09:47Z</time>
      </trkpt>
      <trkpt lat="46.28225" lon="6.01765">
        <ele>531.5</ele>
        <time>2014-11-02T14:09:48Z</time>
      </trkpt>
      <trkpt lat="46.2822" lon="6.01758">
        <ele>531.12</ele>
        <time>2014-11-02T14:09:49Z</time>
      </trkpt>
      <trkpt lat="46.28216" lon="6.01749">
        <ele>530.72</ele>
        <time>2014-11-02T14:09:50Z</time>
      </trkpt>
      <trkpt lat="46.28211" lon="6.01741">
        <ele>530.47</ele>
        <time>2014-11-02T14:09:51Z</time>
      </trkpt>
      <trkpt lat="46.28207" lon="6.01732">
        <ele>530.34</ele>
        <time>2014-11-02T14:09:52Z</time>
      </trkpt>
      <trkpt lat="46.28145" lon="6.0163">
        <ele>530.3</ele>
        <time>2014-11-02T14:10:06Z</time>
      </trkpt>
      <trkpt lat="46.28091" lon="6.01572">
        <ele>529.3</ele>
        <time>2014-11-02T14:10:16Z</time>
      </trkpt>
      <trkpt lat="46.27976" lon="6.01481">
        <ele>530.37</ele>
        <time>2014-11-02T14:10:36Z</time>
      </trkpt>
      <trkpt lat="46.27971" lon="6.01476">
        <ele>530.3</ele>
        <time>2014-11-02T14:10:37Z</time>
      </trkpt>
      <trkpt lat="46.27967" lon="6.01472">
        <ele>530.12</ele>
        <time>2014-11-02T14:10:38Z</time>
      </trkpt>
      <trkpt lat="46.27882" lon="6.01415">
        <ele>528.48</ele>
        <time>2014-11-02T14:10:53Z</time>
      </trkpt>
      <trkpt lat="46.27807" lon="6.01369">
        <ele>526.65</ele>
        <time>2014-11-02T14:11:05Z</time>
      </trkpt>
      <trkpt lat="46.27712" lon="6.01295">
        <ele>524.05</ele>
        <time>2014-11-02T14:11:18Z</time>
      </trkpt>
      <trkpt lat="46.27571" lon="6.01217">
        <ele>522.84</ele>
        <time>2014-11-02T14:11:36Z</time>
      </trkpt>
      <trkpt lat="46.2752" lon="6.01192">
        <ele>521.98</ele>
        <time>2014-11-02T14:11:42Z</time>
      </trkpt>
      <trkpt lat="46.27434" lon="6.01148">
        <ele>520.09</ele>
        <time>2014-11-02T14:11:53Z</time>
      </trkpt>
      <trkpt lat="46.27311" lon="6.0105">
        <ele>517.25</ele>
        <time>2014-11-02T14:12:10Z</time>
      </trkpt>
      <trkpt lat="46.27216" lon="6.00956">
        <ele>518.61</ele>
        <time>2014-11-02T14:12:26Z</time>
      </trkpt>
      <trkpt lat="46.27169" lon="6.00901">
        <ele>518.63</ele>
        <time>2014-11-02T14:12:35Z</time>
      </trkpt>
      <trkpt lat="46.27106" lon="6.00763">
        <ele>517.44</ele>
        <time>2014-11-02T14:12:51Z</time>
      </trkpt>
      <trkpt lat="46.27074" lon="6.0069">
        <ele>518.08</ele>
        <time>2014-11-02T14:13:00Z</time>
      </trkpt>
      <trkpt lat="46.27066" lon="6.00664">
        <ele>518.21</ele>
        <time>2014-11-02T14:13:03Z</time>
      </trkpt>
      <trkpt lat="46.27027" lon="6.00549">
        <ele>519.2</ele>
        <time>2014-11-02T14:13:18Z</time>
      </trkpt>
      <trkpt lat="46.27009" lon="6.00522">
        <ele>518.45</ele>
        <time>2014-11-02T14:13:22Z</time>
      </trkpt>
      <trkpt lat="46.26997" lon="6.00511">
        <ele>517.97</ele>
        <time>2014-11-02T14:13:24Z</time>
      </trkpt>
      <trkpt lat="46.26929" lon="6.00462">
        <ele>514.93</ele>
        <time>2014-11-02T14:13:34Z</time>
      </trkpt>
      <trkpt lat="46.26836" lon="6.004">
        <ele>511.72</ele>
        <time>2014-11-02T14:13:47Z</time>
      </trkpt>
      <trkpt lat="46.26669" lon="6.00256">
        <ele>509.13</ele>
        <time>2014-11-02T14:14:11Z</time>
      </trkpt>
      <trkpt lat="46.26526" lon="6.00166">
        <ele>507.71</ele>
        <time>2014-11-02T14:14:30Z</time>
      </trkpt>
      <trkpt lat="46.26397" lon="6.0004">
        <ele>505.85</ele>
        <time>2014-11-02T14:14:50Z</time>
      </trkpt>
      <trkpt lat="46.2629" lon="5.99929">
        <ele>502.7</ele>
        <time>2014-11-02T14:15:05Z</time>
      </trkpt>
      <trkpt lat="46.26225" lon="5.99868">
        <ele>499.5</ele>
        <time>2014-11-02T14:15:13Z</time>
      </trkpt>
      <trkpt lat="46.26216" lon="5.9986">
        <ele>499.11</ele>
        <time>2014-11-02T14:15:14Z</time>
      </trkpt>
      <trkpt lat="46.26128" lon="5.998">
        <ele>496.24</ele>
        <time>2014-11-02T14:15:24Z</time>
      </trkpt>
      <trkpt lat="46.26119" lon="5.99797">
        <ele>496.21</ele>
        <time>2014-11-02T14:15:25Z</time>
      </trkpt>
      <trkpt lat="46.26048" lon="5.9976">
        <ele>496.81</ele>
        <time>2014-11-02T14:15:34Z</time>
      </trkpt>
      <trkpt lat="46.25951" lon="5.99689">
        <ele>497.21</ele>
        <time>2014-11-02T14:15:49Z</time>
      </trkpt>
      <trkpt lat="46.25885" lon="5.99625">
        <ele>497.28</ele>
        <time>2014-11-02T14:16:02Z</time>
      </trkpt>
      <trkpt lat="46.25884" lon="5.99619">
        <ele>497.26</ele>
        <time>2014-11-02T14:16:03Z</time>
      </trkpt>
      <trkpt lat="46.25885" lon="5.99614">
        <ele>497.32</ele>
        <time>2014-11-02T14:16:04Z</time>
      </trkpt>
      <trkpt lat="46.25888" lon="5.99609">
        <ele>497.39</ele>
        <time>2014-11-02T14:16:05Z</time>
      </trkpt>
      <trkpt lat="46.25891" lon="5.99605">
        <ele>497.53</ele>
        <time>2014-11-02T14:16:06Z</time>
      </trkpt>
      <trkpt lat="46.25894" lon="5.99602">
        <ele>497.84</ele>
        <time>2014-11-02T14:16:07Z</time>
      </trkpt>
      <trkpt lat="46.25901" lon="5.99594">
        <ele>498.52</ele>
        <time>2014-11-02T14:16:09Z</time>
      </trkpt>
      <trkpt lat="46.25904" lon="5.99591">
        <ele>498.78</ele>
        <time>2014-11-02T14:16:10Z</time>
      </trkpt>
      <trkpt lat="46.2593" lon="5.99564">
        <ele>499.56</ele>
        <time>2014-11-02T14:16:18Z</time>
      </trkpt>
      <trkpt lat="46.25934" lon="5.99561">
        <ele>499.63</ele>
        <time>2014-11-02T14:16:19Z</time>
      </trkpt>
      <trkpt lat="46.25947" lon="5.99548">
        <ele>500.5</ele>
        <time>2014-11-02T14:16:23Z</time>
      </trkpt>
      <trkpt lat="46.2595" lon="5.99545">
        <ele>500.78</ele>
        <time>2014-11-02T14:16:24Z</time>
      </trkpt>
      <trkpt lat="46.25955" lon="5.99537">
        <ele>501.17</ele>
        <time>2014-11-02T14:16:26Z</time>
      </trkpt>
      <trkpt lat="46.25961" lon="5.99531">
        <ele>501.28</ele>
        <time>2014-11-02T14:16:28Z</time>
      </trkpt>
      <trkpt lat="46.25964" lon="5.99527">
        <ele>501.3</ele>
        <time>2014-11-02T14:16:29Z</time>
      </trkpt>
      <trkpt lat="46.25966" lon="5.99524">
        <ele>501.37</ele>
        <time>2014-11-02T14:16:30Z</time>
      </trkpt>
      <trkpt lat="46.25968" lon="5.9952">
        <ele>501.57</ele>
        <time>2014-11-02T14:16:31Z</time>
      </trkpt>
      <trkpt lat="46.2598" lon="5.99502">
        <ele>502.93</ele>
        <time>2014-11-02T14:16:36Z</time>
      </trkpt>
      <trkpt lat="46.25985" lon="5.99495">
        <ele>503.23</ele>
        <time>2014-11-02T14:16:38Z</time>
      </trkpt>
      <trkpt lat="46.2599" lon="5.99488">
        <ele>503.66</ele>
        <time>2014-11-02T14:16:40Z</time>
      </trkpt>
      <trkpt lat="46.25992" lon="5.99485">
        <ele>504.03</ele>
        <time>2014-11-02T14:16:41Z</time>
      </trkpt>
      <trkpt lat="46.25994" lon="5.99481">
        <ele>504.34</ele>
        <time>2014-11-02T14:16:42Z</time>
      </trkpt>
      <trkpt lat="46.26003" lon="5.99469">
        <ele>505.33</ele>
        <time>2014-11-02T14:16:46Z</time>
      </trkpt>
      <trkpt lat="46.26005" lon="5.99467">
        <ele>505.62</ele>
        <time>2014-11-02T14:16:47Z</time>
      </trkpt>
      <trkpt lat="46.26007" lon="5.99465">
        <ele>505.99</ele>
        <time>2014-11-02T14:16:48Z</time>
      </trkpt>
      <trkpt lat="46.26009" lon="5.99463">
        <ele>506.31</ele>
        <time>2014-11-02T14:16:49Z</time>
      </trkpt>
      <trkpt lat="46.26011" lon="5.99461">
        <ele>506.55</ele>
        <time>2014-11-02T14:16:50Z</time>
      </trkpt>
      <trkpt lat="46.26013" lon="5.99459">
        <ele>506.67</ele>
        <time>2014-11-02T14:16:51Z</time>
      </trkpt>
      <trkpt lat="46.26015" lon="5.99456">
        <ele>506.67</ele>
        <time>2014-11-02T14:16:52Z</time>
      </trkpt>
      <trkpt lat="46.26017" lon="5.99454">
        <ele>507.03</ele>
        <time>2014-11-02T14:16:53Z</time>
      </trkpt>
      <trkpt lat="46.26021" lon="5.99449">
        <ele>507.22</ele>
        <time>2014-11-02T14:16:55Z</time>
      </trkpt>
      <trkpt lat="46.26023" lon="5.99448">
        <ele>507.44</ele>
        <time>2014-11-02T14:16:56Z</time>
      </trkpt>
      <trkpt lat="46.26027" lon="5.99444">
        <ele>507.94</ele>
        <time>2014-11-02T14:16:58Z</time>
      </trkpt>
      <trkpt lat="46.2603" lon="5.99442">
        <ele>508.09</ele>
        <time>2014-11-02T14:16:59Z</time>
      </trkpt>
      <trkpt lat="46.26033" lon="5.9944">
        <ele>508.25</ele>
        <time>2014-11-02T14:17:00Z</time>
      </trkpt>
      <trkpt lat="46.26035" lon="5.99438">
        <ele>508.48</ele>
        <time>2014-11-02T14:17:01Z</time>
      </trkpt>
      <trkpt lat="46.26038" lon="5.99436">
        <ele>508.8</ele>
        <time>2014-11-02T14:17:02Z</time>
      </trkpt>
      <trkpt lat="46.2604" lon="5.99435">
        <ele>509.11</ele>
        <time>2014-11-02T14:17:03Z</time>
      </trkpt>
      <trkpt lat="46.26042" lon="5.99433">
        <ele>509.37</ele>
        <time>2014-11-02T14:17:04Z</time>
      </trkpt>
      <trkpt lat="46.26045" lon="5.99431">
        <ele>509.53</ele>
        <time>2014-11-02T14:17:05Z</time>
      </trkpt>
      <trkpt lat="46.26047" lon="5.99429">
        <ele>509.63</ele>
        <time>2014-11-02T14:17:06Z</time>
      </trkpt>
      <trkpt lat="46.26049" lon="5.99426">
        <ele>509.83</ele>
        <time>2014-11-02T14:17:07Z</time>
      </trkpt>
      <trkpt lat="46.26052" lon="5.99424">
        <ele>510.18</ele>
        <time>2014-11-02T14:17:08Z</time>
      </trkpt>
      <trkpt lat="46.26053" lon="5.99421">
        <ele>510.42</ele>
        <time>2014-11-02T14:17:09Z</time>
      </trkpt>
      <trkpt lat="46.26055" lon="5.99418">
        <ele>510.54</ele>
        <time>2014-11-02T14:17:10Z</time>
      </trkpt>
      <trkpt lat="46.26057" lon="5.99416">
        <ele>510.66</ele>
        <time>2014-11-02T14:17:11Z</time>
      </trkpt>
      <trkpt lat="46.2606" lon="5.99414">
        <ele>510.79</ele>
        <time>2014-11-02T14:17:12Z</time>
      </trkpt>
      <trkpt lat="46.26062" lon="5.99411">
        <ele>510.85</ele>
        <time>2014-11-02T14:17:13Z</time>
      </trkpt>
      <trkpt lat="46.26065" lon="5.99409">
        <ele>510.97</ele>
        <time>2014-11-02T14:17:14Z</time>
      </trkpt>
      <trkpt lat="46.26067" lon="5.99407">
        <ele>511.21</ele>
        <time>2014-11-02T14:17:15Z</time>
      </trkpt>
      <trkpt lat="46.26069" lon="5.99404">
        <ele>511.56</ele>
        <time>2014-11-02T14:17:16Z</time>
      </trkpt>
      <trkpt lat="46.26071" lon="5.99401">
        <ele>511.82</ele>
        <time>2014-11-02T14:17:17Z</time>
      </trkpt>
      <trkpt lat="46.26073" lon="5.99398">
        <ele>512.03</ele>
        <time>2014-11-02T14:17:18Z</time>
      </trkpt>
      <trkpt lat="46.26075" lon="5.99396">
        <ele>512.28</ele>
        <time>2014-11-02T14:17:19Z</time>
      </trkpt>
      <trkpt lat="46.26077" lon="5.99394">
        <ele>512.41</ele>
        <time>2014-11-02T14:17:20Z</time>
      </trkpt>
      <trkpt lat="46.26079" lon="5.99392">
        <ele>512.62</ele>
        <time>2014-11-02T14:17:21Z</time>
      </trkpt>
      <trkpt lat="46.26082" lon="5.99389">
        <ele>512.8</ele>
        <time>2014-11-02T14:17:22Z</time>
      </trkpt>
      <trkpt lat="46.26084" lon="5.99388">
        <ele>512.93</ele>
        <time>2014-11-02T14:17:23Z</time>
      </trkpt>
      <trkpt lat="46.26089" lon="5.99383">
        <ele>513</ele>
        <time>2014-11-02T14:17:25Z</time>
      </trkpt>
      <trkpt lat="46.26091" lon="5.99381">
        <ele>513.06</ele>
        <time>2014-11-02T14:17:26Z</time>
      </trkpt>
      <trkpt lat="46.26093" lon="5.99378">
        <ele>513.12</ele>
        <time>2014-11-02T14:17:27Z</time>
      </trkpt>
      <trkpt lat="46.26095" lon="5.99376">
        <ele>513.2</ele>
        <time>2014-11-02T14:17:28Z</time>
      </trkpt>
      <trkpt lat="46.26097" lon="5.99373">
        <ele>513.4</ele>
        <time>2014-11-02T14:17:29Z</time>
      </trkpt>
      <trkpt lat="46.26097" lon="5.99365">
        <ele>514.37</ele>
        <time>2014-11-02T14:17:31Z</time>
      </trkpt>
      <trkpt lat="46.26097" lon="5.99361">
        <ele>514.58</ele>
        <time>2014-11-02T14:17:32Z</time>
      </trkpt>
      <trkpt lat="46.26091" lon="5.99342">
        <ele>514.47</ele>
        <time>2014-11-02T14:17:37Z</time>
      </trkpt>
      <trkpt lat="46.2609" lon="5.99338">
        <ele>514.44</ele>
        <time>2014-11-02T14:17:38Z</time>
      </trkpt>
      <trkpt lat="46.26087" lon="5.99331">
        <ele>514.4</ele>
        <time>2014-11-02T14:17:40Z</time>
      </trkpt>
      <trkpt lat="46.26085" lon="5.99327">
        <ele>514.34</ele>
        <time>2014-11-02T14:17:41Z</time>
      </trkpt>
      <trkpt lat="46.26074" lon="5.99309">
        <ele>514.31</ele>
        <time>2014-11-02T14:17:46Z</time>
      </trkpt>
      <trkpt lat="46.26072" lon="5.99305">
        <ele>514.46</ele>
        <time>2014-11-02T14:17:47Z</time>
      </trkpt>
      <trkpt lat="46.26069" lon="5.99301">
        <ele>514.54</ele>
        <time>2014-11-02T14:17:48Z</time>
      </trkpt>
      <trkpt lat="46.26067" lon="5.99298">
        <ele>514.63</ele>
        <time>2014-11-02T14:17:49Z</time>
      </trkpt>
      <trkpt lat="46.26064" lon="5.99294">
        <ele>514.67</ele>
        <time>2014-11-02T14:17:50Z</time>
      </trkpt>
      <trkpt lat="46.26049" lon="5.99279">
        <ele>514.69</ele>
        <time>2014-11-02T14:17:55Z</time>
      </trkpt>
      <trkpt lat="46.26046" lon="5.99276">
        <ele>514.88</ele>
        <time>2014-11-02T14:17:56Z</time>
      </trkpt>
      <trkpt lat="46.26043" lon="5.99274">
        <ele>514.88</ele>
        <time>2014-11-02T14:17:57Z</time>
      </trkpt>
      <trkpt lat="46.2604" lon="5.99271">
        <ele>514.94</ele>
        <time>2014-11-02T14:17:58Z</time>
      </trkpt>
      <trkpt lat="46.26033" lon="5.99264">
        <ele>515.48</ele>
        <time>2014-11-02T14:18:00Z</time>
      </trkpt>
      <trkpt lat="46.2603" lon="5.99262">
        <ele>515.72</ele>
        <time>2014-11-02T14:18:01Z</time>
      </trkpt>
      <trkpt lat="46.26023" lon="5.99256">
        <ele>515.87</ele>
        <time>2014-11-02T14:18:03Z</time>
      </trkpt>
      <trkpt lat="46.2602" lon="5.99253">
        <ele>515.83</ele>
        <time>2014-11-02T14:18:04Z</time>
      </trkpt>
      <trkpt lat="46.26012" lon="5.99248">
        <ele>515.66</ele>
        <time>2014-11-02T14:18:06Z</time>
      </trkpt>
      <trkpt lat="46.26008" lon="5.99246">
        <ele>515.48</ele>
        <time>2014-11-02T14:18:07Z</time>
      </trkpt>
      <trkpt lat="46.26002" lon="5.99245">
        <ele>515.13</ele>
        <time>2014-11-02T14:18:08Z</time>
      </trkpt>
      <trkpt lat="46.25997" lon="5.99244">
        <ele>514.93</ele>
        <time>2014-11-02T14:18:09Z</time>
      </trkpt>
      <trkpt lat="46.25987" lon="5.99241">
        <ele>514.56</ele>
        <time>2014-11-02T14:18:11Z</time>
      </trkpt>
      <trkpt lat="46.25981" lon="5.99239">
        <ele>514.34</ele>
        <time>2014-11-02T14:18:12Z</time>
      </trkpt>
      <trkpt lat="46.25977" lon="5.99236">
        <ele>514.02</ele>
        <time>2014-11-02T14:18:13Z</time>
      </trkpt>
      <trkpt lat="46.25968" lon="5.9923">
        <ele>513.57</ele>
        <time>2014-11-02T14:18:15Z</time>
      </trkpt>
      <trkpt lat="46.25964" lon="5.99229">
        <ele>513.28</ele>
        <time>2014-11-02T14:18:16Z</time>
      </trkpt>
      <trkpt lat="46.25953" lon="5.99229">
        <ele>512.79</ele>
        <time>2014-11-02T14:18:18Z</time>
      </trkpt>
      <trkpt lat="46.25942" lon="5.99226">
        <ele>512.38</ele>
        <time>2014-11-02T14:18:20Z</time>
      </trkpt>
      <trkpt lat="46.25937" lon="5.99222">
        <ele>512.24</ele>
        <time>2014-11-02T14:18:21Z</time>
      </trkpt>
      <trkpt lat="46.25933" lon="5.99217">
        <ele>512.1</ele>
        <time>2014-11-02T14:18:22Z</time>
      </trkpt>
      <trkpt lat="46.25925" lon="5.99207">
        <ele>511.84</ele>
        <time>2014-11-02T14:18:24Z</time>
      </trkpt>
      <trkpt lat="46.25879" lon="5.99145">
        <ele>511.95</ele>
        <time>2014-11-02T14:18:38Z</time>
      </trkpt>
      <trkpt lat="46.2586" lon="5.99123">
        <ele>512.23</ele>
        <time>2014-11-02T14:18:44Z</time>
      </trkpt>
      <trkpt lat="46.25849" lon="5.9911">
        <ele>512.39</ele>
        <time>2014-11-02T14:18:48Z</time>
      </trkpt>
      <trkpt lat="46.2584" lon="5.99091">
        <ele>512.39</ele>
        <time>2014-11-02T14:18:53Z</time>
      </trkpt>
      <trkpt lat="46.25841" lon="5.99088">
        <ele>512.39</ele>
        <time>2014-11-02T14:18:54Z</time>
      </trkpt>
      <trkpt lat="46.25844" lon="5.99084">
        <ele>512.43</ele>
        <time>2014-11-02T14:18:55Z</time>
      </trkpt>
      <trkpt lat="46.25846" lon="5.99081">
        <ele>512.48</ele>
        <time>2014-11-02T14:18:56Z</time>
      </trkpt>
      <trkpt lat="46.25849" lon="5.99077">
        <ele>512.59</ele>
        <time>2014-11-02T14:18:57Z</time>
      </trkpt>
      <trkpt lat="46.25851" lon="5.99073">
        <ele>512.84</ele>
        <time>2014-11-02T14:18:58Z</time>
      </trkpt>
      <trkpt lat="46.25854" lon="5.9907">
        <ele>513.27</ele>
        <time>2014-11-02T14:18:59Z</time>
      </trkpt>
      <trkpt lat="46.25856" lon="5.99067">
        <ele>513.64</ele>
        <time>2014-11-02T14:19:00Z</time>
      </trkpt>
      <trkpt lat="46.25858" lon="5.99063">
        <ele>513.85</ele>
        <time>2014-11-02T14:19:01Z</time>
      </trkpt>
      <trkpt lat="46.2586" lon="5.99059">
        <ele>513.85</ele>
        <time>2014-11-02T14:19:02Z</time>
      </trkpt>
      <trkpt lat="46.25863" lon="5.99056">
        <ele>513.99</ele>
        <time>2014-11-02T14:19:03Z</time>
      </trkpt>
      <trkpt lat="46.25865" lon="5.99052">
        <ele>514.16</ele>
        <time>2014-11-02T14:19:04Z</time>
      </trkpt>
      <trkpt lat="46.25868" lon="5.99049">
        <ele>514.38</ele>
        <time>2014-11-02T14:19:05Z</time>
      </trkpt>
      <trkpt lat="46.25889" lon="5.9902">
        <ele>516.41</ele>
        <time>2014-11-02T14:19:14Z</time>
      </trkpt>
      <trkpt lat="46.25891" lon="5.99017">
        <ele>516.63</ele>
        <time>2014-11-02T14:19:15Z</time>
      </trkpt>
      <trkpt lat="46.25898" lon="5.99006">
        <ele>517.36</ele>
        <time>2014-11-02T14:19:19Z</time>
      </trkpt>
      <trkpt lat="46.259" lon="5.99003">
        <ele>517.58</ele>
        <time>2014-11-02T14:19:20Z</time>
      </trkpt>
      <trkpt lat="46.25901" lon="5.99">
        <ele>517.8</ele>
        <time>2014-11-02T14:19:21Z</time>
      </trkpt>
      <trkpt lat="46.25902" lon="5.98997">
        <ele>518.04</ele>
        <time>2014-11-02T14:19:22Z</time>
      </trkpt>
      <trkpt lat="46.25903" lon="5.98991">
        <ele>518.67</ele>
        <time>2014-11-02T14:19:24Z</time>
      </trkpt>
      <trkpt lat="46.25902" lon="5.98988">
        <ele>519.14</ele>
        <time>2014-11-02T14:19:25Z</time>
      </trkpt>
      <trkpt lat="46.25902" lon="5.98984">
        <ele>519.5</ele>
        <time>2014-11-02T14:19:26Z</time>
      </trkpt>
      <trkpt lat="46.25902" lon="5.98981">
        <ele>519.74</ele>
        <time>2014-11-02T14:19:27Z</time>
      </trkpt>
      <trkpt lat="46.25902" lon="5.98975">
        <ele>520.15</ele>
        <time>2014-11-02T14:19:29Z</time>
      </trkpt>
      <trkpt lat="46.25901" lon="5.98968">
        <ele>520.46</ele>
        <time>2014-11-02T14:19:42Z</time>
      </trkpt>
    </trkseg>
  </trk>
</gpx>